[[{"header":{"parameterUnit":"m.s-1","parameterCategory":1,"la1":30.6,"la2":29.2853,"lo1":-89.7004,"lo2":-87.6739,"dy":0.0162,"dx":0.0183,"nx":112,"ny":82,"refTime":"2023-05-17T00:00:00:Z","depth":0,"parameterNumber":2,"parameterNumberName":"U-component_of_WINDS"},"data":[0.0,0.0,0.0,0.0,0.0,0.0,0.0,0.0,0.0,0.0,0.0,0.0,0.0,0.0,0.0,0.0,0.0,0.0,0.0,0.0,0.0,0.0,0.0,0.0,0.0,0.0,0.0,0.0,0.0,0.0,0.0,0.0,0.0,0.0,0.0,0.0,0.0,0.0,0.0,0.0,0.0,0.0,0.0,0.0,0.0,0.0,0.0,0.0,0.0,0.0,0.0,0.0,0.0,0.0,0.0,0.0,0.0,0.0,0.0,0.0,0.0,0.0,0.0,0.0,0.0,0.0,0.0,0.0,0.0,0.0,0.0,0.0,0.0,0.0,0.0,0.0,0.0,0.0,0.0,0.0,0.0,0.0,0.0,0.0,0.0,0.0,0.0,0.0,0.0,0.0,0.0,-1.947,-2.0256,-2.0844,-2.1119,-2.115,-2.1016,-2.0741,0.0,0.0,0.0,0.0,0.0,0.0,0.0,0.0,0.0,0.0,0.0,0.0,0.0,0.0,0.0,0.0,0.0,0.0,0.0,0.0,0.0,0.0,0.0,0.0,0.0,0.0,0.0,0.0,0.0,0.0,0.0,0.0,0.0,0.0,0.0,0.0,0.0,0.0,0.0,0.0,0.0,0.0,0.0,0.0,0.0,0.0,0.0,0.0,0.0,0.0,0.0,0.0,0.0,0.0,0.0,0.0,0.0,0.0,0.0,0.0,0.0,0.0,0.0,0.0,0.0,0.0,0.0,0.0,0.0,0.0,0.0,0.0,0.0,0.0,0.0,0.0,0.0,0.0,0.0,0.0,0.0,0.0,0.0,0.0,0.0,0.0,0.0,0.0,0.0,0.0,0.0,0.0,0.0,0.0,0.0,0.0,0.0,0.0,0.0,0.0,0.0,0.0,0.0,0.0,-1.926,-2.0092,-2.0302,-2.0407,-2.046,-2.046,-2.042,-2.0393,0.0,0.0,0.0,0.0,0.0,0.0,0.0,0.0,0.0,0.0,0.0,0.0,0.0,0.0,0.0,0.0,0.0,0.0,0.0,0.0,0.0,0.0,0.0,0.0,0.0,0.0,0.0,0.0,0.0,0.0,0.0,0.0,0.0,0.0,0.0,0.0,0.0,0.0,0.0,0.0,0.0,0.0,0.0,0.0,0.0,0.0,0.0,0.0,0.0,0.0,0.0,0.0,0.0,0.0,0.0,0.0,0.0,0.0,0.0,0.0,0.0,0.0,0.0,0.0,0.0,0.0,0.0,0.0,0.0,0.0,0.0,0.0,0.0,0.0,0.0,0.0,0.0,0.0,0.0,0.0,0.0,0.0,0.0,0.0,0.0,0.0,0.0,0.0,0.0,0.0,0.0,0.0,0.0,0.0,0.0,0.0,0.0,0.0,0.0,0.0,0.0,0.0,0.0,-1.8563,-1.9289,-1.9893,-2.0166,-2.0304,-2.0304,-2.0304,-2.0284,-2.0263,-2.0377,0.0,0.0,0.0,0.0,0.0,0.0,0.0,0.0,0.0,0.0,0.0,0.0,0.0,0.0,0.0,0.0,0.0,0.0,0.0,0.0,0.0,0.0,0.0,0.0,0.0,0.0,0.0,0.0,0.0,0.0,0.0,0.0,0.0,0.0,0.0,0.0,0.0,0.0,0.0,0.0,0.0,0.0,0.0,0.0,0.0,0.0,0.0,0.0,0.0,0.0,0.0,0.0,0.0,0.0,0.0,0.0,0.0,0.0,0.0,0.0,0.0,0.0,0.0,0.0,0.0,0.0,0.0,0.0,0.0,0.0,0.0,0.0,0.0,0.0,0.0,0.0,0.0,0.0,0.0,0.0,0.0,0.0,0.0,0.0,0.0,0.0,0.0,0.0,0.0,0.0,0.0,0.0,0.0,0.0,0.0,0.0,0.0,0.0,0.0,0.0,0.0,0.0,-1.8672,-1.9167,-1.9534,-1.9833,-2.001,-2.001,-2.008,-2.0098,-2.0044,-2.0158,0.0,0.0,0.0,0.0,0.0,0.0,0.0,0.0,0.0,0.0,0.0,0.0,0.0,0.0,0.0,0.0,0.0,0.0,0.0,0.0,0.0,0.0,0.0,0.0,0.0,0.0,0.0,0.0,0.0,0.0,0.0,0.0,0.0,0.0,0.0,0.0,0.0,0.0,0.0,0.0,0.0,0.0,0.0,0.0,0.0,0.0,0.0,0.0,0.0,0.0,0.0,0.0,0.0,0.0,0.0,0.0,0.0,0.0,0.0,0.0,0.0,0.0,0.0,0.0,0.0,0.0,0.0,0.0,0.0,0.0,0.0,0.0,0.0,0.0,0.0,0.0,0.0,0.0,0.0,0.0,0.0,0.0,0.0,0.0,0.0,0.0,0.0,0.0,0.0,0.0,0.0,0.0,0.0,0.0,0.0,0.0,0.0,0.0,0.0,0.0,0.0,0.0,-1.8639,-1.9111,-1.9124,-1.9176,-1.9176,-1.9176,-1.9545,-1.9699,-1.9545,-1.9963,0.0,0.0,0.0,0.0,0.0,0.0,0.0,0.0,0.0,0.0,0.0,0.0,0.0,0.0,0.0,0.0,0.0,0.0,0.0,0.0,0.0,0.0,0.0,0.0,0.0,0.0,0.0,0.0,0.0,0.0,0.0,0.0,0.0,0.0,0.0,0.0,0.0,0.0,0.0,0.0,0.0,0.0,0.0,0.0,0.0,0.0,0.0,0.0,0.0,0.0,0.0,0.0,0.0,0.0,0.0,0.0,0.0,0.0,0.0,0.0,0.0,0.0,0.0,0.0,0.0,0.0,0.0,0.0,0.0,0.0,0.0,0.0,0.0,0.0,0.0,0.0,0.0,0.0,0.0,0.0,0.0,0.0,0.0,0.0,0.0,0.0,0.0,0.0,0.0,0.0,0.0,0.0,0.0,0.0,0.0,0.0,0.0,0.0,0.0,0.0,0.0,0.0,-1.8155,-1.8695,0.0,-1.8936,-1.9101,-1.9101,-1.925,-1.9354,-1.9437,0.0,0.0,0.0,0.0,0.0,0.0,0.0,0.0,0.0,0.0,0.0,0.0,0.0,0.0,0.0,0.0,0.0,0.0,0.0,0.0,0.0,0.0,0.0,0.0,0.0,0.0,0.0,0.0,0.0,0.0,0.0,0.0,0.0,0.0,0.0,0.0,0.0,0.0,0.0,0.0,0.0,0.0,0.0,0.0,0.0,0.0,0.0,0.0,0.0,0.0,0.0,0.0,0.0,0.0,0.0,0.0,0.0,0.0,0.0,0.0,0.0,0.0,0.0,0.0,0.0,0.0,0.0,0.0,0.0,0.0,0.0,0.0,0.0,0.0,0.0,0.0,0.0,0.0,0.0,0.0,0.0,0.0,0.0,0.0,0.0,0.0,0.0,0.0,0.0,0.0,0.0,0.0,0.0,0.0,0.0,0.0,0.0,0.0,0.0,0.0,0.0,0.0,-1.7311,-1.7877,-1.827,0.0,-1.8567,-1.8721,-1.8721,-1.8836,-1.8981,-1.9144,0.0,0.0,0.0,0.0,0.0,0.0,0.0,0.0,0.0,0.0,0.0,0.0,0.0,0.0,0.0,0.0,0.0,0.0,0.0,0.0,0.0,0.0,0.0,0.0,0.0,0.0,0.0,0.0,0.0,0.0,0.0,0.0,0.0,0.0,0.0,0.0,0.0,0.0,0.0,0.0,0.0,0.0,0.0,0.0,0.0,0.0,0.0,0.0,0.0,0.0,0.0,0.0,0.0,0.0,0.0,0.0,0.0,0.0,0.0,0.0,0.0,0.0,0.0,0.0,0.0,0.0,0.0,0.0,0.0,0.0,0.0,0.0,0.0,0.0,0.0,0.0,0.0,0.0,0.0,0.0,0.0,0.0,0.0,0.0,0.0,0.0,0.0,0.0,0.0,0.0,0.0,0.0,0.0,0.0,0.0,0.0,0.0,0.0,0.0,0.0,0.0,0.0,-1.7806,-1.7879,-1.7882,-1.7882,-1.7882,-1.7882,-1.7882,-1.824,-1.8519,0.0,0.0,0.0,0.0,0.0,0.0,0.0,0.0,0.0,0.0,0.0,0.0,0.0,0.0,0.0,0.0,0.0,0.0,0.0,0.0,0.0,0.0,0.0,0.0,0.0,0.0,0.0,0.0,0.0,0.0,0.0,0.0,0.0,0.0,0.0,0.0,0.0,0.0,0.0,0.0,0.0,0.0,0.0,0.0,0.0,0.0,0.0,0.0,0.0,0.0,0.0,0.0,0.0,0.0,0.0,0.0,0.0,0.0,0.0,0.0,0.0,0.0,0.0,0.0,0.0,0.0,0.0,0.0,0.0,0.0,0.0,0.0,0.0,0.0,0.0,0.0,0.0,0.0,0.0,0.0,0.0,0.0,0.0,0.0,0.0,0.0,0.0,0.0,0.0,0.0,0.0,0.0,0.0,0.0,0.0,0.0,0.0,0.0,0.0,0.0,0.0,0.0,0.0,-1.779,-1.7879,-1.7882,-1.7882,-1.7882,-1.7882,-1.7882,-1.7989,-1.8186,-1.8424,0.0,0.0,0.0,0.0,0.0,0.0,0.0,0.0,0.0,0.0,0.0,0.0,0.0,0.0,0.0,0.0,0.0,0.0,0.0,0.0,0.0,0.0,0.0,0.0,0.0,0.0,0.0,0.0,0.0,0.0,0.0,0.0,0.0,0.0,0.0,0.0,0.0,0.0,0.0,0.0,0.0,0.0,0.0,0.0,0.0,0.0,0.0,0.0,0.0,0.0,0.0,0.0,0.0,0.0,0.0,0.0,0.0,0.0,0.0,0.0,0.0,0.0,0.0,0.0,0.0,0.0,0.0,0.0,0.0,0.0,0.0,0.0,0.0,0.0,0.0,0.0,0.0,0.0,0.0,0.0,0.0,0.0,0.0,0.0,0.0,0.0,0.0,0.0,0.0,0.0,0.0,0.0,0.0,0.0,0.0,0.0,0.0,0.0,0.0,0.0,0.0,0.0,-1.8124,-1.8032,-1.7882,-1.7882,-1.7882,-1.7882,-1.7882,-1.7882,-1.8007,-1.8298,0.0,0.0,0.0,0.0,0.0,0.0,0.0,0.0,0.0,0.0,0.0,0.0,0.0,0.0,0.0,0.0,0.0,0.0,0.0,0.0,0.0,0.0,0.0,0.0,0.0,0.0,0.0,0.0,0.0,0.0,0.0,0.0,0.0,0.0,0.0,0.0,0.0,0.0,0.0,0.0,0.0,0.0,0.0,0.0,0.0,0.0,0.0,0.0,0.0,0.0,0.0,0.0,0.0,0.0,0.0,0.0,0.0,0.0,0.0,0.0,0.0,0.0,0.0,0.0,0.0,0.0,0.0,0.0,0.0,0.0,0.0,0.0,0.0,0.0,0.0,0.0,0.0,0.0,0.0,0.0,0.0,0.0,0.0,0.0,0.0,0.0,0.0,0.0,0.0,0.0,0.0,0.0,0.0,0.0,0.0,0.0,0.0,0.0,0.0,0.0,0.0,0.0,-1.8674,-1.8254,-1.7882,-1.7882,-1.7882,-1.7882,-1.7882,-1.7882,-1.7974,-1.8179,0.0,0.0,0.0,0.0,0.0,0.0,0.0,0.0,0.0,0.0,0.0,0.0,0.0,0.0,0.0,0.0,0.0,0.0,0.0,0.0,0.0,0.0,0.0,0.0,0.0,0.0,0.0,0.0,0.0,0.0,0.0,0.0,0.0,0.0,0.0,0.0,0.0,0.0,0.0,0.0,0.0,0.0,0.0,0.0,0.0,0.0,0.0,0.0,0.0,0.0,0.0,0.0,0.0,0.0,0.0,0.0,0.0,0.0,0.0,0.0,-1.9814,0.0,0.0,0.0,0.0,0.0,0.0,0.0,0.0,0.0,0.0,0.0,0.0,0.0,0.0,0.0,0.0,0.0,0.0,0.0,0.0,0.0,0.0,0.0,0.0,0.0,0.0,0.0,0.0,0.0,0.0,0.0,0.0,0.0,0.0,0.0,0.0,0.0,0.0,0.0,0.0,0.0,-1.8731,-1.8254,-1.7882,-1.7882,-1.7882,-1.7882,-1.7882,-1.7882,-1.7949,-1.8019,0.0,0.0,0.0,0.0,0.0,0.0,0.0,0.0,0.0,0.0,0.0,0.0,0.0,0.0,0.0,0.0,0.0,0.0,0.0,0.0,0.0,0.0,0.0,0.0,0.0,0.0,0.0,0.0,0.0,0.0,0.0,0.0,0.0,0.0,0.0,0.0,0.0,0.0,0.0,0.0,0.0,0.0,0.0,0.0,0.0,0.0,0.0,0.0,0.0,0.0,0.0,0.0,0.0,0.0,0.0,0.0,0.0,0.0,0.0,0.0,0.0,-2.0707,0.0,0.0,0.0,0.0,0.0,0.0,0.0,0.0,0.0,0.0,0.0,0.0,0.0,0.0,0.0,0.0,0.0,0.0,0.0,0.0,0.0,0.0,0.0,0.0,0.0,0.0,0.0,0.0,0.0,0.0,0.0,0.0,0.0,0.0,0.0,0.0,0.0,0.0,0.0,0.0,-1.8792,-1.8371,-1.8024,-1.8024,-1.7977,-1.7882,-1.7882,-1.7882,-1.7905,-1.7941,-1.8072,0.0,0.0,0.0,0.0,0.0,0.0,0.0,0.0,0.0,0.0,0.0,0.0,0.0,0.0,0.0,0.0,0.0,0.0,0.0,0.0,0.0,0.0,0.0,0.0,0.0,0.0,0.0,0.0,0.0,0.0,0.0,0.0,0.0,0.0,0.0,0.0,0.0,0.0,0.0,0.0,0.0,0.0,0.0,0.0,0.0,0.0,0.0,0.0,0.0,0.0,0.0,0.0,0.0,-2.4125,-2.4331,-2.4296,-2.4267,-2.414,-2.3852,-2.2621,-2.1592,-2.0859,0.0,0.0,0.0,0.0,0.0,0.0,0.0,0.0,0.0,0.0,0.0,0.0,0.0,0.0,0.0,0.0,0.0,0.0,0.0,0.0,0.0,0.0,0.0,0.0,0.0,-1.8498,-1.9001,0.0,0.0,0.0,0.0,0.0,0.0,0.0,0.0,0.0,0.0,0.0,0.0,-1.8841,-1.8468,-1.8231,-1.8231,-1.8142,-1.8058,-1.7963,-1.8045,-1.7991,-1.7896,-1.7951,-1.7978,0.0,0.0,0.0,0.0,0.0,0.0,0.0,0.0,0.0,0.0,0.0,0.0,0.0,0.0,0.0,0.0,0.0,0.0,0.0,0.0,0.0,0.0,0.0,0.0,0.0,0.0,0.0,0.0,0.0,0.0,0.0,0.0,-1.7885,-1.7625,0.0,0.0,0.0,0.0,0.0,0.0,0.0,0.0,0.0,0.0,0.0,0.0,0.0,0.0,-2.3683,-2.4149,-2.4368,-2.452,-2.4939,-2.5144,-2.5156,-2.5102,-2.4885,-2.437,-2.422,0.0,-2.296,-2.2836,0.0,0.0,0.0,0.0,0.0,0.0,0.0,0.0,0.0,0.0,0.0,0.0,0.0,0.0,0.0,0.0,0.0,0.0,0.0,0.0,0.0,0.0,-2.0108,-2.0096,-2.027,-2.0327,0.0,-1.8951,-1.7848,-1.7587,0.0,0.0,0.0,0.0,0.0,0.0,0.0,0.0,-1.8935,-1.8584,-1.8367,-1.8367,-1.8669,-1.8671,-1.8196,-1.8486,-1.848,-1.7909,-1.7907,-1.7915,-1.7906,-1.7987,0.0,0.0,0.0,0.0,0.0,0.0,0.0,0.0,0.0,0.0,0.0,0.0,0.0,0.0,0.0,0.0,0.0,0.0,0.0,0.0,0.0,0.0,0.0,0.0,0.0,0.0,0.0,0.0,0.0,-1.8286,-1.8665,-1.9247,-1.961,-2.0012,0.0,0.0,0.0,0.0,0.0,0.0,0.0,0.0,0.0,-2.4557,-2.4684,-2.4696,-2.462,-2.5154,-2.5408,-2.542,-2.5997,-2.6226,-2.6226,-2.6226,-2.6093,-2.5877,-2.5877,-2.5503,-2.4832,-2.3762,-2.3056,-2.2653,0.0,0.0,0.0,0.0,0.0,-2.0771,-2.1351,-2.1478,0.0,0.0,0.0,0.0,0.0,0.0,0.0,0.0,0.0,0.0,0.0,0.0,0.0,-2.1308,-2.15,-2.15,-2.15,-2.095,-2.0204,0.0,-1.9083,-1.9064,-1.9432,0.0,0.0,0.0,0.0,0.0,-1.8933,-1.8715,-1.857,-1.857,-1.8627,-1.8564,-1.8332,-1.8666,-1.8648,-1.8089,-1.8301,-1.8248,-1.7901,-1.804,-1.8158,0.0,0.0,0.0,0.0,0.0,0.0,0.0,0.0,0.0,0.0,0.0,0.0,0.0,0.0,0.0,0.0,0.0,0.0,0.0,0.0,0.0,0.0,0.0,0.0,0.0,0.0,0.0,0.0,-1.8896,-1.9531,-2.0712,-2.1073,-2.1348,0.0,0.0,0.0,0.0,0.0,0.0,-2.4429,-2.4638,-2.4975,-2.562,-2.5644,-2.5688,-2.5721,-2.625,-2.6514,-2.6526,-2.7067,-2.7332,-2.7332,-2.7332,-2.726,-2.714,-2.714,-2.6827,-2.6178,-2.473,-2.3855,-2.3511,-2.3313,-2.3018,-2.2783,-2.2802,-2.2647,-2.2515,-2.3114,-2.3292,-2.3124,-2.2796,0.0,-2.2015,-2.0637,0.0,0.0,0.0,0.0,-1.9829,-2.0887,-2.1121,-2.1245,-2.2169,-2.2294,-2.2197,-2.2197,-2.2089,-2.1692,0.0,-2.0306,-2.0165,-2.0508,0.0,0.0,0.0,0.0,-1.977,-1.9205,-1.8943,-1.8767,-1.8767,-1.8721,-1.8649,-1.8475,-1.8827,-1.8826,-1.8291,-1.8548,-1.8478,-1.8038,-1.8276,-1.8368,-1.8347,0.0,0.0,0.0,0.0,0.0,0.0,0.0,0.0,0.0,0.0,0.0,0.0,0.0,0.0,0.0,0.0,0.0,0.0,0.0,0.0,0.0,0.0,0.0,0.0,0.0,0.0,0.0,0.0,0.0,-2.0841,-2.1316,0.0,0.0,0.0,0.0,-2.287,-2.4719,-2.5625,-2.5087,-2.5787,-2.6356,-2.6803,-2.6815,-2.6827,-2.6851,-2.738,-2.7633,-2.7645,-2.8174,-2.8426,-2.8426,-2.8426,-2.8162,-2.7681,-2.7681,-2.738,-2.6839,-2.6202,-2.5348,-2.4434,-2.441,-2.4109,-2.3749,-2.423,-2.4398,-2.4414,-2.5011,-2.5192,-2.5107,-2.4534,-2.3439,-2.2215,-2.1579,-2.1066,0.0,0.0,-2.1731,-2.232,-2.3377,-2.328,-2.2907,-2.2931,-2.2558,-2.2197,-2.2197,-2.1728,-2.1284,0.0,-2.1344,-2.121,-2.1023,0.0,-2.1126,-2.0976,-2.0588,-2.0212,-1.9806,-1.9317,-1.9004,-1.9004,-1.9334,-1.9318,-1.8759,-1.903,-1.9019,-1.8423,-1.8431,-1.8418,-1.8392,-1.8748,-1.8791,-1.8493,-1.8919,0.0,0.0,0.0,0.0,0.0,0.0,0.0,0.0,0.0,0.0,0.0,0.0,0.0,0.0,0.0,0.0,0.0,0.0,0.0,0.0,0.0,0.0,0.0,0.0,0.0,0.0,0.0,0.0,-2.179,-2.1946,0.0,0.0,-2.3216,-2.3412,-2.3296,-2.4238,-2.5036,-2.569,-2.6242,-2.6712,-2.7056,-2.7382,-2.7393,-2.7135,-2.731,-2.7495,-2.785,-2.8039,-2.8122,-2.8122,-2.8351,-2.8255,-2.7838,-2.8076,-2.7933,-2.7404,-2.6863,-2.6202,-2.5504,-2.5155,-2.4915,-2.4783,-2.4963,-2.5023,-2.5059,-2.524,-2.5312,-2.5276,-2.5083,-2.4405,-2.3661,-2.3459,-2.3107,-2.2793,-2.2924,-2.3132,-2.3335,-2.3725,-2.3628,-2.3484,-2.3484,-2.3087,-2.2702,-2.2702,-2.2282,-2.1848,-2.1909,-2.1572,-2.132,-2.1467,-2.1384,-2.1275,-2.1023,-2.0714,-2.0479,-2.0342,-1.9829,-1.9492,-1.9492,-1.9049,-1.8748,-1.8906,-1.8945,-1.8845,-1.8609,-1.8826,-1.8805,-1.8435,-1.8637,-1.8773,-1.8614,-1.874,-1.8937,0.0,0.0,0.0,0.0,0.0,0.0,0.0,0.0,0.0,0.0,0.0,0.0,0.0,0.0,0.0,0.0,0.0,0.0,0.0,0.0,0.0,0.0,0.0,0.0,0.0,0.0,-2.148,-2.2843,-2.2897,-2.2961,-2.3343,-2.3608,-2.3748,-2.367,-2.4283,-2.5105,-2.6214,-2.6594,-2.6982,-2.763,-2.7862,-2.7782,-2.7449,-2.7265,-2.736,-2.7708,-2.78,-2.7893,-2.7893,-2.8351,-2.8351,-2.8122,-2.8283,-2.816,-2.7945,-2.7251,-2.6637,-2.6077,-2.5517,-2.5312,-2.5312,-2.5312,-2.5312,-2.5312,-2.5312,-2.5312,-2.5312,-2.5312,-2.5071,-2.4759,-2.4578,-2.441,-2.4254,-2.4073,-2.4157,-2.429,-2.429,-2.4157,-2.4025,-2.4025,-2.3628,-2.3244,-2.3244,-2.2967,-2.2678,-2.2498,-2.1968,-2.1644,-2.1885,-2.1777,-2.1656,-2.1633,-2.1217,-2.0921,-2.1058,-2.0495,-2.0057,-2.0057,-1.9263,-1.8806,-1.8975,-1.9166,-1.9083,-1.8559,-1.9195,-1.9317,-1.8621,-1.8931,-1.9068,-1.897,-1.879,-1.8854,-1.9058,0.0,0.0,0.0,0.0,0.0,0.0,0.0,0.0,0.0,0.0,0.0,0.0,0.0,0.0,0.0,0.0,0.0,0.0,0.0,0.0,0.0,0.0,0.0,-2.1248,-2.1639,-2.2393,-2.3846,-2.4145,-2.4068,-2.365,-2.4728,-2.4985,-2.3799,-2.4887,-2.5934,-2.6651,-2.6751,-2.7293,-2.8453,-2.8156,-2.7905,-2.7882,-2.7389,-2.7219,-2.7208,-2.765,-2.7904,-2.7893,-2.8271,-2.8431,-2.8431,-2.8042,-2.8122,-2.8395,-2.7439,-2.6764,-2.62,-2.5601,-2.5324,-2.5312,-2.5312,-2.5312,-2.5312,-2.5312,-2.5312,-2.5312,-2.5312,-2.5312,-2.5216,-2.4699,-2.4903,-2.5204,-2.4687,-2.4915,-2.5312,-2.5312,-2.4927,-2.4542,-2.4542,-2.4157,-2.3797,-2.3797,-2.3773,-2.3616,-2.3087,-2.257,-2.2209,-2.2173,-2.2185,-2.2371,-2.2763,-2.2043,0.0,-2.2018,-2.1226,-2.0634,-2.0634,-2.0161,-1.9607,-1.9136,-1.9759,-1.9611,-1.8328,-1.9471,-1.985,-1.904,-1.9544,-1.9721,-1.9455,-1.9162,-1.8783,-1.8395,0.0,0.0,0.0,0.0,0.0,0.0,0.0,0.0,0.0,0.0,0.0,0.0,0.0,0.0,0.0,0.0,0.0,0.0,0.0,0.0,0.0,0.0,-2.1883,-2.2181,-2.2746,-2.3645,-2.4946,-2.4718,-2.4345,-2.424,-2.4136,-2.3937,-2.3578,-2.3861,-2.4392,-2.5154,-2.6091,-2.663,-2.6872,-2.7601,-2.7822,-2.7468,-2.7325,-2.7253,-2.7257,-2.7436,-2.7243,-2.6869,-2.736,-2.7348,-2.7021,-2.7278,-2.7441,-2.7476,-2.6885,-2.6453,-2.6235,-2.5651,-2.524,-2.4921,-2.4921,-2.5123,-2.5312,-2.5312,-2.5312,-2.5312,-2.5312,-2.5312,-2.5288,-2.5131,-2.5192,-2.5276,-2.5131,-2.5204,-2.5312,-2.5312,-2.5204,-2.5095,-2.5095,-2.4687,-2.4314,-2.4314,-2.4025,-2.3616,-2.3087,-2.2859,-2.2522,-2.1753,-2.1945,-2.2127,-2.1849,-2.1886,0.0,-2.214,-2.156,-2.1352,-2.177,-2.0623,-2.0076,-2.0777,-2.0263,-1.9743,-1.9377,-1.9685,-1.9653,-1.9011,-1.8976,-1.8787,-1.8472,-1.8871,-1.8938,0.0,0.0,0.0,0.0,0.0,0.0,0.0,0.0,0.0,0.0,0.0,0.0,0.0,0.0,0.0,0.0,0.0,0.0,0.0,0.0,0.0,0.0,-2.2653,-2.3047,-2.3654,-2.4,-2.4426,-2.5302,-2.5099,-2.4858,-2.4858,-2.4546,-2.4308,-2.4308,-2.4308,-2.4607,-2.5388,-2.6477,-2.7074,-2.7034,-2.792,-2.8112,-2.7621,-2.7413,-2.7261,-2.7334,-2.7316,-2.7144,-2.6842,-2.7113,-2.7021,0.0,-2.6846,-2.7021,-2.7162,-2.6621,-2.628,0.0,0.0,0.0,0.0,0.0,-2.4838,-2.5312,-2.5111,-2.5182,-2.5312,-2.5312,-2.5312,-2.5312,-2.5312,-2.5312,-2.5312,-2.5312,-2.5312,-2.5312,-2.5312,-2.5312,-2.5312,-2.5312,-2.5071,-2.4855,-2.4855,-2.4614,-2.4254,-2.3725,0.0,0.0,-2.2246,-2.2137,-2.2066,-2.175,-2.1958,-2.2163,-2.2165,-2.1898,-2.1838,-2.2221,-2.1186,-2.0643,-2.1107,-2.0799,0.0,0.0,0.0,-2.0378,-1.9834,-1.9519,0.0,0.0,0.0,-1.9062,-1.8565,0.0,0.0,0.0,-1.804,-1.8157,0.0,0.0,0.0,0.0,0.0,0.0,0.0,0.0,0.0,0.0,0.0,0.0,0.0,0.0,0.0,0.0,-2.3222,-2.4225,-2.5408,-2.5307,-2.5216,-2.5472,-2.5509,-2.5491,-2.5436,-2.5436,-2.5417,-2.5372,-2.5372,-2.5674,-2.6368,0.0,0.0,0.0,0.0,-2.8637,-2.82,-2.7719,-2.7446,-2.7392,-2.7411,-2.7327,-2.7205,-2.7152,-2.7079,-2.7021,-2.661,-2.6693,-2.7021,-2.661,-2.6188,-2.5811,-2.5587,-2.5217,-2.4809,-2.4434,-2.4786,-2.535,-2.4956,0.0,0.0,-2.5265,-2.5241,-2.5312,-2.5312,-2.5312,-2.5312,-2.5312,-2.5312,-2.5312,-2.5312,-2.5312,-2.5312,-2.5312,-2.5312,-2.5312,-2.5312,-2.5312,-2.5155,-2.4626,-2.4518,-2.4218,-2.3232,-2.263,-2.225,-2.2033,-2.2128,-2.2177,-2.2009,-2.214,-2.2247,-2.2309,0.0,0.0,-2.0931,-2.1444,-2.1237,-2.0041,-2.0958,-2.1331,-2.0772,-2.0614,-2.0453,-2.0261,-1.9842,-1.9256,-1.8496,-1.8181,-1.7857,-1.7511,-1.8796,-1.8982,0.0,0.0,0.0,0.0,0.0,0.0,0.0,0.0,0.0,0.0,0.0,0.0,0.0,0.0,0.0,-2.4183,-2.5006,-2.5803,-2.6701,-2.7031,-2.6985,-2.6417,-2.6353,-2.6215,-2.5876,-2.5848,-2.5711,-2.539,-2.5372,-2.5476,-2.557,-2.6973,0.0,-2.7854,-2.8796,-2.9292,-2.9205,-2.8713,-2.8276,-2.7894,0.0,0.0,-2.6713,-2.67,-2.6521,-2.6146,-2.6063,-2.6063,-2.6135,-2.6063,-2.5924,-2.5832,-2.5328,-2.5081,-2.5,-2.523,-2.5698,-2.6016,-2.5147,-2.5366,-2.5805,-2.5123,-2.5052,-2.5312,-2.5312,-2.5312,0.0,-2.5312,-2.5312,-2.5312,-2.5312,-2.5312,-2.5312,-2.5312,-2.5312,-2.5312,-2.5312,-2.5312,-2.5155,-2.4626,-2.4518,-2.4326,-2.3713,-2.3183,-2.2561,-2.1656,-2.191,-2.2066,-2.1572,-2.1922,-2.242,-2.2859,-2.2374,-2.2188,-2.2571,-2.2301,-2.1782,-2.115,-2.094,-2.0514,-1.9854,-2.0337,-2.0177,-1.9342,-1.9506,-1.9389,-1.8952,-1.8725,-1.8512,-1.8392,-1.7967,-1.7656,0.0,0.0,0.0,0.0,0.0,0.0,0.0,0.0,0.0,0.0,0.0,-2.3095,0.0,0.0,-2.5026,-2.5657,-2.6264,-2.6784,-2.7389,-2.7646,-2.7618,-2.7224,-2.7004,-2.6802,-2.6591,-2.6389,-2.6197,-2.5995,-2.5977,-2.618,-2.6586,-2.7816,-2.8532,-2.8726,-2.9706,-3.0078,-2.9849,-2.9358,-2.9117,-2.9117,-2.8386,-2.7916,-2.7676,-2.6955,-2.6496,-2.6256,-2.6005,-2.5895,-2.5895,-2.5895,-2.5895,-2.5852,-2.5595,-2.5414,-2.5408,-2.5172,-2.5301,-2.5483,-2.4865,-2.4837,-2.5095,-2.4872,-2.4921,-2.5052,-2.5241,-2.5312,-2.5312,-2.5312,-2.5312,-2.5312,-2.5312,-2.5312,-2.5312,-2.5312,-2.5312,-2.5312,-2.5312,-2.5312,-2.5228,-2.4963,-2.4915,-2.4831,-2.4578,-2.4097,-2.34,-2.2354,-2.2426,-2.2402,-2.1873,-2.1801,-2.2007,-2.2616,-2.2161,-2.2063,-2.2592,-2.2395,-2.2007,-2.1594,-2.1295,-2.0959,-2.045,-2.0523,-2.0339,-1.9834,-1.9834,-1.966,-1.9232,-1.9109,-1.8927,-1.8676,-1.8206,-1.7988,0.0,0.0,0.0,0.0,0.0,0.0,0.0,0.0,-2.3007,-2.3348,-2.4258,-2.4994,-2.5036,-2.5994,-2.6644,-2.6746,-2.7105,-2.7526,-2.7838,-2.7957,-2.7967,-2.7893,-2.7536,-2.726,-2.7187,-2.6885,-2.6664,-2.6591,-2.6591,-2.6899,-2.752,-2.8562,-2.9245,-2.9517,-3.0439,-3.0723,-3.0351,-2.9871,-2.9773,-3.0057,-2.8877,-2.8429,-2.8571,-2.7424,-2.6856,-2.6736,-2.6256,-2.5983,-2.5895,-2.5895,-2.5895,-2.5895,-2.5895,-2.5903,-2.5761,-2.5062,-2.496,-2.5119,-2.4657,-2.4593,-2.4749,-2.4711,-2.4798,-2.4991,-2.5147,-2.5182,-2.5241,-2.5312,-2.5312,-2.5312,-2.5312,-2.5312,-2.5312,-2.5312,-2.5312,-2.5312,-2.5312,-2.5312,-2.5312,-2.5312,-2.5312,-2.5312,-2.5312,-2.4951,-2.4326,-2.3292,-2.3135,-2.2907,-2.227,-2.1909,-2.1801,-2.2017,-2.1656,-2.1572,-2.2005,-2.2137,-2.2061,-2.1788,-2.1726,-2.1526,-2.1221,-2.0903,-2.0635,-2.0518,-2.0335,-1.9954,-1.9561,-1.9561,-1.9353,-1.8971,-1.8873,-1.8785,-2.2241,-2.2318,0.0,-2.2457,-2.2698,-2.3053,0.0,0.0,-2.4632,-2.5006,-2.5274,-2.5496,-2.5789,-2.6277,-2.6755,-2.705,-2.7756,-2.8269,-2.8315,-2.8627,-2.8718,-2.837,-2.7957,-2.7563,-2.7205,-2.7141,-2.6967,-2.6619,-2.6591,-2.6691,-2.6691,-2.8252,-2.9167,-2.9126,-3.0285,-3.0865,-3.0821,-3.0362,-2.9936,-2.9565,-2.9401,-2.8899,-2.8112,-2.796,-2.7654,-2.7206,-2.6747,-2.631,-2.5895,-2.5895,-2.5895,-2.5895,-2.5895,-2.5874,-2.5902,-2.5764,-2.6019,-2.6214,-2.5396,-2.5848,-2.6504,-2.485,-2.4855,-2.5366,-2.4991,-2.4861,-2.4921,-2.5241,-2.5312,-2.5312,-2.5312,-2.5312,-2.5312,-2.5312,-2.5312,-2.5312,-2.5312,-2.5312,-2.5312,-2.5312,-2.5312,-2.5312,-2.5312,-2.5264,-2.4867,-2.3833,-2.3676,-2.3316,-2.2318,-2.2546,-2.2474,-2.1584,-2.144,-2.1428,-2.1488,-2.1921,-2.2185,-2.2123,-2.1851,-2.1526,-2.1221,-2.1158,-2.0839,-2.0151,-2.0388,-2.0366,-1.9998,-1.9998,-1.9966,-1.9911,-1.9539,-1.9102,-2.2399,0.0,0.0,0.0,-2.3617,-2.4234,-2.4757,-2.5247,-2.558,-2.6065,-2.6444,-2.6894,-2.7297,-2.771,-2.804,0.0,-2.8517,-2.8737,-2.8737,-2.8682,-2.8489,-2.8077,-2.7866,-2.7609,-2.7215,-2.6967,-2.6765,-2.66,-2.6591,-2.7008,-2.8048,-2.8668,-2.9513,-3.0567,-3.1003,-3.1323,-3.1323,-3.0843,-3.0646,-3.0723,-2.9882,-2.9423,-2.927,-2.8429,-2.7621,-2.6889,-2.6409,-2.6092,-2.5895,-2.5895,-2.5895,-2.5895,-2.5895,-2.5895,-2.5895,-2.5895,-2.5793,-2.5683,-2.5322,-2.5392,-2.5487,-2.4892,-2.5142,-2.5576,-2.5356,-2.5597,-2.5908,-2.5514,-2.5552,-2.5769,-2.5769,-2.554,-2.5384,-2.5697,-2.5528,-2.5396,-2.5709,-2.5528,-2.5396,-2.5709,-2.5516,-2.5312,-2.5312,-2.5312,-2.5168,-2.4735,-2.4398,-2.4049,-2.3604,-2.2943,-2.2051,-2.0819,-2.0974,-2.089,-2.0476,-2.085,-2.1143,-2.1143,-2.13,-2.1221,-2.0903,-2.0828,-2.0582,-2.0074,-2.027,-2.027,-2.0085,-2.0085,-2.0085,-2.0074,-1.9868,-1.9725,-2.2735,0.0,0.0,-2.4147,-2.4831,-2.5573,-2.6087,-2.6509,-2.6885,-2.7187,-2.7618,-2.8031,-2.8342,-2.8627,0.0,-2.8819,-2.8911,-2.8948,-2.8838,-2.848,-2.8022,-2.7499,-2.7343,-2.715,-2.6866,-2.6793,-2.671,-2.66,-2.6902,-2.7701,-2.8856,-2.9379,-3.0223,-3.1391,-3.1581,-3.1618,-3.1618,-3.1269,-3.1203,-3.1411,-3.0242,-2.9794,-2.9969,-2.8648,-2.7588,-2.6791,-2.631,-2.6026,-2.5895,-2.5895,-2.5895,-2.5895,-2.5895,-2.5895,-2.5895,-2.5895,-2.5677,-2.5371,-2.5371,-2.5234,-2.5076,-2.507,-2.5341,-2.5721,-2.5661,-2.6077,-2.6474,-2.6009,-2.6113,-2.6322,-2.6322,-2.6045,-2.5853,-2.6238,-2.6033,-2.5865,-2.625,-2.5901,-2.5636,-2.6021,-2.5673,-2.5312,-2.5312,-2.5312,-2.5312,-2.5312,-2.4987,-2.4687,-2.4542,-2.3292,-2.2051,-2.1104,-2.1172,-2.1096,-2.0479,-2.0772,-2.0997,-2.0997,-2.1365,-2.1384,-2.0859,-2.0848,-2.0586,-2.0085,-2.0085,-2.0085,-2.0085,-2.0085,-2.0085,-2.0085,-2.0085,-2.0085,0.0,0.0,-2.4463,-2.589,-2.6707,-2.7315,-2.8122,-2.8608,-2.8893,-2.8911,-2.8627,-2.8379,-2.8397,-2.8407,-2.8416,-2.8416,-2.8737,-2.8847,-2.8462,-2.8049,-2.7499,-2.6719,-2.6261,-2.6004,0.0,-2.6701,-2.7004,-2.6619,-2.781,-2.8588,-2.8578,-3.0176,-3.1031,-3.1137,-3.1445,-3.1618,-3.1618,-3.1607,-3.1367,-3.0908,-3.0428,-2.9947,-2.9467,-2.8484,-2.7774,-2.7261,-2.6802,-2.6343,-2.5895,-2.5895,-2.5895,-2.5895,-2.5895,-2.5895,-2.5895,-2.5895,-2.5895,-2.5884,-2.5884,-2.6102,-2.6322,-2.5458,-2.5455,-2.5756,-2.5698,-2.5716,-2.5858,-2.6685,-2.6836,-2.6911,-2.6911,-2.6899,-2.6887,-2.6899,-2.6899,-2.6887,-2.6899,-2.6466,-2.6081,-2.6093,-2.5673,-2.5312,-2.5312,-2.5312,-2.5312,-2.5312,-2.53,-2.5095,-2.459,-2.3604,-2.2943,-2.2907,-2.2586,-2.2315,-2.2303,-2.2428,-2.2502,-2.2502,-2.2604,-2.2286,-2.1408,-2.1363,-2.0996,-2.0096,-2.0085,-2.0085,-2.0085,-2.0085,-2.0085,-2.0085,-2.0085,-2.0085,-2.3841,0.0,-2.6234,-2.7105,-2.8081,-2.8838,-2.9113,-2.9278,-2.9223,-2.87,-2.8385,-2.8245,-2.7863,-2.7698,-2.7688,-2.8236,-2.8201,-2.8223,-2.837,-2.8269,-2.7682,-2.6334,-2.6298,0.0,0.0,0.0,0.0,-2.6582,-2.7829,-2.8807,-2.9342,-3.0508,-3.1381,-3.1941,-3.1777,-3.1618,-3.1618,-3.1618,-3.1542,-3.1367,-3.0581,-2.9784,-2.8964,-2.7992,-2.7468,-2.7272,-2.6485,-2.6059,-2.5895,-2.5895,-2.5895,-2.5895,-2.5895,-2.5895,-2.5895,-2.5895,-2.5895,-2.5895,-2.5895,-2.5979,-2.603,-2.5782,-2.5964,-2.6248,-2.595,-2.6219,-2.6702,-2.6593,-2.6811,-2.7055,-2.7375,-2.72,-2.7019,-2.738,-2.7188,-2.7031,-2.738,-2.7031,-2.6755,-2.7103,-2.6743,-2.6274,-2.5901,-2.5829,-2.5709,-2.536,-2.5312,-2.5119,-2.459,-2.4218,-2.3525,-2.2367,-2.2155,-2.1755,-2.0927,-2.1208,-2.1565,-2.1778,-2.2151,-2.2184,-2.189,-2.1576,-2.1197,-2.062,-2.0314,-2.0085,-2.0085,-2.0085,-2.0085,-2.0085,-2.0085,-2.0085,-2.4861,-2.6222,-2.7678,-2.8397,-2.9324,-2.9965,-2.9828,-2.9571,-2.9094,-2.815,-2.7854,-2.7614,-2.7073,-2.6747,-2.6784,-2.7455,-2.7345,-2.7315,-2.7884,-2.771,-2.7187,-2.6289,-2.6169,0.0,0.0,0.0,0.0,-2.6554,-2.7962,-2.9141,-2.9997,-3.0864,-3.1742,-3.2623,-3.1979,-3.1618,-3.1618,-3.1618,-3.1455,-3.1116,-3.0504,-2.9707,-2.8817,-2.7752,-2.7315,-2.7261,-2.631,-2.5895,-2.5895,-2.5895,-2.5895,-2.5895,-2.5895,-2.5895,-2.5895,-2.5895,-2.5895,-2.5895,-2.5895,-2.5895,-2.5895,-2.5895,-2.6052,-2.629,-2.6135,-2.6539,-2.6953,-2.6714,-2.7023,-2.7443,-2.7691,-2.7598,-2.7584,-2.7921,-2.7741,-2.7584,-2.7933,-2.7584,-2.732,-2.7657,-2.7296,-2.6815,-2.6454,-2.6226,-2.5913,-2.5384,-2.5312,-2.518,-2.4843,-2.4668,-2.421,-2.3061,-2.2708,-2.2173,-2.1404,-2.152,-2.1765,-2.1985,-2.2414,-2.2503,-2.2184,-2.2023,-2.1709,-2.1191,-2.0653,-2.0402,-2.0402,-2.0162,-2.0085,-2.0085,-2.0085,-2.0085,-2.6435,-2.7685,-2.8792,-2.9947,-3.0525,-3.0699,-3.0241,-2.9507,-2.8581,-2.7361,-2.6966,-2.6626,0.0,0.0,-2.5843,-2.629,-2.618,-2.6279,-2.7095,-2.6573,-2.6243,0.0,0.0,0.0,0.0,0.0,0.0,-2.6619,0.0,-2.9672,-3.046,-3.135,-3.2221,-3.3071,-3.2154,-3.1651,-3.1618,-3.1618,-3.1149,-3.0209,-3.0209,-2.9707,-2.8817,-2.7774,-2.7337,-2.7261,-2.6332,-2.5917,-2.5895,-2.5895,-2.5895,-2.5895,-2.5895,-2.5895,-2.5895,-2.5895,-2.5895,-2.5895,-2.5895,-2.5895,-2.5895,-2.5895,-2.5895,-2.5979,-2.6362,-2.6445,-2.6528,-2.7021,-2.7452,-2.78,-2.7881,-2.8203,-2.8431,-2.8431,-2.851,-2.851,-2.851,-2.8114,-2.7765,-2.7765,-2.7332,-2.6959,-2.686,-2.6466,-2.5913,-2.5384,-2.5312,-2.5312,-2.5312,-2.4981,-2.4801,-2.479,-2.4043,-2.3604,-2.3593,-2.3224,-2.3001,-2.3001,-2.3372,-2.3172,-2.2368,-2.2661,-2.2499,-2.1636,-2.1144,-2.095,-2.0928,-2.0402,-2.0107,-2.0085,-2.0085,-2.0085,-2.7575,-2.903,-3.025,-3.0561,-3.0937,-3.0892,-2.9589,-2.8663,-2.7728,-2.6518,-2.588,-2.5214,0.0,0.0,0.0,-2.5778,-2.6245,0.0,-2.7499,-2.7957,0.0,0.0,0.0,-2.7077,-2.6885,-2.6866,0.0,0.0,-2.9201,-3.0348,-3.0892,-3.238,-3.3226,-3.3071,-3.2492,-3.2012,-3.1629,-3.1618,-3.1149,-3.0209,-3.0209,-2.9707,-2.8735,-2.8134,-2.7654,-2.7282,-2.6693,-2.6234,-2.5895,-2.5895,-2.5895,-2.5895,-2.5895,-2.5895,-2.5895,-2.5895,-2.5895,-2.5895,-2.5895,-2.5895,-2.5895,-2.5895,-2.5895,-2.5895,-2.6063,-2.6052,-2.6135,-2.6528,-2.6775,-2.6951,-2.7278,-2.7696,-2.8042,-2.8042,-2.8271,-2.851,-2.851,-2.8402,-2.8318,-2.8318,-2.7885,-2.7239,-2.6605,-2.6232,-2.5853,-2.5075,-2.5111,-2.5312,-2.5312,-2.4981,-2.4718,-2.4345,-2.3897,-2.3446,-2.315,-2.3075,-2.3001,-2.3001,-2.3075,-2.3021,-2.2826,-2.256,-2.2319,-2.2138,-2.1658,-2.1221,-2.0928,-2.074,-2.05,-2.0085,-2.0085,-2.0085,-2.8737,-3.0231,-3.124,-3.0882,-3.0956,-3.0699,-2.9214,-2.8039,-2.6837,-2.572,-2.5083,0.0,0.0,0.0,0.0,0.0,0.0,0.0,-2.7315,-2.7902,-2.8067,0.0,-2.7737,0.0,-2.7453,-2.7435,-2.76,0.0,-2.9382,-3.0485,-3.1063,-3.2437,-3.3116,-3.3082,-3.2623,-3.2143,-3.1629,-3.1618,-3.1149,-3.0209,-3.0209,-2.9707,-2.8735,-2.8254,-2.7894,-2.7599,0.0,-2.6474,-2.6223,-2.6223,-2.6223,-2.6245,-2.6441,-2.6518,-2.6518,-2.6518,-2.6518,-2.6485,-2.6289,-2.6223,-2.6179,-2.5972,-2.5895,-2.5895,-2.5895,-2.5895,-2.5979,-2.6135,-2.6362,-2.6528,-2.6857,-2.7278,-2.7615,-2.7615,-2.795,-2.8283,-2.8283,-2.8351,-2.851,-2.851,-2.8112,-2.7584,-2.6806,-2.6388,-2.6024,-2.5233,-2.5163,-2.5144,-2.5144,-2.4763,-2.4418,-2.4189,-2.3677,-2.3224,-2.3001,-2.3001,-2.3001,-2.3001,-2.3001,-2.3001,-2.3001,-2.2761,-2.2619,-2.2619,-2.2149,-2.1669,-2.1177,-2.1037,-2.062,-2.0085,-2.0085,-2.0085,-2.9855,-3.1121,-3.1799,-3.0928,-3.0626,-3.0236,-2.8802,-2.7131,-2.5731,-2.4909,0.0,-2.403,-2.3123,0.0,-2.3381,-2.4333,0.0,-2.5005,-2.6976,-2.7306,-2.7618,-2.8388,-2.815,-2.793,-2.793,-2.793,-2.8192,-2.8676,-2.9479,-3.0378,-3.1164,-3.2176,-3.2841,-3.3082,-3.2558,-3.2077,-3.1629,-3.1618,-3.1181,-3.0297,-3.0242,-2.974,-2.8833,-2.8353,-2.8102,-2.7992,0.0,0.0,-2.6715,-2.6715,-2.6715,-2.6758,-2.7151,-2.7315,-2.7315,-2.7315,-2.7315,-2.7239,-2.6791,-2.6627,-2.6551,-2.6059,-2.5895,-2.5895,-2.5895,-2.5895,-2.5895,-2.5895,-2.6135,-2.6445,-2.6445,-2.6775,-2.7103,-2.7103,-2.7452,-2.78,-2.78,-2.8122,-2.8431,-2.851,-2.8203,-2.7716,-2.7085,-2.6676,-2.6176,-2.5595,-2.5169,-2.4912,-2.4912,-2.4414,-2.4116,-2.4116,-2.3446,-2.3001,-2.3001,-2.3001,-2.3001,-2.3001,-2.3001,-2.3001,-2.3001,-2.3001,-2.3001,-2.3001,-2.2608,-2.2138,-2.1592,-2.1166,-2.0675,-2.0085,-2.014,-2.014,-3.0341,-3.1332,-3.1735,-3.0589,-2.9791,-2.8901,-2.715,-2.5535,0.0,0.0,0.0,-2.2904,-2.2405,-2.265,0.0,-2.4147,0.0,0.0,0.0,0.0,-2.8361,0.0,0.0,0.0,0.0,0.0,0.0,0.0,0.0,0.0,-3.1626,-3.324,-3.3867,-3.3093,-3.2208,-3.1717,-3.1618,-3.1618,-3.1334,-3.0766,-3.0395,-2.9915,-2.9336,-2.8855,-2.8418,-2.8036,0.0,0.0,-2.7195,-2.7195,-2.7195,-2.7206,-2.7282,-2.7315,-2.7315,-2.7315,-2.7315,-2.7239,-2.6791,-2.6627,-2.6551,-2.6059,-2.5895,-2.5895,-2.5895,-2.5895,-2.5895,-2.5895,-2.5979,-2.5979,-2.5979,-2.629,-2.661,-2.661,-2.694,-2.7348,-2.7348,-2.7696,-2.8122,-2.8431,-2.8203,-2.7636,-2.6781,-2.6518,-2.6097,-2.5195,-2.5006,-2.4912,-2.4912,-2.4192,-2.3666,-2.3666,-2.3298,-2.3001,-2.3001,-2.3001,-2.3001,-2.3001,-2.3001,-2.3001,-2.3001,-2.3001,-2.3001,-2.3001,-2.2925,-2.2455,-2.1592,-2.1505,-2.1002,-2.0085,-2.0555,-2.0522,-3.0516,-3.1387,-3.1662,-3.0231,-2.9269,-2.8256,-2.6533,0.0,0.0,0.0,-2.3326,-2.2882,-2.2539,0.0,0.0,0.0,0.0,0.0,0.0,0.0,0.0,0.0,0.0,0.0,0.0,0.0,0.0,0.0,0.0,0.0,-3.2436,-3.3482,-3.3814,-3.3082,-3.2394,-3.1891,-3.1618,-3.1618,-3.1378,-3.0887,-3.0428,-2.9958,-2.9467,-2.8975,-2.8626,-2.8396,-2.8145,0.0,-2.7687,-2.7687,-2.7687,-2.7719,-2.7971,-2.8058,-2.8058,-2.8058,-2.8058,-2.796,-2.7239,-2.6988,-2.6867,-2.6136,-2.5895,-2.5895,-2.5895,-2.5895,-2.5895,-2.5895,-2.5895,-2.5895,-2.5895,-2.6052,-2.6218,-2.6218,-2.6528,-2.6928,-2.7185,-2.736,-2.7615,-2.7765,-2.7441,-2.7046,-2.6551,-2.6273,-2.595,-2.5544,-2.5249,-2.5094,-2.5094,-2.4215,-2.366,-2.3626,-2.3224,-2.3001,-2.3001,-2.3001,-2.3001,-2.3001,-2.3001,-2.3001,-2.3001,-2.3001,-2.3001,-2.3001,-2.3001,-2.2531,-2.1592,-2.1592,-2.1221,-2.0522,-2.0751,-2.0871,-3.0332,-3.1185,-3.1488,-2.9846,-2.8718,-2.7612,-2.6068,-2.4541,0.0,0.0,-2.329,-2.3057,-2.2803,0.0,0.0,0.0,0.0,0.0,0.0,0.0,0.0,0.0,0.0,0.0,0.0,0.0,0.0,0.0,0.0,0.0,0.0,-3.3601,-3.3573,-3.3082,-3.2623,-3.2143,-3.1629,-3.1618,-3.1433,-3.105,-3.0581,-3.0111,-2.962,-2.9128,-2.8855,-2.8735,-2.8353,0.0,0.0,-2.8189,-2.8189,-2.8233,-2.8604,-2.8757,-2.8757,-2.8757,-2.8757,-2.8615,-2.7654,-2.7315,-2.7162,-2.6212,-2.5895,-2.5895,-2.5895,-2.5895,-2.5895,-2.5895,-2.5895,-2.5895,-2.5895,-2.5895,-2.5895,-2.5895,-2.6135,-2.6539,-2.694,-2.7021,-2.7103,-2.7185,-2.6857,-2.6528,-2.6528,-2.6135,-2.5895,-2.5895,-2.548,-2.5175,-2.5175,-2.4323,-2.3656,-2.3657,-2.3216,-2.3001,-2.3001,-2.3001,-2.3001,-2.3001,-2.3001,-2.3001,-2.3001,-2.3001,-2.3001,-2.3001,-2.3001,-2.2586,-2.1745,-2.1745,-2.1494,-2.1013,-2.1123,-2.1319,-2.9562,-3.0543,-3.1047,-2.9443,-2.7884,-2.6424,-2.4941,0.0,0.0,-2.2861,-2.2998,-2.3057,-2.2803,-2.2803,-2.3003,0.0,0.0,-2.4868,0.0,0.0,0.0,0.0,0.0,0.0,0.0,0.0,0.0,0.0,0.0,0.0,0.0,-3.4065,-3.3573,-3.3082,-3.2623,-3.2143,-3.1629,-3.1618,-3.1607,-3.1553,-3.1061,-3.0592,-3.0122,-2.9642,-2.9172,-2.8757,0.0,0.0,0.0,-2.8691,-2.8691,-2.8691,-2.8735,-2.8757,-2.8757,-2.8757,-2.8757,-2.8615,-2.7654,-2.7315,-2.7162,-2.6212,-2.5895,-2.5895,-2.5895,-2.5895,-2.5895,-2.5895,-2.5895,-2.5895,-2.5895,-2.5895,-2.5895,-2.5895,-2.5895,-2.6052,-2.6445,-2.6517,-2.6693,-2.7103,-2.6857,-2.6528,-2.6528,-2.6135,-2.5895,-2.5895,-2.548,-2.5175,-2.5175,-2.4323,-2.3711,-2.3667,-2.3263,-2.3001,-2.3001,-2.3001,-2.3001,-2.3001,-2.3001,-2.3001,-2.3001,-2.3001,-2.3001,-2.3001,-2.3001,-2.2761,-2.2248,-2.2248,-2.1996,-2.1538,-2.1974,-2.1974,-2.8682,-2.9745,-3.0341,-2.8966,-2.7407,-2.5954,-2.4755,0.0,0.0,-2.239,-2.2515,-2.2591,-2.2591,-2.2591,-2.2872,-2.3644,0.0,0.0,0.0,0.0,0.0,0.0,0.0,0.0,0.0,0.0,0.0,0.0,0.0,0.0,0.0,-3.4054,-3.3573,-3.3082,-3.2623,-3.2143,-3.1629,-3.1618,-3.1618,-3.1618,-3.1127,-3.0799,-3.0614,-3.0133,-2.9816,-2.9631,0.0,0.0,0.0,-2.951,-2.9281,-2.8872,-2.9074,-2.9019,-2.8757,-2.8757,-2.8757,-2.8615,-2.7654,-2.7315,-2.7162,-2.6212,-2.5895,-2.5895,-2.5895,-2.5895,-2.5895,-2.5895,-2.5895,-2.5895,-2.5895,-2.5895,-2.5895,-2.5895,-2.5895,-2.5979,-2.6135,-2.6135,-2.6218,-2.6385,-2.6302,-2.6135,-2.6135,-2.5979,-2.5895,-2.5895,-2.5732,-2.5611,-2.5611,-2.5022,-2.4486,-2.4213,-2.3471,-2.3001,-2.3001,-2.3001,-2.3001,-2.3001,-2.3001,-2.3001,-2.3001,-2.3001,-2.3001,-2.3001,-2.3001,-2.2772,-2.2313,-2.2313,-2.2215,-2.2029,-2.2226,-2.2357,-2.7609,-2.8746,-2.9406,-2.8306,-2.6903,-2.5568,0.0,0.0,0.0,-2.2064,-2.1987,-2.2109,-2.2405,-2.251,-2.2754,-2.3477,-2.3522,-2.3679,0.0,0.0,0.0,0.0,0.0,0.0,0.0,0.0,0.0,0.0,0.0,0.0,0.0,-3.3703,-3.3204,-3.3071,-3.2623,-3.2143,-3.1629,-3.1618,-3.1618,-3.1618,-3.1269,-3.1029,-3.0876,-3.0417,-3.0209,-3.0199,0.0,0.0,0.0,-2.9707,-2.9379,-2.879,-2.9128,-2.9063,-2.8757,-2.8757,-2.8659,-2.8429,-2.7599,-2.7228,-2.6977,-2.6157,-2.5895,-2.5895,-2.5895,-2.5895,-2.5895,-2.5895,-2.5895,-2.5895,-2.5895,-2.5895,-2.5895,-2.5895,-2.5895,-2.5895,-2.5895,-2.5895,-2.5895,-2.5895,-2.5895,-2.5895,-2.5895,-2.5895,-2.5895,-2.5895,-2.5895,-2.5895,-2.5895,-2.548,-2.5043,-2.4727,-2.394,-2.3318,-2.3023,-2.3132,-2.3154,-2.3012,-2.3001,-2.3001,-2.3001,-2.3001,-2.3001,-2.3001,-2.3001,-2.2848,-2.2521,-2.2521,-2.2521,-2.2521,-2.2521,-2.2904,-2.6279,-2.749,-2.8214,-2.7389,-2.627,-2.5051,0.0,0.0,0.0,-2.174,-2.1654,-2.1723,-2.2347,-2.251,-2.2646,-2.3076,-2.3506,-2.3845,0.0,0.0,0.0,0.0,0.0,0.0,0.0,0.0,0.0,0.0,0.0,0.0,0.0,0.0,-3.22,-3.3071,-3.2623,-3.2143,-3.1629,-3.1618,-3.1618,-3.1618,-3.1618,-3.1367,-3.0876,-3.0417,-3.0209,0.0,0.0,0.0,0.0,-2.8964,-2.8861,-2.8757,-2.8861,-2.8757,-2.8757,-2.8757,-2.8451,-2.7971,-2.7479,-2.702,-2.6562,-2.6059,-2.5895,-2.5895,-2.5895,-2.5895,-2.5895,-2.5895,-2.5895,-2.5895,-2.5895,-2.5895,-2.5895,-2.5895,-2.5895,-2.5895,-2.5895,-2.5895,-2.5895,-2.5895,-2.5895,-2.5895,-2.5895,-2.5895,-2.5895,-2.5895,-2.5895,-2.5895,-2.5895,-2.548,-2.5175,-2.5164,-2.4749,-2.4071,-2.3078,-2.3449,-2.3514,-2.3034,-2.3001,-2.3001,-2.3001,-2.3001,-2.3001,-2.3001,-2.3001,-2.3001,-2.299,-2.299,-2.299,-2.299,-2.299,-2.379,-2.4326,-2.5399,-2.6206,-2.5674,-2.4821,-2.3877,-2.2923,0.0,0.0,-2.0745,-2.0778,-2.1053,-2.1733,-2.1997,-2.223,-2.2766,-2.3239,-2.3467,0.0,0.0,0.0,0.0,0.0,0.0,0.0,0.0,0.0,0.0,0.0,0.0,0.0,0.0,-3.2739,-3.3071,-3.2285,-3.1793,-3.1618,-3.1618,-3.1618,-3.1618,-3.1618,-3.1542,-3.1389,-3.1236,0.0,0.0,0.0,0.0,0.0,-3.0144,-2.9642,-2.879,-2.9117,-2.9041,-2.8757,-2.8757,-2.8451,-2.7971,-2.7479,-2.7009,-2.6551,-2.6059,-2.5895,-2.5895,-2.5895,-2.5895,-2.5895,-2.5895,-2.5895,-2.5895,-2.5895,-2.5895,-2.5895,-2.5895,-2.5895,-2.5895,-2.5895,-2.5895,-2.5895,-2.5895,-2.5895,-2.5895,-2.5895,-2.5895,-2.5895,-2.5895,-2.5895,-2.5895,-2.5895,-2.5764,-2.5546,-2.5207,-2.5338,-2.4923,-2.3613,-2.3646,-2.3525,-2.3034,-2.3001,-2.3001,-2.3001,-2.3001,-2.3001,-2.3001,-2.3001,-2.3001,-2.3001,-2.3001,-2.3001,-2.3001,-2.3001,-2.379,0.0,-2.3529,-2.4161,-2.3914,-2.3354,0.0,0.0,0.0,0.0,0.0,0.0,-2.059,-2.1409,-2.1792,-2.2074,-2.2834,-2.3005,0.0,0.0,0.0,0.0,0.0,0.0,0.0,0.0,0.0,0.0,0.0,0.0,0.0,0.0,0.0,-3.2148,-3.2809,-3.2033,-3.1618,-3.1618,-3.1618,-3.1618,-3.1618,-3.1618,-3.1531,-3.1345,-3.1171,0.0,0.0,0.0,0.0,0.0,-3.0122,-2.9565,-2.879,-2.9095,-2.891,-2.8484,-2.8484,-2.8069,-2.7468,-2.7162,-2.6747,-2.631,-2.6005,-2.5895,-2.5895,-2.5895,-2.5895,-2.5895,-2.5895,-2.5895,-2.5895,-2.5895,-2.5895,-2.5895,-2.5895,-2.5895,-2.5895,-2.5895,-2.5895,-2.5895,-2.5895,-2.5895,-2.5895,-2.5895,-2.5895,-2.5895,-2.5895,-2.5895,-2.5895,-2.5895,-2.5895,-2.5786,-2.548,-2.5721,-2.5459,-2.4366,-2.4279,-2.3984,-2.3318,-2.3274,-2.3187,-2.3012,-2.3001,-2.3001,-2.3001,-2.3001,-2.3001,-2.3001,-2.3001,-2.3001,-2.3001,-2.3287,-2.3925,0.0,-2.1779,0.0,0.0,0.0,0.0,0.0,0.0,0.0,0.0,0.0,0.0,0.0,-2.1719,-2.2197,-2.2921,-2.2706,0.0,0.0,0.0,0.0,0.0,0.0,0.0,0.0,0.0,0.0,0.0,0.0,0.0,0.0,0.0,0.0,-3.2328,-3.187,-3.1618,-3.1618,-3.1618,-3.1618,-3.1618,-3.1618,-3.1367,-3.0887,-3.0461,0.0,0.0,0.0,0.0,0.0,-2.9183,-2.879,-2.8757,-2.8757,-2.8484,-2.8091,-2.8058,-2.7468,-2.6682,-2.6682,-2.6343,-2.5895,-2.5895,-2.5895,-2.5895,-2.5895,-2.5928,-2.595,-2.595,-2.595,-2.595,-2.595,-2.5928,-2.5895,-2.5895,-2.5895,-2.5895,-2.5895,-2.5895,-2.5895,-2.5895,-2.5895,-2.5895,-2.5895,-2.5895,-2.5895,-2.5895,-2.5895,-2.5895,-2.5895,-2.5895,-2.5895,-2.5895,-2.5895,-2.571,-2.5262,-2.5196,-2.477,-2.3842,-2.3755,-2.3525,-2.3078,-2.3023,-2.3001,-2.3001,-2.3001,-2.3001,-2.3001,-2.3001,-2.3001,-2.3001,-2.3694,-2.4047,-1.9334,0.0,-2.0694,-2.0694,-2.0707,-2.0695,0.0,0.0,0.0,0.0,0.0,0.0,0.0,0.0,0.0,0.0,0.0,0.0,0.0,0.0,0.0,0.0,0.0,0.0,0.0,0.0,0.0,0.0,0.0,0.0,0.0,0.0,0.0,-3.1815,-3.1684,-3.1618,-3.1618,-3.1618,-3.1618,-3.1618,-3.1618,-3.1367,-3.0887,-3.0788,0.0,0.0,0.0,0.0,-2.9642,-2.9401,-2.9095,-2.8757,-2.8757,-2.868,-2.8538,-2.8178,-2.7665,-2.7151,-2.7151,-2.6605,-2.5895,-2.5895,-2.5895,-2.5895,-2.5895,-2.6157,-2.6463,-2.6463,-2.6463,-2.6463,-2.6463,-2.6179,-2.5895,-2.5895,-2.5895,-2.5895,-2.5895,-2.5895,-2.5895,-2.5895,-2.5895,-2.5895,-2.5895,-2.5895,-2.5895,-2.5895,-2.5895,-2.5895,-2.5895,-2.5895,-2.5895,-2.5895,-2.5895,-2.5852,-2.5742,-2.5382,-2.4923,-2.4344,-2.394,-2.3678,-2.3558,-2.3198,-2.3001,-2.3001,-2.3001,-2.3001,-2.3001,-2.3001,-2.3001,-2.3001,-2.3213,-2.3559,-1.8531,-1.9002,-1.9486,-1.9651,-1.9725,-1.9752,-1.9687,0.0,0.0,0.0,0.0,0.0,0.0,0.0,0.0,0.0,0.0,0.0,0.0,0.0,0.0,0.0,0.0,0.0,0.0,0.0,0.0,0.0,0.0,0.0,0.0,0.0,0.0,-3.1013,-3.1424,-3.1618,-3.1618,-3.1618,-3.1618,-3.1618,-3.1618,-3.1258,-3.0581,-3.0581,0.0,0.0,0.0,0.0,-2.9467,-2.9237,-2.8997,-2.8757,-2.8757,-2.8615,-2.8375,-2.7883,-2.7534,-2.7282,-2.7075,-2.666,-2.6201,-2.5972,-2.5895,-2.5895,-2.5895,-2.6387,-2.69,-2.6693,-2.6463,-2.6343,-2.6573,-2.6267,-2.5895,-2.5895,-2.5895,-2.5895,-2.5895,-2.5895,-2.5895,-2.5895,-2.5895,-2.5895,-2.5895,-2.5895,-2.5895,-2.5895,-2.5895,-2.5895,-2.5895,-2.5895,-2.5895,-2.5895,-2.5895,-2.5895,-2.5895,-2.5655,-2.5306,-2.4836,-2.4541,-2.4301,-2.4093,-2.3602,-2.323,-2.3001,-2.3001,-2.3001,-2.3001,-2.3001,-2.3001,-2.3001,-2.3001,-2.3213,-1.8362,-1.8495,-1.8691,-1.886,-1.9002,-1.9091,-1.9304,0.0,0.0,0.0,0.0,0.0,0.0,0.0,0.0,0.0,0.0,0.0,0.0,0.0,0.0,0.0,0.0,0.0,0.0,0.0,0.0,0.0,0.0,0.0,0.0,0.0,0.0,-3.0599,-3.1208,-3.1586,-3.1509,-3.1586,-3.1586,-3.1509,-3.1509,-3.1018,-3.01,-3.01,-2.9838,0.0,0.0,0.0,-2.9336,-2.8921,-2.8757,-2.8757,-2.8757,-2.8506,-2.8091,-2.7599,-2.7381,-2.7239,-2.6704,-2.6573,-2.6551,-2.6059,-2.5895,-2.5917,-2.5994,-2.6573,-2.714,-2.6824,-2.6431,-2.619,-2.654,-2.6267,-2.5895,-2.5895,-2.5895,-2.5895,-2.5895,-2.5895,-2.5895,-2.5895,-2.5895,-2.5895,-2.5895,-2.5895,-2.5895,-2.5895,-2.5895,-2.5895,-2.5895,-2.5895,-2.5895,-2.5895,-2.5895,-2.5895,-2.5895,-2.5895,-2.5721,-2.5306,-2.5207,-2.4934,-2.4388,-2.3962,-2.3504,-2.3012,-2.3001,-2.3001,-2.3001,-2.3001,-2.3001,-2.3001,-2.3001,-2.3075,-1.804,-1.8189,-1.8351,-1.8691,-1.8843,-1.9172,-1.967,0.0,0.0,0.0,0.0,0.0,0.0,0.0,0.0,0.0,0.0,0.0,0.0,0.0,0.0,0.0,0.0,0.0,0.0,0.0,0.0,0.0,0.0,0.0,0.0,0.0,0.0,-3.1311,-3.1516,-3.1422,-3.1007,-3.1422,-3.1422,-3.1007,-3.1007,-3.0515,-2.9598,-2.9598,-2.9325,0.0,0.0,-2.879,-2.8855,-2.879,-2.8757,-2.8757,-2.8757,-2.8713,-2.8582,-2.8102,-2.7665,-2.7184,-2.6321,-2.6289,-2.6551,-2.6059,-2.5895,-2.5983,-2.6387,-2.6616,-2.6802,-2.7119,-2.7151,-2.702,-2.6715,-2.6267,-2.5895,-2.5895,-2.5895,-2.5895,-2.5895,-2.5895,-2.5895,-2.5895,-2.5895,-2.5895,-2.5895,-2.5895,-2.5895,-2.5895,-2.5895,-2.5895,-2.5895,-2.5895,-2.5895,-2.5895,-2.5895,-2.5895,-2.5895,-2.5895,-2.5874,-2.5797,-2.5404,-2.477,-2.3886,-2.3766,-2.3504,-2.3012,-2.3001,-2.3001,-2.3001,-2.3001,-2.3001,-2.3001,-2.3001,-2.335,-1.7641,-1.7853,-1.8215,-1.8512,-1.8759,-1.9024,0.0,0.0,0.0,0.0,0.0,0.0,0.0,0.0,0.0,0.0,0.0,0.0,0.0,0.0,0.0,0.0,0.0,0.0,0.0,0.0,0.0,0.0,0.0,0.0,0.0,0.0,0.0,0.0,-3.0922,-3.1007,-3.0537,-3.0756,-3.0756,-3.0526,-3.0526,-3.0155,-2.9489,-2.9489,-2.9216,-2.8757,0.0,-2.8757,-2.8757,-2.8757,-2.8604,-2.8396,-2.8659,-2.8593,-2.8375,-2.8418,-2.7949,-2.725,-2.6813,-2.6813,-2.6878,-2.6147,-2.6081,-2.6343,-2.6562,-2.6988,-2.7326,-2.7031,-2.6944,-2.69,-2.6682,-2.6267,-2.5895,-2.5895,-2.5895,-2.5895,-2.5895,-2.5895,-2.5895,-2.5895,-2.5895,-2.5895,-2.5895,-2.5895,-2.5895,-2.5895,-2.5895,-2.5895,-2.5895,-2.5895,-2.5895,-2.5895,-2.5895,-2.5895,-2.5895,-2.5895,-2.5895,-2.5895,-2.5688,-2.5251,-2.4541,-2.4279,-2.3908,-2.3405,-2.3132,-2.3001,-2.3001,-2.3001,-2.3001,-2.3001,-2.3423,-2.3768,-1.735,-1.7586,-1.8099,-1.8481,0.0,0.0,0.0,0.0,0.0,0.0,0.0,0.0,0.0,0.0,0.0,0.0,0.0,0.0,0.0,0.0,0.0,0.0,0.0,0.0,0.0,0.0,0.0,0.0,0.0,0.0,0.0,0.0,0.0,0.0,-3.0235,-3.0515,-3.0046,-3.0046,-3.0046,-3.0046,-3.0046,-2.9784,-2.9314,-2.9314,-2.9052,-2.8593,-2.8593,-2.8593,-2.8593,-2.8593,-2.8375,-2.8091,-2.8571,-2.8528,-2.8244,-2.8495,-2.8123,-2.7468,-2.7348,-2.7239,-2.7031,-2.631,-2.6321,-2.6627,-2.6627,-2.7293,-2.7872,-2.7031,-2.6791,-2.6736,-2.6518,-2.6179,-2.5895,-2.5895,-2.5983,-2.6037,-2.5928,-2.5994,-2.6037,-2.5917,-2.5895,-2.5895,-2.5895,-2.5895,-2.5895,-2.5895,-2.5895,-2.5895,-2.5895,-2.5895,-2.5895,-2.5895,-2.5895,-2.5895,-2.5895,-2.5895,-2.5895,-2.5895,-2.5895,-2.5677,-2.5196,-2.4836,-2.4355,-2.3744,-2.3362,-2.311,-2.3001,-2.3001,-2.3001,-2.3001,-2.3768,-2.4192,-1.7271,-1.7538,-1.7986,-1.8333,-1.8541,0.0,-1.9869,-2.0124,0.0,-2.1131,0.0,0.0,0.0,0.0,0.0,0.0,0.0,0.0,0.0,0.0,0.0,0.0,0.0,0.0,0.0,0.0,0.0,0.0,0.0,0.0,0.0,0.0,0.0,0.0,0.0,-3.0035,-2.9543,-2.9532,-2.9532,-2.9532,-2.9532,-2.9281,-2.8811,-2.8811,-2.8549,-2.8091,-2.8091,-2.8091,-2.8091,-2.8091,-2.8069,-2.8091,-2.8571,-2.8735,-2.8659,-2.8244,-2.8047,-2.7927,-2.7468,-2.7031,-2.6671,-2.6594,-2.6605,-2.6627,-2.6627,-2.7293,-2.7938,-2.7413,-2.7261,-2.7064,-2.6179,-2.5928,-2.5895,-2.5895,-2.6245,-2.6452,-2.5994,-2.6256,-2.6441,-2.5983,-2.5895,-2.5895,-2.5895,-2.5895,-2.5895,-2.5895,-2.5895,-2.5895,-2.5895,-2.5895,-2.5895,-2.5895,-2.5895,-2.5895,-2.5895,-2.5895,-2.5895,-2.5895,-2.5895,-2.5677,-2.5196,-2.5142,-2.4683,-2.3755,-2.37,-2.3449,-2.3001,-2.3001,-2.3001,-2.3001,-2.3768,-2.448,-1.6754,-1.7282,-1.7943,-1.8288,-1.8539,0.0,0.0,-1.9886,-2.0145,-2.0479,-2.0745,0.0,0.0,0.0,0.0,0.0,0.0,0.0,0.0,0.0,0.0,0.0,0.0,0.0,0.0,0.0,0.0,0.0,0.0,0.0,0.0,0.0,0.0,0.0,0.0,-2.9245,-2.8853,-2.8936,-2.8888,-2.8593,-2.8888,-2.8779,-2.8309,-2.8309,-2.8047,-2.7588,-2.7588,-2.7763,-2.8014,-2.7719,-2.7588,-2.7577,-2.7479,-2.7796,-2.8287,-2.8102,-2.8036,-2.7971,-2.7479,-2.7392,-2.7359,-2.6463,-2.6573,-2.6998,-2.6715,-2.7075,-2.7555,-2.737,-2.7315,-2.7162,-2.6518,-2.6354,-2.6354,-2.6354,-2.6715,-2.6922,-2.6452,-2.6496,-2.6485,-2.5994,-2.5895,-2.5895,-2.5895,-2.5895,-2.5895,-2.5895,-2.5895,-2.5895,-2.5895,-2.5895,-2.5895,-2.5895,-2.5895,-2.5895,-2.5895,-2.5895,-2.5895,-2.5895,-2.5895,-2.5819,-2.5633,-2.5338,-2.5,-2.4639,-2.4039,-2.3635,-2.3449,-2.3143,-2.3001,-2.3001,-2.3768,-2.4564,-1.662,-1.7187,-1.7968,0.0,0.0,0.0,-1.9407,-1.9789,-2.0125,-2.0403,-2.081,0.0,0.0,0.0,0.0,0.0,0.0,0.0,0.0,0.0,0.0,0.0,0.0,0.0,0.0,0.0,0.0,0.0,0.0,0.0,0.0,0.0,0.0,0.0,0.0,0.0,-2.8261,-2.8283,-2.8134,-2.7818,-2.8145,-2.8123,-2.7818,-2.7971,-2.7697,-2.7097,-2.7097,-2.737,-2.7785,-2.7446,-2.7403,-2.7479,-2.6867,-2.7206,-2.8036,-2.8036,-2.8134,-2.8222,-2.7883,-2.7883,-2.785,-2.6715,-2.6889,-2.7424,-2.6813,-2.7053,-2.7512,-2.7359,-2.7206,-2.7031,-2.6715,-2.6736,-2.6846,-2.6846,-2.7195,-2.737,-2.6758,-2.6747,-2.666,-2.6026,-2.5895,-2.5895,-2.5895,-2.5895,-2.5895,-2.5895,-2.5895,-2.5895,-2.5895,-2.5895,-2.5895,-2.5895,-2.5895,-2.5895,-2.5895,-2.5895,-2.5895,-2.5895,-2.5895,-2.5895,-2.5895,-2.5579,-2.5327,-2.5175,-2.4519,-2.4115,-2.3973,-2.3471,-2.323,-2.323,-2.3847,-2.4409,-1.7049,-1.749,0.0,0.0,0.0,0.0,-1.9638,-2.0138,-2.0591,-2.1306,0.0,0.0,0.0,0.0,0.0,0.0,0.0,0.0,0.0,0.0,0.0,0.0,0.0,0.0,0.0,0.0,0.0,0.0,0.0,0.0,0.0,0.0,0.0,0.0,0.0,0.0,-2.7934,-2.7555,-2.7304,-2.7304,-2.7315,-2.7315,-2.7326,-2.7807,-2.7512,-2.6627,-2.6627,-2.6878,-2.7304,-2.7304,-2.7588,-2.7938,-2.6988,-2.7206,-2.8036,-2.8025,-2.8331,-2.8746,-2.8839,-2.8429,-2.796,-2.7468,-2.7632,-2.785,-2.6911,-2.7272,-2.7916,-2.7435,-2.6977,-2.6627,-2.6638,-2.6977,-2.7315,-2.7315,-2.7687,-2.7785,-2.6835,-2.6988,-2.7031,-2.6081,-2.5895,-2.5895,-2.5895,-2.5895,-2.5895,-2.5895,-2.5895,-2.5895,-2.5895,-2.5895,-2.5895,-2.5895,-2.5895,-2.5895,-2.5895,-2.5895,-2.5895,-2.5895,-2.5895,-2.5895,-2.5895,-2.5895,-2.5677,-2.5185,-2.5175,-2.4945,-2.4497,-2.3984,-2.3733,-2.3722,-2.3931,-2.412,-1.6858,0.0,0.0,0.0,0.0,0.0,0.0,-1.9948,0.0,0.0,0.0,0.0,0.0,0.0,0.0,0.0,0.0,0.0,0.0,0.0,0.0,0.0,0.0,0.0,0.0,0.0,0.0,0.0,0.0,0.0,0.0,0.0,0.0,0.0,0.0,0.0,-2.6828,-2.7036,-2.6887,-2.6574,-2.7063,-2.714,-2.6835,-2.6977,-2.6704,-2.6125,-2.6125,-2.6387,-2.6835,-2.6835,-2.6922,-2.6988,-2.6365,-2.69,-2.796,-2.7293,-2.7555,-2.82,-2.7861,-2.7643,-2.7446,-2.6988,-2.6922,-2.6933,-2.631,-2.631,-2.6573,-2.6769,-2.6736,-2.678,-2.7446,-2.7719,-2.7741,-2.7392,-2.7938,-2.8276,-2.7315,-2.7217,-2.7031,-2.6081,-2.5895,-2.5895,-2.5895,-2.5895,-2.5895,-2.5895,-2.5895,-2.5895,-2.5895,-2.5895,-2.5895,-2.5895,-2.5895,-2.5895,-2.5895,-2.5895,-2.5895,-2.5895,-2.5895,-2.5895,-2.5895,-2.5895,-2.583,-2.5688,-2.5349,-2.5109,-2.4967,-2.4497,-2.4257,-2.4257,-2.3963,-2.4086,-1.7277,0.0,0.0,0.0,0.0,0.0,0.0,0.0,0.0,0.0,0.0,0.0,0.0,0.0,0.0,0.0,0.0,0.0,0.0,0.0,0.0,0.0,0.0,0.0,0.0,0.0,0.0,0.0,0.0,0.0,0.0,0.0,0.0,0.0,0.0,0.0,-2.626,-2.6421,-2.626,-2.6001,-2.6444,-2.6519,-2.6173,-2.6454,-2.6365,-2.5917,-2.6103,-2.6354,-2.6627,-2.6627,-2.6627,-2.6583,-2.6092,-2.6551,-2.7413,-2.6835,-2.7108,-2.7708,-2.7413,-2.7315,-2.7239,-2.678,-2.6758,-2.6813,-2.6332,-2.619,-2.6256,-2.654,-2.6496,-2.6474,-2.7042,-2.7468,-2.7719,-2.7621,-2.8189,-2.844,-2.7282,-2.7184,-2.7031,-2.6081,-2.5895,-2.5895,-2.5895,-2.5895,-2.5895,-2.5895,-2.5895,-2.5895,-2.5812,-2.5812,-2.5895,-2.5812,-2.5812,-2.5895,-2.5895,-2.5895,-2.5895,-2.5895,-2.5895,-2.5895,-2.5895,-2.5895,-2.5895,-2.5895,-2.5611,-2.5459,-2.5459,-2.4989,-2.476,-2.4749,-2.4257,-2.415,-1.789,0.0,0.0,0.0,0.0,0.0,0.0,0.0,0.0,0.0,0.0,0.0,0.0,0.0,0.0,0.0,0.0,0.0,0.0,0.0,0.0,0.0,0.0,0.0,0.0,0.0,0.0,0.0,0.0,0.0,0.0,0.0,0.0,0.0,0.0,0.0,-2.613,-2.5786,-2.5559,0.0,-2.557,-2.5644,-2.5665,-2.628,-2.6321,-2.5928,-2.6376,-2.6562,-2.6562,-2.6562,-2.6562,-2.6518,-2.607,-2.6201,-2.6627,-2.6573,-2.6856,-2.725,-2.725,-2.7217,-2.7119,-2.6661,-2.6878,-2.7108,-2.6693,-2.6562,-2.6562,-2.6562,-2.6245,-2.5906,-2.5961,-2.6605,-2.727,-2.7717,-2.8309,-2.8309,-2.6933,-2.6955,-2.6977,-2.6081,-2.5906,-2.5895,-2.5906,-2.5906,-2.5906,-2.5906,-2.5895,-2.5812,-2.5654,-2.5738,-2.5812,-2.5644,-2.5812,-2.5895,-2.5895,-2.5895,-2.5906,-2.5895,-2.5906,-2.5906,-2.5895,-2.5906,-2.5895,-2.5895,-2.5895,-2.5895,-2.5895,-2.5459,-2.524,-2.5229,-2.477,-2.4279,0.0,-1.7935,0.0,0.0,0.0,0.0,0.0,0.0,0.0,0.0,0.0,0.0,0.0,0.0,0.0,0.0,0.0,0.0,0.0,0.0,0.0,0.0,0.0,0.0,0.0,0.0,0.0,0.0,0.0,0.0,0.0,0.0,0.0,0.0,0.0,-2.4753,-2.4857,-2.5009,-2.5115,0.0,-2.5475,-2.5644,-2.5822,-2.6005,-2.6005,-2.5906,-2.6016,-2.6059,-2.6059,-2.6059,-2.6059,-2.6048,-2.5939,-2.6201,-2.6583,-2.6201,-2.6365,-2.6693,-2.6607,-2.6357,-2.6256,-2.6368,-2.6259,-2.6179,-2.6092,-2.6059,-2.6059,-2.6059,-2.5899,-2.5825,-2.6291,-2.6347,-2.6258,-2.6551,-2.7399,-2.7905,-2.6856,-2.6704,-2.6519,-2.5847,-2.5812,-2.5812,-2.5644,-2.5771,-2.5888,-2.5888,-2.5654,-2.5611,-2.5812,-2.5738,-2.5738,-2.5812,-2.5895,-2.5895,-2.5895,-2.5895,-2.5812,-2.5644,-2.5812,-2.5822,-2.5644,-2.5822,-2.5895,-2.5895,-2.5895,-2.5895,-2.5895,-2.5797,-2.5742,-2.5732,-2.5251,-2.477,0.0,0.0,0.0,0.0,0.0,0.0,0.0,0.0,0.0,0.0,0.0,0.0,0.0,0.0,0.0,0.0,0.0,0.0,0.0,0.0,0.0,0.0,0.0,0.0,0.0,0.0,0.0,0.0,0.0,0.0,0.0,0.0,0.0,0.0,-2.4615,-2.47,-2.47,-2.4946,-2.5115,-2.52,-2.538,-2.5559,-2.5728,-2.5822,-2.5895,-2.5895,-2.5895,-2.5895,-2.5895,-2.5895,-2.5895,-2.5906,-2.5812,-2.5975,-2.6245,-2.591,-2.589,-2.6107,-2.6022,-2.586,-2.5771,-2.5946,-2.586,-2.5728,-2.5895,-2.5812,-2.5738,-2.5738,-2.5654,-2.5624,-2.5861,-2.5915,-2.5849,-2.5808,-2.6571,-2.709,-2.6131,-2.6109,-2.6131,-2.5561,-2.5464,-2.5549,-2.5464,-2.5497,-2.5602,-2.5602,-2.5391,-2.5359,-2.538,-2.5559,-2.5559,-2.5464,-2.5644,-2.5738,-2.5738,-2.5633,-2.5549,-2.5559,-2.5728,-2.5738,-2.5559,-2.5728,-2.5822,-2.5895,-2.5895,-2.5895,-2.5895,-2.5895,-2.5895,-2.5895,-2.5644,-2.5262,0.0,0.0,0.0,0.0,0.0,0.0,0.0,0.0,0.0,0.0,0.0,0.0,0.0,0.0,0.0,0.0,0.0,0.0,0.0,0.0,0.0,0.0,0.0,0.0,0.0,0.0,0.0,0.0,0.0,0.0,0.0,0.0,-2.454,-2.454,-2.47,-2.4861,-2.4861,-2.5031,-2.5115,-2.5115,-2.52,-2.538,-2.5559,-2.5728,-2.5812,-2.5812,-2.5812,-2.5812,-2.5812,-2.5812,-2.5812,-2.5822,-2.5644,-2.5644,-2.5812,-2.5644,-2.5559,-2.557,-2.5475,-2.5475,-2.5559,-2.5475,-2.5475,-2.5559,-2.5812,-2.5728,-2.5559,-2.557,-2.5559,-2.5475,-2.5285,-2.5487,-2.5603,-2.5211,-2.573,-2.6091,-2.537,-2.5509,-2.5668,-2.519,-2.5115,-2.5115,-2.52,-2.52,-2.52,-2.52,-2.52,-2.5115,-2.4946,-2.5295,-2.5306,-2.5031,-2.5295,-2.5559,-2.5559,-2.5295,-2.5285,-2.5475,-2.5475,-2.5559,-2.5475,-2.5475,-2.5644,-2.5812,-2.5812,-2.5895,-2.5895,-2.5895,-2.5895,-2.5895,-2.5895,-2.5633,0.0,0.0,0.0,0.0,0.0,0.0,0.0,0.0,0.0,0.0,0.0,0.0,0.0,0.0,0.0,0.0,0.0,0.0,0.0,0.0,0.0,0.0,0.0,0.0,0.0,0.0,0.0,0.0,0.0,0.0,0.0,-2.3907,-2.454,-2.454,-2.454,-2.454,-2.454,-2.4625,-2.47,-2.4946,-2.5115,-2.538,-2.5559,-2.538,-2.538,-2.5644,-2.5644,-2.5644,-2.5644,-2.538,-2.5464,-2.5644,-2.538,-2.538,-2.5644,-2.538,-2.538,-2.5559,-2.5126,-2.5115,-2.52,-2.5031,-2.5115,-2.5285,-2.5559,-2.5464,-2.5285,-2.5559,-2.5464,-2.5285,-2.52,-2.5073,-2.503,-2.4956,-2.488,-2.4857,-2.5147,-2.5253,-2.519,-2.4956,-2.4946,-2.4946,-2.5052,-2.5126,-2.5115,-2.5052,-2.4956,-2.5031,-2.5115,-2.5031,-2.5031,-2.5115,-2.52,-2.5285,-2.5285,-2.52,-2.5115,-2.5031,-2.5115,-2.5211,-2.5031,-2.5115,-2.538,-2.5644,-2.5644,-2.5738,-2.5895,-2.5895,-2.5895,-2.5895,-2.5895,-2.5633,-1.6738,0.0,0.0,0.0,0.0,0.0,0.0,0.0,0.0,0.0,0.0,0.0,0.0,0.0,0.0,0.0,0.0,0.0,0.0,0.0,0.0,0.0,0.0,0.0,0.0,0.0,0.0,0.0,0.0,0.0,-2.3008,-2.3993,-2.454,-2.454,-2.454,-2.454,-2.454,-2.4615,-2.4786,-2.4861,-2.5031,-2.5115,-2.5211,-2.5126,-2.5211,-2.5559,-2.5464,-2.538,-2.538,-2.5285,-2.5285,-2.538,-2.5115,-2.52,-2.538,-2.5115,-2.5115,-2.5211,-2.4946,-2.4946,-2.5031,-2.4946,-2.4946,-2.5031,-2.5295,-2.52,-2.5031,-2.5211,-2.5126,-2.5031,-2.4871,-2.47,-2.47,-2.47,-2.4625,-2.454,-2.4786,-2.4786,-2.4786,-2.47,-2.47,-2.4711,-2.4711,-2.4796,-2.4786,-2.4711,-2.4711,-2.47,-2.4786,-2.4861,-2.4861,-2.4786,-2.4946,-2.5031,-2.5031,-2.4871,-2.4871,-2.4861,-2.4946,-2.5031,-2.4861,-2.4946,-2.5115,-2.538,-2.538,-2.5549,-2.5895,-2.5822,-2.5812,-2.5895,-2.5895,-2.5786,0.0,0.0,0.0,0.0,0.0,0.0,0.0,0.0,0.0,0.0,0.0,0.0,0.0,0.0,0.0,0.0,0.0,0.0,0.0,0.0,0.0,0.0,0.0,0.0,0.0,0.0,0.0,0.0,0.0,0.0,-2.3096,-2.3993,-2.454,-2.454,-2.454,-2.454,-2.454,-2.47,-2.4786,-2.4786,-2.4786,-2.4861,-2.4861,-2.4861,-2.5041,-2.5391,-2.52,-2.5115,-2.5115,-2.5031,-2.5031,-2.5115,-2.4861,-2.4946,-2.5115,-2.4861,-2.4861,-2.4861,-2.4775,-2.4786,-2.4786,-2.4786,-2.4786,-2.4871,-2.5031,-2.4946,-2.4786,-2.4861,-2.4861,-2.4871,-2.454,-2.454,-2.4625,-2.454,-2.454,-2.454,-2.454,-2.454,-2.454,-2.454,-2.454,-2.454,-2.454,-2.454,-2.454,-2.454,-2.454,-2.454,-2.454,-2.47,-2.47,-2.454,-2.47,-2.4786,-2.4786,-2.4615,-2.4625,-2.4786,-2.4786,-2.4786,-2.4786,-2.4786,-2.4871,-2.5115,-2.5031,-2.5211,-2.5728,-2.5559,-2.5559,-2.5728,-2.5728,-2.5728,0.0,0.0,0.0,0.0,0.0,0.0,0.0,0.0,0.0,0.0,0.0,0.0,0.0,0.0,0.0,0.0,0.0,0.0,0.0,0.0,0.0,0.0,0.0,0.0,0.0,0.0,0.0,0.0,0.0,0.0,-2.3096,-2.3993,-2.454,-2.454,-2.454,-2.454,-2.454,-2.454,-2.454,-2.454,-2.454,-2.4615,-2.4861,-2.4625,-2.47,-2.4946,-2.4946,-2.4946,-2.4861,-2.4625,-2.47,-2.4861,-2.4615,-2.47,-2.4861,-2.4615,-2.47,-2.4861,-2.4625,-2.454,-2.454,-2.454,-2.454,-2.454,-2.4871,-2.47,-2.4529,-2.4861,-2.4861,-2.4871,-2.454,-2.47,-2.4775,-2.454,-2.454,-2.454,-2.454,-2.454,-2.454,-2.454,-2.454,-2.454,-2.454,-2.454,-2.454,-2.454,-2.454,-2.454,-2.454,-2.454,-2.454,-2.454,-2.454,-2.454,-2.454,-2.454,-2.454,-2.454,-2.454,-2.454,-2.454,-2.454,-2.4615,-2.4946,-2.4711,-2.4786,-2.52,-2.52,-2.52,-2.52,-2.52,-2.538,0.0,0.0,0.0,0.0,0.0,0.0,0.0,0.0,0.0,0.0,0.0,0.0,0.0,0.0,0.0,0.0,0.0,0.0,0.0,0.0,0.0,0.0,0.0,0.0,0.0,0.0,0.0,0.0,0.0,0.0,-2.3917,-2.4358,-2.454,-2.454,-2.454,-2.454,-2.454,-2.454,-2.454,-2.454,-2.454,-2.454,-2.4615,-2.454,-2.454,-2.4615,-2.4615,-2.4615,-2.4625,-2.454,-2.454,-2.4615,-2.454,-2.454,-2.4615,-2.454,-2.454,-2.4615,-2.454,-2.454,-2.454,-2.454,-2.454,-2.454,-2.4615,-2.4625,-2.454,-2.4615,-2.4615,-2.4615,-2.454,-2.454,-2.4615,-2.454,-2.454,-2.454,-2.454,-2.454,-2.454,-2.454,-2.454,-2.454,-2.454,-2.454,-2.454,-2.454,-2.454,-2.454,-2.454,-2.454,-2.454,-2.454,-2.454,-2.454,-2.454,-2.454,-2.454,-2.454,-2.454,-2.454,-2.454,-2.454,-2.454,-2.4615,-2.454,-2.47,-2.52,-2.5031,-2.5115,-2.52,-2.52,-2.538,-1.6096,0.0,0.0,0.0,0.0,0.0,0.0,0.0,0.0,0.0,0.0,0.0,0.0,0.0,0.0,0.0,0.0,0.0,0.0,0.0,0.0,0.0,0.0,0.0,0.0,0.0,0.0,0.0,0.0,0.0,-2.3917,-2.4003,-2.4176,-2.4454,-2.454,-2.454,-2.454,-2.454,-2.454,-2.454,-2.454,-2.454,-2.454,-2.454,-2.454,-2.454,-2.454,-2.454,-2.454,-2.454,-2.454,-2.454,-2.454,-2.454,-2.454,-2.454,-2.454,-2.454,-2.454,-2.454,-2.454,-2.454,-2.454,-2.454,-2.454,-2.454,-2.454,-2.454,-2.454,-2.454,-2.454,-2.454,-2.454,-2.454,-2.454,-2.454,-2.454,-2.454,-2.454,-2.454,-2.454,-2.454,-2.454,-2.454,-2.454,-2.454,-2.454,-2.454,-2.454,-2.454,-2.454,-2.454,-2.454,-2.454,-2.454,-2.454,-2.454,-2.454,-2.454,-2.454,-2.454,-2.454,-2.454,-2.454,-2.454,-2.4615,-2.4946,-2.4871,-2.4861,-2.4956,-2.4956,-2.5126,0.0,0.0,0.0,0.0,0.0,0.0,0.0,0.0,0.0,0.0,0.0,0.0,0.0,0.0,0.0,0.0,0.0,0.0,0.0,0.0,0.0,0.0,0.0,0.0,0.0,0.0,0.0,0.0,0.0,-2.205,-2.3008,-2.3096,-2.3551,-2.4454,-2.4454,-2.454,-2.454,-2.454,-2.454,-2.454,-2.454,-2.454,-2.454,-2.454,-2.454,-2.454,-2.454,-2.454,-2.454,-2.454,-2.454,-2.454,-2.454,-2.454,-2.454,-2.454,-2.454,-2.454,-2.454,-2.454,-2.454,-2.454,-2.454,-2.454,-2.454,-2.454,-2.454,-2.454,-2.454,-2.454,-2.454,-2.454,-2.454,-2.454,-2.454,-2.454,-2.454,-2.454,-2.454,-2.454,-2.454,-2.454,-2.454,-2.454,-2.454,-2.454,-2.454,-2.454,-2.454,-2.454,-2.454,-2.454,-2.454,-2.454,-2.454,-2.454,-2.454,-2.454,-2.454,-2.454,-2.454,-2.454,-2.454,-2.454,-2.454,-2.454,-2.454,-2.454,-2.454,-2.454,-2.454,-2.4615,-1.5805,0.0,0.0,0.0,0.0,0.0,0.0,0.0,0.0,0.0,0.0,0.0,0.0,0.0,0.0,0.0,0.0,0.0,0.0,0.0,0.0,0.0,0.0,0.0,0.0,0.0,0.0,0.0,-2.052,-2.106,-2.2041,-2.2746,-2.3183,-2.3454,-2.4186,-2.454,-2.454,-2.454,-2.454,-2.454,-2.454,-2.454,-2.454,-2.454,-2.454,-2.454,-2.454,-2.454,-2.454,-2.454,-2.454,-2.454,-2.454,-2.454,-2.454,-2.454,-2.454,-2.454,-2.454,-2.454,-2.454,-2.454,-2.454,-2.454,-2.454,-2.454,-2.454,-2.454,-2.454,-2.454,-2.454,-2.454,-2.454,-2.454,-2.454,-2.454,-2.454,-2.454,-2.454,-2.454,-2.454,-2.454,-2.454,-2.454,-2.454,-2.454,-2.454,-2.454,-2.454,-2.454,-2.454,-2.454,-2.454,-2.454,-2.454,-2.454,-2.454,-2.454,-2.454,-2.454,-2.454,-2.454,-2.454,-2.454,-2.454,-2.454,-2.454,-2.454,-2.454,-2.454,-2.47,-2.47,0.0,0.0,0.0,0.0,0.0,0.0,0.0,0.0,0.0,0.0,0.0,0.0,0.0,0.0,0.0,0.0,0.0,0.0,0.0,0.0,0.0,0.0,0.0,0.0,0.0,0.0,0.0,0.0,-1.9629,-2.0257,-2.1606,-2.2931,-2.3637,-2.3637,-2.4176,-2.454,-2.454,-2.454,-2.454,-2.454,-2.454,-2.454,-2.454,-2.454,-2.454,-2.454,-2.454,-2.454,-2.454,-2.454,-2.454,-2.454,-2.454,-2.454,-2.454,-2.454,-2.454,-2.454,-2.454,-2.454,-2.454,-2.454,-2.454,-2.454,-2.454,-2.454,-2.454,-2.454,-2.454,-2.454,-2.454,-2.454,-2.454,-2.454,-2.454,-2.454,-2.454,-2.454,-2.454,-2.454,-2.454,-2.454,-2.454,-2.454,-2.454,-2.454,-2.454,-2.454,-2.454,-2.454,-2.454,-2.454,-2.454,-2.454,-2.454,-2.454,-2.454,-2.454,-2.454,-2.454,-2.454,-2.454,-2.454,-2.454,-2.454,-2.454,-2.454,-2.454,-2.454,-2.454,-2.4615,-2.4615,0.0,0.0,0.0,0.0,0.0,0.0,-1.7691,-1.8168,0.0,0.0,0.0,0.0,0.0,0.0,0.0,0.0,0.0,0.0,0.0,0.0,0.0,0.0,0.0,0.0,0.0,0.0,-1.8827,-1.8827,-1.8827,-1.9546,-2.1248,-2.3202,-2.4186,-2.4186,-2.4368,-2.4519,-2.4467,-2.4519,-2.4519,-2.4467,-2.4519,-2.454,-2.454,-2.454,-2.454,-2.454,-2.454,-2.454,-2.454,-2.454,-2.454,-2.454,-2.454,-2.454,-2.454,-2.454,-2.454,-2.454,-2.454,-2.454,-2.454,-2.454,-2.454,-2.454,-2.454,-2.454,-2.454,-2.454,-2.454,-2.454,-2.454,-2.454,-2.454,-2.454,-2.454,-2.454,-2.454,-2.454,-2.454,-2.454,-2.454,-2.454,-2.454,-2.454,-2.454,-2.454,-2.454,-2.454,-2.454,-2.454,-2.454,-2.454,-2.454,-2.454,-2.454,-2.454,-2.454,-2.454,-2.454,-2.454,-2.454,-2.454,-2.454,-2.454,-2.454,-2.454,-2.454,-2.454,-2.454,-2.454,-2.454,-2.454,0.0,0.0,0.0,0.0,0.0,0.0,-1.7577,-1.7814,0.0,0.0,0.0,0.0,0.0,0.0,0.0,0.0,0.0,0.0,0.0,0.0,0.0,0.0,0.0,0.0,0.0,0.0,-1.8827,-1.8827,-1.8827,-1.9004,-1.9371,-2.1239,-2.2227,-2.2227,-2.3734,-2.4364,-2.4012,-2.4364,-2.4364,-2.4012,-2.4374,-2.454,-2.454,-2.454,-2.454,-2.454,-2.454,-2.454,-2.454,-2.454,-2.454,-2.454,-2.454,-2.454,-2.454,-2.454,-2.454,-2.454,-2.454,-2.454,-2.454,-2.454,-2.454,-2.454,-2.454,-2.454,-2.454,-2.454,-2.454,-2.454,-2.454,-2.454,-2.454,-2.454,-2.454,-2.454,-2.454,-2.454,-2.454,-2.454,-2.454,-2.454,-2.454,-2.454,-2.454,-2.454,-2.454,-2.454,-2.454,-2.454,-2.454,-2.454,-2.454,-2.454,-2.454,-2.454,-2.454,-2.454,-2.454,-2.454,-2.454,-2.454,-2.454,-2.454,-2.454,-2.454,-2.454,-2.454,-2.454,-2.454,-2.454,-2.454,0.0,0.0,0.0,-1.6806,0.0,0.0,0.0,-1.7379,0.0,0.0,0.0,0.0,0.0,0.0,0.0,0.0,0.0,0.0,0.0,0.0,0.0,0.0,0.0,0.0,0.0,0.0,-1.8739,-1.9183,-1.9715,-2.0231,-2.0863,-2.2306,-2.3115,-2.3115,-2.4003,-2.4436,-2.4209,-2.4436,-2.4426,-2.4209,-2.4436,-2.454,-2.454,-2.454,-2.454,-2.454,-2.454,-2.454,-2.454,-2.454,-2.454,-2.454,-2.454,-2.454,-2.454,-2.454,-2.454,-2.454,-2.454,-2.454,-2.454,-2.454,-2.454,-2.454,-2.454,-2.454,-2.454,-2.454,-2.454,-2.454,-2.454,-2.454,-2.454,-2.454,-2.454,-2.454,-2.454,-2.454,-2.454,-2.454,-2.454,-2.454,-2.454,-2.454,-2.454,-2.454,-2.454,-2.454,-2.454,-2.454,-2.454,-2.454,-2.454,-2.454,-2.454,-2.454,-2.454,-2.454,-2.454,-2.454,-2.454,-2.454,-2.454,-2.454,-2.454,-2.454,-2.454,-2.454,-2.454,-2.454,-2.454,-2.454,0.0,0.0,0.0,0.0,0.0,-1.6943,0.0,0.0,0.0,0.0,0.0,0.0,0.0,0.0,0.0,0.0,0.0,0.0,0.0,0.0,0.0,0.0,0.0,0.0,0.0,0.0,-1.8548,-1.9247,-2.0105,-2.1145,-2.2417,-2.3345,-2.4008,-2.4176,-2.4454,-2.4498,-2.4416,-2.4498,-2.4498,-2.4416,-2.4498,-2.454,-2.454,-2.454,-2.454,-2.454,-2.454,-2.454,-2.454,-2.454,-2.454,-2.454,-2.454,-2.454,-2.454,-2.454,-2.454,-2.454,-2.454,-2.454,-2.454,-2.454,-2.454,-2.454,-2.454,-2.454,-2.454,-2.454,-2.454,-2.454,-2.454,-2.454,-2.454,-2.454,-2.454,-2.454,-2.454,-2.454,-2.454,-2.454,-2.454,-2.454,-2.454,-2.454,-2.454,-2.454,-2.454,-2.454,-2.454,-2.454,-2.454,-2.454,-2.454,-2.454,-2.454,-2.454,-2.454,-2.454,-2.454,-2.454,-2.454,-2.454,-2.454,-2.454,-2.454,-2.454,-2.454,-2.454,-2.454,-2.454,-2.454,-2.454,0.0,0.0,0.0,0.0,-1.7707,0.0,0.0,0.0,0.0,0.0,0.0,-1.7033,-1.7033,0.0,0.0,0.0,0.0,0.0,0.0,0.0,0.0,0.0,0.0,0.0,0.0,0.0,0.0,-1.8001,-1.8088,-1.8758,-2.0008,-2.1067,-2.2102,-2.326,-2.409,-2.4353,-2.396,-2.4343,-2.4343,-2.396,-2.4353,-2.454,-2.454,-2.454,-2.454,-2.454,-2.454,-2.454,-2.454,-2.454,-2.454,-2.454,-2.454,-2.454,-2.454,-2.454,-2.454,-2.454,-2.454,-2.454,-2.454,-2.454,-2.454,-2.454,-2.454,-2.454,-2.454,-2.454,-2.454,-2.454,-2.454,-2.454,-2.454,-2.454,-2.454,-2.454,-2.454,-2.454,-2.454,-2.454,-2.454,-2.454,-2.454,-2.454,-2.454,-2.454,-2.454,-2.454,-2.454,-2.454,-2.454,-2.454,-2.454,-2.454,-2.454,-2.454,-2.454,-2.454,-2.454,-2.454,-2.454,-2.454,-2.454,-2.454,-2.454,-2.454,-2.454,-2.454,-2.454,-2.454,-2.454,-2.454,0.0,0.0,0.0,0.0,0.0,0.0,0.0,0.0,-1.7183,0.0,0.0,0.0,0.0,0.0,0.0,0.0,0.0,0.0,0.0,0.0,0.0,0.0,0.0,0.0,0.0,0.0,0.0,0.0,0.0,-1.9379,-2.0193,-2.1071,-2.1842,-2.2363,-2.3571,-2.4064,-2.3877,-2.4322,-2.4447,-2.426,-2.4447,-2.454,-2.454,-2.454,-2.454,-2.454,-2.454,-2.454,-2.454,-2.454,-2.454,-2.454,-2.454,-2.454,-2.454,-2.454,-2.454,-2.454,-2.454,-2.454,-2.454,-2.454,-2.454,-2.454,-2.454,-2.454,-2.454,-2.454,-2.454,-2.454,-2.454,-2.454,-2.454,-2.454,-2.454,-2.454,-2.454,-2.454,-2.454,-2.454,-2.454,-2.454,-2.454,-2.454,-2.454,-2.454,-2.454,-2.454,-2.454,-2.454,-2.454,-2.454,-2.454,-2.454,-2.454,-2.454,-2.454,-2.454,-2.454,-2.454,-2.454,-2.454,-2.454,-2.454,-2.454,-2.454,-2.454,-2.454,-2.454,-2.454,-2.454,-2.454,-1.8112,0.0,0.0,0.0,0.0,0.0,0.0,0.0,0.0,0.0,0.0,0.0,0.0,0.0,-1.707,0.0,0.0,0.0,0.0,0.0,0.0,0.0,0.0,0.0,0.0,0.0,0.0,0.0,0.0,0.0,-2.0023,-2.0652,-2.1205,-2.1486,-2.2852,-2.3512,-2.3512,-2.4142,-2.454,-2.454,-2.454,-2.454,-2.454,-2.4416,-2.4426,-2.4444,-2.4416,-2.4426,-2.454,-2.454,-2.454,-2.454,-2.454,-2.454,-2.454,-2.454,-2.454,-2.454,-2.454,-2.454,-2.454,-2.454,-2.454,-2.454,-2.454,-2.454,-2.454,-2.454,-2.454,-2.454,-2.454,-2.454,-2.454,-2.454,-2.454,-2.454,-2.454,-2.454,-2.454,-2.454,-2.454,-2.454,-2.454,-2.454,-2.454,-2.454,-2.454,-2.454,-2.454,-2.454,-2.454,-2.454,-2.454,-2.454,-2.454,-2.454,-2.454,-2.454,-2.454,-2.454,-2.454,-2.454,-2.454,-2.454,-2.454,-2.454,-2.454,-2.454,-2.454,-2.454,-2.454,-2.454,0.0,0.0,0.0,-1.8737,0.0,0.0,0.0,0.0,-1.7385,0.0,0.0,0.0,0.0,-1.6908,-1.6978,-1.7185,0.0,0.0,0.0,0.0,0.0,0.0,0.0,0.0,0.0,0.0,0.0,0.0,0.0,0.0,-1.8728,-1.8745,-1.941,-2.0615,-2.1964,-2.2621,-2.2621,-2.3866,-2.454,-2.454,-2.454,-2.454,-2.4529,-2.4095,-2.4136,-2.4519,-2.4084,-2.4146,-2.454,-2.454,-2.454,-2.454,-2.454,-2.454,-2.454,-2.454,-2.454,-2.454,-2.454,-2.454,-2.454,-2.454,-2.454,-2.454,-2.454,-2.454,-2.454,-2.454,-2.454,-2.454,-2.454,-2.454,-2.454,-2.454,-2.454,-2.454,-2.454,-2.454,-2.454,-2.454,-2.454,-2.454,-2.454,-2.454,-2.454,-2.454,-2.454,-2.454,-2.454,-2.454,-2.454,-2.454,-2.454,-2.454,-2.454,-2.454,-2.454,-2.454,-2.454,-2.454,-2.454,-2.454,-2.454,-2.454,-2.454,-2.454,-2.454,-2.454,-2.454,-2.454,-2.454,-2.454,0.0,0.0,-1.8531,-1.8809,0.0,0.0,0.0,0.0,0.0,0.0,0.0,0.0,0.0,0.0,-1.7047,-1.7323,-1.7043,-1.6949,0.0,0.0,0.0,0.0,0.0,0.0,0.0,0.0,0.0,0.0,0.0,0.0,0.0,-1.8429,-1.9408,-2.0218,-2.1374,-2.2031,-2.2134,-2.2809,-2.3113,-2.3283,-2.3832,-2.426,-2.454,-2.4385,-2.4395,-2.4444,-2.4385,-2.4405,-2.454,-2.454,-2.454,-2.454,-2.454,-2.454,-2.4509,-2.4209,-2.4105,-2.4105,-2.4105,-2.4105,-2.4146,-2.4447,-2.454,-2.454,-2.454,-2.454,-2.454,-2.454,-2.454,-2.454,-2.454,-2.454,-2.454,-2.454,-2.454,-2.454,-2.454,-2.454,-2.454,-2.454,-2.454,-2.454,-2.454,-2.454,-2.454,-2.454,-2.454,-2.454,-2.454,-2.454,-2.454,-2.454,-2.454,-2.454,-2.454,-2.454,-2.454,-2.454,-2.454,-2.454,-2.454,-2.454,-2.454,-2.454,-2.454,-2.454,-2.454,-2.454,-2.454,-2.454,-2.454,-2.454,-1.858,-1.858,0.0,-1.887,-1.8999,0.0,-1.8709,0.0,0.0,0.0,0.0,0.0,0.0,0.0,-1.707,-1.7567,-1.7163,-1.6911,0.0,-1.751,0.0,0.0,0.0,0.0,0.0,0.0,0.0,-1.7136,-1.7443,0.0,0.0,0.0,-1.8664,-1.9246,-2.0445,-2.1322,-2.1918,-2.2601,-2.3058,-2.3293,-2.3842,-2.426,-2.454,-2.4374,-2.4312,-2.4291,-2.4126,-2.4064,-2.4064,-2.4064,-2.4157,-2.4312,-2.4312,-2.4405,-2.4488,-2.4043,-2.3774,-2.366,-2.3826,-2.3877,-2.395,-2.4395,-2.454,-2.454,-2.454,-2.454,-2.454,-2.454,-2.454,-2.454,-2.454,-2.454,-2.454,-2.454,-2.454,-2.454,-2.454,-2.454,-2.454,-2.454,-2.454,-2.454,-2.454,-2.454,-2.454,-2.454,-2.454,-2.454,-2.454,-2.454,-2.454,-2.454,-2.454,-2.454,-2.454,-2.454,-2.454,-2.454,-2.454,-2.454,-2.454,-2.454,-2.4623,-2.4788,-2.4623,-2.4623,-2.4788,-2.4623,-2.454,-2.454,-2.454,-2.454]},{"header":{"parameterUnit":"m.s-1","parameterCategory":1,"la1":30.6,"la2":29.2853,"lo1":-89.7004,"lo2":-87.6739,"dy":0.0162,"dx":0.0183,"nx":112,"ny":82,"refTime":"2023-05-17T00:00:00:Z","depth":0,"parameterNumber":3,"parameterNumberName":"V-component_of_WINDS"},"data":[0.0,0.0,0.0,0.0,0.0,0.0,0.0,0.0,0.0,0.0,0.0,0.0,0.0,0.0,0.0,0.0,0.0,0.0,0.0,0.0,0.0,0.0,0.0,0.0,0.0,0.0,0.0,0.0,0.0,0.0,0.0,0.0,0.0,0.0,0.0,0.0,0.0,0.0,0.0,0.0,0.0,0.0,0.0,0.0,0.0,0.0,0.0,0.0,0.0,0.0,0.0,0.0,0.0,0.0,0.0,0.0,0.0,0.0,0.0,0.0,0.0,0.0,0.0,0.0,0.0,0.0,0.0,0.0,0.0,0.0,0.0,0.0,0.0,0.0,0.0,0.0,0.0,0.0,0.0,0.0,0.0,0.0,0.0,0.0,0.0,0.0,0.0,0.0,0.0,0.0,0.0,-1.2765,-1.4249,-1.5006,-1.4582,-1.4536,-1.2879,-0.9019,0.0,0.0,0.0,0.0,0.0,0.0,0.0,0.0,0.0,0.0,0.0,0.0,0.0,0.0,0.0,0.0,0.0,0.0,0.0,0.0,0.0,0.0,0.0,0.0,0.0,0.0,0.0,0.0,0.0,0.0,0.0,0.0,0.0,0.0,0.0,0.0,0.0,0.0,0.0,0.0,0.0,0.0,0.0,0.0,0.0,0.0,0.0,0.0,0.0,0.0,0.0,0.0,0.0,0.0,0.0,0.0,0.0,0.0,0.0,0.0,0.0,0.0,0.0,0.0,0.0,0.0,0.0,0.0,0.0,0.0,0.0,0.0,0.0,0.0,0.0,0.0,0.0,0.0,0.0,0.0,0.0,0.0,0.0,0.0,0.0,0.0,0.0,0.0,0.0,0.0,0.0,0.0,0.0,0.0,0.0,0.0,0.0,0.0,0.0,0.0,0.0,0.0,0.0,0.0,-1.3424,-1.5072,-1.5508,-1.5659,-1.5558,-1.5558,-1.3839,-0.9781,0.0,0.0,0.0,0.0,0.0,0.0,0.0,0.0,0.0,0.0,0.0,0.0,0.0,0.0,0.0,0.0,0.0,0.0,0.0,0.0,0.0,0.0,0.0,0.0,0.0,0.0,0.0,0.0,0.0,0.0,0.0,0.0,0.0,0.0,0.0,0.0,0.0,0.0,0.0,0.0,0.0,0.0,0.0,0.0,0.0,0.0,0.0,0.0,0.0,0.0,0.0,0.0,0.0,0.0,0.0,0.0,0.0,0.0,0.0,0.0,0.0,0.0,0.0,0.0,0.0,0.0,0.0,0.0,0.0,0.0,0.0,0.0,0.0,0.0,0.0,0.0,0.0,0.0,0.0,0.0,0.0,0.0,0.0,0.0,0.0,0.0,0.0,0.0,0.0,0.0,0.0,0.0,0.0,0.0,0.0,0.0,0.0,0.0,0.0,0.0,0.0,0.0,0.0,-1.2818,-1.3822,-1.5966,-1.5969,-1.5792,-1.5792,-1.5792,-1.4072,-1.0048,-0.9448,0.0,0.0,0.0,0.0,0.0,0.0,0.0,0.0,0.0,0.0,0.0,0.0,0.0,0.0,0.0,0.0,0.0,0.0,0.0,0.0,0.0,0.0,0.0,0.0,0.0,0.0,0.0,0.0,0.0,0.0,0.0,0.0,0.0,0.0,0.0,0.0,0.0,0.0,0.0,0.0,0.0,0.0,0.0,0.0,0.0,0.0,0.0,0.0,0.0,0.0,0.0,0.0,0.0,0.0,0.0,0.0,0.0,0.0,0.0,0.0,0.0,0.0,0.0,0.0,0.0,0.0,0.0,0.0,0.0,0.0,0.0,0.0,0.0,0.0,0.0,0.0,0.0,0.0,0.0,0.0,0.0,0.0,0.0,0.0,0.0,0.0,0.0,0.0,0.0,0.0,0.0,0.0,0.0,0.0,0.0,0.0,0.0,0.0,0.0,0.0,0.0,0.0,-1.4134,-1.4708,-1.6464,-1.6349,-1.6132,-1.6132,-1.6044,-1.4336,-1.0434,-0.9995,0.0,0.0,0.0,0.0,0.0,0.0,0.0,0.0,0.0,0.0,0.0,0.0,0.0,0.0,0.0,0.0,0.0,0.0,0.0,0.0,0.0,0.0,0.0,0.0,0.0,0.0,0.0,0.0,0.0,0.0,0.0,0.0,0.0,0.0,0.0,0.0,0.0,0.0,0.0,0.0,0.0,0.0,0.0,0.0,0.0,0.0,0.0,0.0,0.0,0.0,0.0,0.0,0.0,0.0,0.0,0.0,0.0,0.0,0.0,0.0,0.0,0.0,0.0,0.0,0.0,0.0,0.0,0.0,0.0,0.0,0.0,0.0,0.0,0.0,0.0,0.0,0.0,0.0,0.0,0.0,0.0,0.0,0.0,0.0,0.0,0.0,0.0,0.0,0.0,0.0,0.0,0.0,0.0,0.0,0.0,0.0,0.0,0.0,0.0,0.0,0.0,0.0,-1.5919,-1.6983,-1.7144,-1.7115,-1.7115,-1.7115,-1.6693,-1.4912,-1.1341,-1.0337,0.0,0.0,0.0,0.0,0.0,0.0,0.0,0.0,0.0,0.0,0.0,0.0,0.0,0.0,0.0,0.0,0.0,0.0,0.0,0.0,0.0,0.0,0.0,0.0,0.0,0.0,0.0,0.0,0.0,0.0,0.0,0.0,0.0,0.0,0.0,0.0,0.0,0.0,0.0,0.0,0.0,0.0,0.0,0.0,0.0,0.0,0.0,0.0,0.0,0.0,0.0,0.0,0.0,0.0,0.0,0.0,0.0,0.0,0.0,0.0,0.0,0.0,0.0,0.0,0.0,0.0,0.0,0.0,0.0,0.0,0.0,0.0,0.0,0.0,0.0,0.0,0.0,0.0,0.0,0.0,0.0,0.0,0.0,0.0,0.0,0.0,0.0,0.0,0.0,0.0,0.0,0.0,0.0,0.0,0.0,0.0,0.0,0.0,0.0,0.0,0.0,0.0,-1.5852,-1.6686,0.0,-1.7352,-1.7199,-1.7199,-1.7031,-1.5326,-1.1564,0.0,0.0,0.0,0.0,0.0,0.0,0.0,0.0,0.0,0.0,0.0,0.0,0.0,0.0,0.0,0.0,0.0,0.0,0.0,0.0,0.0,0.0,0.0,0.0,0.0,0.0,0.0,0.0,0.0,0.0,0.0,0.0,0.0,0.0,0.0,0.0,0.0,0.0,0.0,0.0,0.0,0.0,0.0,0.0,0.0,0.0,0.0,0.0,0.0,0.0,0.0,0.0,0.0,0.0,0.0,0.0,0.0,0.0,0.0,0.0,0.0,0.0,0.0,0.0,0.0,0.0,0.0,0.0,0.0,0.0,0.0,0.0,0.0,0.0,0.0,0.0,0.0,0.0,0.0,0.0,0.0,0.0,0.0,0.0,0.0,0.0,0.0,0.0,0.0,0.0,0.0,0.0,0.0,0.0,0.0,0.0,0.0,0.0,0.0,0.0,0.0,0.0,-1.5655,-1.631,-1.7037,0.0,-1.7774,-1.7611,-1.7611,-1.7488,-1.5786,-1.2079,0.0,0.0,0.0,0.0,0.0,0.0,0.0,0.0,0.0,0.0,0.0,0.0,0.0,0.0,0.0,0.0,0.0,0.0,0.0,0.0,0.0,0.0,0.0,0.0,0.0,0.0,0.0,0.0,0.0,0.0,0.0,0.0,0.0,0.0,0.0,0.0,0.0,0.0,0.0,0.0,0.0,0.0,0.0,0.0,0.0,0.0,0.0,0.0,0.0,0.0,0.0,0.0,0.0,0.0,0.0,0.0,0.0,0.0,0.0,0.0,0.0,0.0,0.0,0.0,0.0,0.0,0.0,0.0,0.0,0.0,0.0,0.0,0.0,0.0,0.0,0.0,0.0,0.0,0.0,0.0,0.0,0.0,0.0,0.0,0.0,0.0,0.0,0.0,0.0,0.0,0.0,0.0,0.0,0.0,0.0,0.0,0.0,0.0,0.0,0.0,0.0,0.0,-1.6532,-1.7724,-1.8517,-1.8517,-1.8517,-1.8517,-1.8517,-1.8082,-1.6384,0.0,0.0,0.0,0.0,0.0,0.0,0.0,0.0,0.0,0.0,0.0,0.0,0.0,0.0,0.0,0.0,0.0,0.0,0.0,0.0,0.0,0.0,0.0,0.0,0.0,0.0,0.0,0.0,0.0,0.0,0.0,0.0,0.0,0.0,0.0,0.0,0.0,0.0,0.0,0.0,0.0,0.0,0.0,0.0,0.0,0.0,0.0,0.0,0.0,0.0,0.0,0.0,0.0,0.0,0.0,0.0,0.0,0.0,0.0,0.0,0.0,0.0,0.0,0.0,0.0,0.0,0.0,0.0,0.0,0.0,0.0,0.0,0.0,0.0,0.0,0.0,0.0,0.0,0.0,0.0,0.0,0.0,0.0,0.0,0.0,0.0,0.0,0.0,0.0,0.0,0.0,0.0,0.0,0.0,0.0,0.0,0.0,0.0,0.0,0.0,0.0,0.0,0.0,-1.6663,-1.7724,-1.8517,-1.8517,-1.8517,-1.8517,-1.8517,-1.8386,-1.6811,-1.3386,0.0,0.0,0.0,0.0,0.0,0.0,0.0,0.0,0.0,0.0,0.0,0.0,0.0,0.0,0.0,0.0,0.0,0.0,0.0,0.0,0.0,0.0,0.0,0.0,0.0,0.0,0.0,0.0,0.0,0.0,0.0,0.0,0.0,0.0,0.0,0.0,0.0,0.0,0.0,0.0,0.0,0.0,0.0,0.0,0.0,0.0,0.0,0.0,0.0,0.0,0.0,0.0,0.0,0.0,0.0,0.0,0.0,0.0,0.0,0.0,0.0,0.0,0.0,0.0,0.0,0.0,0.0,0.0,0.0,0.0,0.0,0.0,0.0,0.0,0.0,0.0,0.0,0.0,0.0,0.0,0.0,0.0,0.0,0.0,0.0,0.0,0.0,0.0,0.0,0.0,0.0,0.0,0.0,0.0,0.0,0.0,0.0,0.0,0.0,0.0,0.0,0.0,-1.7049,-1.7875,-1.8517,-1.8517,-1.8517,-1.8517,-1.8517,-1.8517,-1.7314,-1.4489,0.0,0.0,0.0,0.0,0.0,0.0,0.0,0.0,0.0,0.0,0.0,0.0,0.0,0.0,0.0,0.0,0.0,0.0,0.0,0.0,0.0,0.0,0.0,0.0,0.0,0.0,0.0,0.0,0.0,0.0,0.0,0.0,0.0,0.0,0.0,0.0,0.0,0.0,0.0,0.0,0.0,0.0,0.0,0.0,0.0,0.0,0.0,0.0,0.0,0.0,0.0,0.0,0.0,0.0,0.0,0.0,0.0,0.0,0.0,0.0,0.0,0.0,0.0,0.0,0.0,0.0,0.0,0.0,0.0,0.0,0.0,0.0,0.0,0.0,0.0,0.0,0.0,0.0,0.0,0.0,0.0,0.0,0.0,0.0,0.0,0.0,0.0,0.0,0.0,0.0,0.0,0.0,0.0,0.0,0.0,0.0,0.0,0.0,0.0,0.0,0.0,0.0,-1.749,-1.8095,-1.8517,-1.8517,-1.8517,-1.8517,-1.8517,-1.8517,-1.774,-1.5943,0.0,0.0,0.0,0.0,0.0,0.0,0.0,0.0,0.0,0.0,0.0,0.0,0.0,0.0,0.0,0.0,0.0,0.0,0.0,0.0,0.0,0.0,0.0,0.0,0.0,0.0,0.0,0.0,0.0,0.0,0.0,0.0,0.0,0.0,0.0,0.0,0.0,0.0,0.0,0.0,0.0,0.0,0.0,0.0,0.0,0.0,0.0,0.0,0.0,0.0,0.0,0.0,0.0,0.0,0.0,0.0,0.0,0.0,0.0,0.0,-2.2395,0.0,0.0,0.0,0.0,0.0,0.0,0.0,0.0,0.0,0.0,0.0,0.0,0.0,0.0,0.0,0.0,0.0,0.0,0.0,0.0,0.0,0.0,0.0,0.0,0.0,0.0,0.0,0.0,0.0,0.0,0.0,0.0,0.0,0.0,0.0,0.0,0.0,0.0,0.0,0.0,0.0,-1.7544,-1.8095,-1.8517,-1.8517,-1.8517,-1.8517,-1.8517,-1.8517,-1.7793,-1.6153,0.0,0.0,0.0,0.0,0.0,0.0,0.0,0.0,0.0,0.0,0.0,0.0,0.0,0.0,0.0,0.0,0.0,0.0,0.0,0.0,0.0,0.0,0.0,0.0,0.0,0.0,0.0,0.0,0.0,0.0,0.0,0.0,0.0,0.0,0.0,0.0,0.0,0.0,0.0,0.0,0.0,0.0,0.0,0.0,0.0,0.0,0.0,0.0,0.0,0.0,0.0,0.0,0.0,0.0,0.0,0.0,0.0,0.0,0.0,0.0,0.0,-2.382,0.0,0.0,0.0,0.0,0.0,0.0,0.0,0.0,0.0,0.0,0.0,0.0,0.0,0.0,0.0,0.0,0.0,0.0,0.0,0.0,0.0,0.0,0.0,0.0,0.0,0.0,0.0,0.0,0.0,0.0,0.0,0.0,0.0,0.0,0.0,0.0,0.0,0.0,0.0,0.0,-1.8467,-1.8859,-1.9244,-1.9244,-1.8779,-1.8517,-1.8517,-1.8517,-1.814,-1.7326,-1.6415,0.0,0.0,0.0,0.0,0.0,0.0,0.0,0.0,0.0,0.0,0.0,0.0,0.0,0.0,0.0,0.0,0.0,0.0,0.0,0.0,0.0,0.0,0.0,0.0,0.0,0.0,0.0,0.0,0.0,0.0,0.0,0.0,0.0,0.0,0.0,0.0,0.0,0.0,0.0,0.0,0.0,0.0,0.0,0.0,0.0,0.0,0.0,0.0,0.0,0.0,0.0,0.0,0.0,-2.703,-2.7501,-2.7583,-2.8666,-2.9155,-2.9063,-2.7319,-2.6193,-2.5531,0.0,0.0,0.0,0.0,0.0,0.0,0.0,0.0,0.0,0.0,0.0,0.0,0.0,0.0,0.0,0.0,0.0,0.0,0.0,0.0,0.0,0.0,0.0,0.0,0.0,-2.5814,-2.5446,0.0,0.0,0.0,0.0,0.0,0.0,0.0,0.0,0.0,0.0,0.0,0.0,-1.9682,-1.9979,-2.0248,-2.0248,-1.9455,-1.8863,-1.8764,-1.8686,-1.863,-1.8531,-1.7259,-1.6402,0.0,0.0,0.0,0.0,0.0,0.0,0.0,0.0,0.0,0.0,0.0,0.0,0.0,0.0,0.0,0.0,0.0,0.0,0.0,0.0,0.0,0.0,0.0,0.0,0.0,0.0,0.0,0.0,0.0,0.0,0.0,0.0,-2.428,-2.471,0.0,0.0,0.0,0.0,0.0,0.0,0.0,0.0,0.0,0.0,0.0,0.0,0.0,0.0,-2.6535,-2.8151,-2.9041,-2.9092,-3.0797,-3.161,-3.1625,-3.1842,-3.1566,-3.1052,-3.0722,0.0,-2.848,-2.8454,0.0,0.0,0.0,0.0,0.0,0.0,0.0,0.0,0.0,0.0,0.0,0.0,0.0,0.0,0.0,0.0,0.0,0.0,0.0,0.0,0.0,0.0,-2.6324,-2.6308,-2.6298,-2.6253,0.0,-2.5264,-2.4453,-2.3552,0.0,0.0,0.0,0.0,0.0,0.0,0.0,0.0,-2.0664,-2.1006,-2.1222,-2.1222,-2.0826,-2.0376,-1.9857,-1.948,-1.9053,-1.8545,-1.8302,-1.7605,-1.6336,-1.5984,0.0,0.0,0.0,0.0,0.0,0.0,0.0,0.0,0.0,0.0,0.0,0.0,0.0,0.0,0.0,0.0,0.0,0.0,0.0,0.0,0.0,0.0,0.0,0.0,0.0,0.0,0.0,0.0,0.0,-2.4712,-2.5573,-2.5775,-2.5672,-2.5385,0.0,0.0,0.0,0.0,0.0,0.0,0.0,0.0,0.0,-2.9137,-2.9029,-2.9301,-2.9999,-3.1201,-3.1799,-3.1814,-3.2977,-3.3567,-3.3567,-3.3567,-3.3398,-3.3121,-3.3121,-3.2496,-3.1359,-2.9739,-2.8728,-2.81,0.0,0.0,0.0,0.0,0.0,-2.7439,-2.8078,-2.8373,0.0,0.0,0.0,0.0,0.0,0.0,0.0,0.0,0.0,0.0,0.0,0.0,0.0,-2.752,-2.7519,-2.7519,-2.7519,-2.7179,-2.657,0.0,-2.487,-2.4291,-2.3468,0.0,0.0,0.0,0.0,0.0,-2.1972,-2.2107,-2.2229,-2.2229,-2.1617,-2.1076,-2.0812,-2.046,-1.9998,-1.9398,-1.9117,-1.857,-1.7591,-1.7194,-1.6349,0.0,0.0,0.0,0.0,0.0,0.0,0.0,0.0,0.0,0.0,0.0,0.0,0.0,0.0,0.0,0.0,0.0,0.0,0.0,0.0,0.0,0.0,0.0,0.0,0.0,0.0,0.0,0.0,-2.637,-2.7381,-2.7361,-2.8092,-2.8202,0.0,0.0,0.0,0.0,0.0,0.0,-2.9372,-2.9756,-3.0567,-3.1779,-3.181,-3.215,-3.2921,-3.3598,-3.3937,-3.3952,-3.4645,-3.4983,-3.4983,-3.4983,-3.4891,-3.4737,-3.4737,-3.4337,-3.3506,-3.109,-2.999,-2.969,-2.9048,-2.8808,-2.8771,-2.9054,-2.9249,-2.9474,-3.0123,-3.0355,-3.041,-3.0389,0.0,-2.9752,-2.8799,0.0,0.0,0.0,0.0,-2.8318,-2.8618,-2.8543,-2.8451,-2.8632,-2.8535,-2.8411,-2.8411,-2.8273,-2.7889,0.0,-2.6344,-2.581,-2.5213,0.0,0.0,0.0,0.0,-2.3771,-2.3402,-2.3288,-2.3279,-2.3279,-2.251,-2.1932,-2.1824,-2.1469,-2.1,-2.0404,-2.0065,-1.9729,-1.9259,-1.8761,-1.8368,-1.8029,0.0,0.0,0.0,0.0,0.0,0.0,0.0,0.0,0.0,0.0,0.0,0.0,0.0,0.0,0.0,0.0,0.0,0.0,0.0,0.0,0.0,0.0,0.0,0.0,0.0,0.0,0.0,0.0,0.0,-3.061,-3.116,0.0,0.0,0.0,0.0,-3.0626,-3.2214,-3.2946,-3.24,-3.3758,-3.4503,-3.4306,-3.4321,-3.4337,-3.4368,-3.5045,-3.5368,-3.5383,-3.6061,-3.6384,-3.6384,-3.6384,-3.6045,-3.543,-3.543,-3.5045,-3.4352,-3.3537,-3.2444,-3.1274,-3.1243,-3.0859,-3.0397,-3.1012,-3.1228,-3.1389,-3.2013,-3.2244,-3.2136,-3.1543,-3.0685,-2.975,-2.903,-2.8995,0.0,0.0,-2.9234,-2.989,-3.0191,-2.9797,-2.9319,-2.935,-2.8873,-2.8411,-2.8411,-2.7936,-2.7489,0.0,-2.7319,-2.7026,-2.6077,0.0,-2.5742,-2.5788,-2.5198,-2.4849,-2.5124,-2.4614,-2.4214,-2.4214,-2.3876,-2.3435,-2.2858,-2.248,-2.1975,-2.138,-2.1296,-2.1281,-2.1252,-2.0913,-2.0239,-1.915,-1.8673,0.0,0.0,0.0,0.0,0.0,0.0,0.0,0.0,0.0,0.0,0.0,0.0,0.0,0.0,0.0,0.0,0.0,0.0,0.0,0.0,0.0,0.0,0.0,0.0,0.0,0.0,0.0,0.0,-3.3077,-3.3955,0.0,0.0,-3.3623,-3.3748,-3.4538,-3.5598,-3.6258,-3.6182,-3.7132,-3.7277,-3.6397,-3.6836,-3.6852,-3.6338,-3.6573,-3.6654,-3.6459,-3.6707,-3.6816,-3.6816,-3.6616,-3.6492,-3.6443,-3.626,-3.5753,-3.5076,-3.4383,-3.3537,-3.2644,-3.2198,-3.189,-3.172,-3.1951,-3.2028,-3.2074,-3.2305,-3.2398,-3.2351,-3.2105,-3.1519,-3.0835,-3.0572,-3.0251,-2.9974,-2.9875,-3.001,-3.0273,-3.0366,-3.0243,-3.0058,-3.0058,-2.955,-2.9058,-2.9058,-2.8519,-2.809,-2.8042,-2.7735,-2.7288,-2.6748,-2.6764,-2.6626,-2.6077,-2.5925,-2.5862,-2.592,-2.5379,-2.4948,-2.4948,-2.4055,-2.357,-2.3769,-2.3085,-2.2559,-2.2374,-2.214,-2.1824,-2.1395,-2.1917,-2.198,-2.1602,-2.2137,-2.0848,0.0,0.0,0.0,0.0,0.0,0.0,0.0,0.0,0.0,0.0,0.0,0.0,0.0,0.0,0.0,0.0,0.0,0.0,0.0,0.0,0.0,0.0,0.0,0.0,0.0,0.0,-3.5399,-3.5514,-3.6821,-3.7469,-3.6818,-3.688,-3.7277,-3.8065,-3.8672,-3.9029,-3.9048,-3.9428,-3.9259,-3.8204,-3.8349,-3.8239,-3.778,-3.7528,-3.7314,-3.7105,-3.706,-3.7015,-3.7015,-3.6616,-3.6616,-3.6816,-3.6693,-3.6369,-3.5768,-3.5195,-3.4558,-3.3831,-3.2807,-3.2398,-3.2398,-3.2398,-3.2398,-3.2398,-3.2398,-3.2398,-3.2398,-3.2398,-3.209,-3.169,-3.1459,-3.1243,-3.1043,-3.0812,-3.092,-3.1089,-3.1089,-3.092,-3.0751,-3.0751,-3.0243,-2.975,-2.975,-2.9396,-2.9027,-2.8796,-2.8244,-2.7703,-2.7514,-2.7624,-2.7471,-2.6714,-2.6673,-2.6657,-2.6474,-2.5998,-2.5672,-2.5672,-2.4656,-2.4071,-2.4287,-2.3459,-2.2945,-2.3021,-2.2775,-2.2518,-2.2389,-2.2461,-2.2524,-2.2607,-2.3412,-2.2271,-1.9142,0.0,0.0,0.0,0.0,0.0,0.0,0.0,0.0,0.0,0.0,0.0,0.0,0.0,0.0,0.0,0.0,0.0,0.0,0.0,0.0,0.0,0.0,0.0,-3.4005,-3.6192,-3.8016,-3.8162,-3.979,-4.0656,-3.995,-3.996,-4.0375,-4.1221,-4.1418,-4.1302,-4.0843,-4.0802,-4.0464,-3.9706,-3.8932,-3.8584,-3.8552,-3.7872,-3.7464,-3.7449,-3.7197,-3.703,-3.7015,-3.6677,-3.6554,-3.6554,-3.6877,-3.6816,-3.6507,-3.6084,-3.5517,-3.4769,-3.3064,-3.2413,-3.2398,-3.2398,-3.2398,-3.2398,-3.2398,-3.2398,-3.2398,-3.2398,-3.2398,-3.2275,-3.1613,-3.1874,-3.2259,-3.1597,-3.189,-3.2398,-3.2398,-3.1905,-3.1413,-3.1413,-3.092,-3.0458,-3.0458,-3.0428,-3.0228,-2.955,-2.8889,-2.8427,-2.8381,-2.8396,-2.825,-2.786,-2.7588,0.0,-2.6829,-2.6565,-2.6411,-2.6411,-2.5689,-2.4983,-2.4384,-2.3653,-2.3268,-2.3354,-2.3308,-2.3551,-2.4261,-2.2683,-2.1902,-2.2087,-2.2239,-2.1895,-2.1068,0.0,0.0,0.0,0.0,0.0,0.0,0.0,0.0,0.0,0.0,0.0,0.0,0.0,0.0,0.0,0.0,0.0,0.0,0.0,0.0,0.0,0.0,-3.9075,-3.8614,-4.0203,-4.2005,-4.3647,-4.3912,-4.3919,-4.3731,-4.332,-4.3184,-4.3426,-4.3494,-4.3333,-4.2918,-4.2996,-4.2411,-4.0792,-4.0728,-4.0482,-3.9967,-3.9758,-3.9285,-3.8567,-3.8464,-3.8193,-3.7669,-3.7314,-3.7298,-3.7535,-3.7373,-3.7254,-3.7131,-3.6499,-3.575,-3.4815,-3.3886,-3.3193,-3.2773,-3.2773,-3.2594,-3.2398,-3.2398,-3.2398,-3.2398,-3.2398,-3.2398,-3.2367,-3.2167,-3.2244,-3.2351,-3.2167,-3.2259,-3.2398,-3.2398,-3.2259,-3.2121,-3.2121,-3.1597,-3.112,-3.112,-3.0751,-3.0228,-2.955,-2.9258,-2.8827,-2.7842,-2.8088,-2.8194,-2.7592,-2.7887,0.0,-2.7959,-2.7472,-2.6964,-2.6527,-2.5017,-2.4354,-2.5093,-2.4148,-2.3844,-2.4691,-2.4747,-2.4597,-2.4333,-2.3963,-2.3938,-2.4182,-2.2892,-2.2174,0.0,0.0,0.0,0.0,0.0,0.0,0.0,0.0,0.0,0.0,0.0,0.0,0.0,0.0,0.0,0.0,0.0,0.0,0.0,0.0,0.0,0.0,-4.0658,-4.2447,-4.334,-4.3974,-4.4988,-4.6601,-4.6467,-4.6264,-4.6264,-4.5922,-4.5717,-4.5717,-4.5717,-4.5557,-4.5103,-4.4949,-4.4181,-4.264,-4.2183,-4.1678,-4.095,-4.0642,-4.0227,-3.9585,-3.9193,-3.8766,-3.8334,-3.7662,-3.7535,0.0,-3.7637,-3.7535,-3.7385,-3.715,-3.6505,0.0,0.0,0.0,0.0,0.0,-3.2812,-3.2398,-3.2578,-3.2523,-3.2398,-3.2398,-3.2398,-3.2398,-3.2398,-3.2398,-3.2398,-3.2398,-3.2398,-3.2398,-3.2398,-3.2398,-3.2398,-3.2398,-3.209,-3.1813,-3.1813,-3.1505,-3.1043,-3.0366,0.0,0.0,-2.8473,-2.8334,-2.8117,-2.7222,-2.7854,-2.824,-2.774,-2.7777,-2.7701,-2.7319,-2.6046,-2.5379,-2.5833,-2.4897,0.0,0.0,0.0,-2.4941,-2.4275,-2.4429,0.0,0.0,0.0,-2.3644,-2.4085,0.0,0.0,0.0,-2.0937,-2.0523,0.0,0.0,0.0,0.0,0.0,0.0,0.0,0.0,0.0,0.0,0.0,0.0,0.0,0.0,0.0,0.0,-4.3219,-4.5561,-4.7786,-4.7596,-4.7424,-4.7907,-4.7976,-4.7941,-4.7838,-4.7838,-4.7803,-4.7717,-4.7717,-4.7533,-4.7084,0.0,0.0,0.0,0.0,-4.2456,-4.1808,-4.1096,-4.0691,-4.061,-3.9698,-3.9209,-3.9033,-3.8066,-3.7614,-3.7535,-3.7828,-3.777,-3.7535,-3.7828,-3.7575,-3.6862,-3.5872,-3.4549,-3.3224,-3.3477,-3.3192,-3.2739,-3.2967,0.0,0.0,-3.2484,-3.2453,-3.2398,-3.2398,-3.2398,-3.2398,-3.2398,-3.2398,-3.2398,-3.2398,-3.2398,-3.2398,-3.2398,-3.2398,-3.2398,-3.2398,-3.2398,-3.2198,-3.152,-3.1382,-3.0997,-2.9735,-2.8965,-2.8097,-2.6968,-2.7695,-2.8005,-2.6937,-2.771,-2.8348,-2.8299,0.0,0.0,-2.655,-2.5783,-2.5422,-2.5536,-2.5424,-2.5086,-2.4537,-2.4567,-2.4702,-2.4909,-2.517,-2.567,-2.6414,-2.6703,-2.6474,-2.5718,-2.191,-2.1175,0.0,0.0,0.0,0.0,0.0,0.0,0.0,0.0,0.0,0.0,0.0,0.0,0.0,0.0,0.0,-4.3852,-4.6295,-4.8528,-5.0218,-5.0838,-5.0752,-4.9683,-4.9562,-4.9304,-4.8665,-4.8614,-4.8355,-4.7751,-4.7717,-4.7662,-4.7589,-4.6718,0.0,-4.5901,-4.4341,-4.3427,-4.3298,-4.2569,-4.1921,-4.1355,0.0,0.0,-3.9418,-3.9214,-3.8769,-3.8221,-3.8278,-3.8278,-3.8205,-3.8278,-3.8254,-3.7939,-3.6341,-3.5489,-3.5211,-3.5047,-3.4729,-3.4369,-3.414,-3.3661,-3.3177,-3.2889,-3.2648,-3.2398,-3.2398,-3.2398,0.0,-3.2398,-3.2398,-3.2398,-3.2398,-3.2398,-3.2398,-3.2398,-3.2398,-3.2398,-3.2398,-3.2398,-3.2198,-3.152,-3.1382,-3.1136,-3.0351,-2.9673,-2.8747,-2.7471,-2.7917,-2.8117,-2.7363,-2.7933,-2.8186,-2.773,-2.7142,-2.6916,-2.7259,-2.6696,-2.6542,-2.6949,-2.6443,-2.6257,-2.6467,-2.6147,-2.6295,-2.6867,-2.6725,-2.6809,-2.7192,-2.7372,-2.7446,-2.7267,-2.5305,-2.4639,0.0,0.0,0.0,0.0,0.0,0.0,0.0,0.0,0.0,0.0,0.0,-4.0408,0.0,0.0,-4.5617,-4.7253,-4.8879,-5.0373,-5.1511,-5.1994,-5.1942,-5.12,-5.0787,-5.0407,-5.0011,-4.9631,-4.9269,-4.889,-4.8855,-4.8724,-4.846,-4.7696,-4.702,-4.642,-4.531,-4.4593,-4.4253,-4.3524,-4.3168,-4.3168,-4.2083,-4.1387,-4.1031,-3.9962,-3.9282,-3.8926,-3.8553,-3.8391,-3.8391,-3.8391,-3.8391,-3.8327,-3.7415,-3.6805,-3.6286,-3.595,-3.5308,-3.4596,-3.4539,-3.4029,-3.3302,-3.3006,-3.2773,-3.2648,-3.2453,-3.2398,-3.2398,-3.2398,-3.2398,-3.2398,-3.2398,-3.2398,-3.2398,-3.2398,-3.2398,-3.2398,-3.2398,-3.2398,-3.229,-3.1951,-3.189,-3.1782,-3.1459,-3.0843,-2.995,-2.8611,-2.8704,-2.8673,-2.7996,-2.7904,-2.7915,-2.7929,-2.7367,-2.7246,-2.7898,-2.7655,-2.7666,-2.8015,-2.7752,-2.7688,-2.8018,-2.7989,-2.8123,-2.8458,-2.8458,-2.834,-2.8114,-2.8197,-2.8061,-2.7688,-2.6992,-2.6668,0.0,0.0,0.0,0.0,0.0,0.0,0.0,0.0,-4.0459,-4.1478,-4.3095,-4.463,-4.5634,-4.7381,-4.9073,-5.0039,-5.0976,-5.177,-5.2356,-5.258,-5.2597,-5.2459,-5.1787,-5.1269,-5.1132,-5.0562,-5.0149,-5.0011,-5.0011,-4.9801,-4.9394,-4.8731,-4.7958,-4.7009,-4.6207,-4.5548,-4.4998,-4.4285,-4.414,-4.4561,-4.2812,-4.2148,-4.2359,-4.0658,-3.9816,-3.9638,-3.8926,-3.8521,-3.8391,-3.8391,-3.8391,-3.8391,-3.8391,-3.7867,-3.7135,-3.6809,-3.5979,-3.5054,-3.5214,-3.4638,-3.3754,-3.3395,-3.3208,-3.3014,-3.2624,-3.2523,-3.2453,-3.2398,-3.2398,-3.2398,-3.2398,-3.2398,-3.2398,-3.2398,-3.2398,-3.2398,-3.2398,-3.2398,-3.2398,-3.2398,-3.2398,-3.2398,-3.2398,-3.1936,-3.1136,-2.9812,-2.9612,-2.9319,-2.8504,-2.8042,-2.7904,-2.8181,-2.7719,-2.7611,-2.8165,-2.8334,-2.8493,-2.8653,-2.87,-2.8826,-2.9075,-2.9305,-2.947,-2.9576,-2.9726,-2.9583,-2.9,-2.9,-2.8692,-2.8126,-2.798,-2.785,-3.5941,-3.642,0.0,-3.9491,-3.9915,-4.0747,0.0,0.0,-4.4898,-4.6539,-4.7038,-4.7451,-4.8247,-4.916,-5.0056,-5.0873,-5.2201,-5.3166,-5.3253,-5.3839,-5.4011,-5.3356,-5.258,-5.1839,-5.1166,-5.1045,-5.0718,-5.0062,-5.0011,-4.9935,-4.9935,-4.8934,-4.8303,-4.8236,-4.6635,-4.5759,-4.5694,-4.5014,-4.4383,-4.3832,-4.3589,-4.2844,-4.1678,-4.1452,-4.0998,-4.0335,-3.9654,-3.9007,-3.8391,-3.8391,-3.8391,-3.8391,-3.8391,-3.8359,-3.8222,-3.8197,-3.7858,-3.7438,-3.7125,-3.6405,-3.5493,-3.4838,-3.4209,-3.3661,-3.3014,-3.2843,-3.2773,-3.2453,-3.2398,-3.2398,-3.2398,-3.2398,-3.2398,-3.2398,-3.2398,-3.2398,-3.2398,-3.2398,-3.2398,-3.2398,-3.2398,-3.2398,-3.2398,-3.2336,-3.1828,-3.0505,-3.0304,-2.9843,-2.8565,-2.8858,-2.8765,-2.7626,-2.7442,-2.7426,-2.7503,-2.8057,-2.8396,-2.8444,-2.8605,-2.8826,-2.9075,-2.9121,-2.935,-2.9874,-2.9665,-2.9633,-2.9789,-2.9789,-2.974,-2.9659,-2.8968,-2.832,-3.8601,0.0,0.0,0.0,-4.3271,-4.4403,-4.6318,-4.6986,-4.7606,-4.8764,-4.9735,-5.058,-5.1338,-5.2114,-5.2735,0.0,-5.3632,-5.4046,-5.4046,-5.3942,-5.358,-5.2804,-5.2408,-5.1925,-5.1183,-5.0718,-5.0338,-5.0028,-5.0011,-4.9742,-4.9073,-4.8668,-4.8161,-4.7522,-4.6841,-4.6439,-4.6439,-4.5726,-4.5435,-4.5548,-4.4302,-4.3622,-4.3395,-4.2148,-4.095,-3.9865,-3.9153,-3.8683,-3.8391,-3.8391,-3.8391,-3.8391,-3.8391,-3.8391,-3.8391,-3.8391,-3.806,-3.7544,-3.7365,-3.6773,-3.6063,-3.555,-3.5086,-3.4722,-3.4423,-3.4123,-3.3764,-3.3401,-3.315,-3.2982,-3.2982,-3.269,-3.249,-3.289,-3.2675,-3.2505,-3.2906,-3.2675,-3.2505,-3.2906,-3.2659,-3.2398,-3.2398,-3.2398,-3.2213,-3.1659,-3.1228,-3.0782,-3.0212,-2.9366,-2.8352,-2.7132,-2.7333,-2.7471,-2.7172,-2.7795,-2.8186,-2.8186,-2.8654,-2.9075,-2.9305,-2.9335,-2.9531,-2.9902,-2.977,-2.977,-2.9918,-2.9918,-2.9918,-2.9902,-2.9594,-2.9243,-4.0389,0.0,0.0,-4.4939,-4.67,-4.8096,-4.9062,-4.9855,-5.0562,-5.1132,-5.1942,-5.2718,-5.3304,-5.3839,0.0,-5.4201,-5.4374,-5.4443,-5.4236,-5.3563,-5.2701,-5.1718,-5.1425,-5.1063,-5.0528,-5.039,-5.0235,-5.0028,-5.0066,-4.9718,-4.8988,-4.8654,-4.8134,-4.7427,-4.7042,-4.6876,-4.6876,-4.6358,-4.6261,-4.6568,-4.4836,-4.4172,-4.4431,-4.2472,-4.0901,-3.9719,-3.9007,-3.8586,-3.8391,-3.8391,-3.8391,-3.8391,-3.8391,-3.8391,-3.8391,-3.8391,-3.8068,-3.7614,-3.7614,-3.7235,-3.6658,-3.6307,-3.6023,-3.5728,-3.5482,-3.508,-3.4659,-3.4203,-3.3877,-3.369,-3.369,-3.3336,-3.309,-3.3583,-3.3321,-3.3106,-3.3598,-3.3152,-3.2813,-3.3306,-3.2859,-3.2398,-3.2398,-3.2398,-3.2398,-3.2398,-3.1982,-3.1597,-3.1413,-2.9812,-2.8352,-2.7504,-2.7968,-2.8123,-2.7803,-2.846,-2.89,-2.89,-2.9406,-2.9705,-2.979,-2.9774,-2.9814,-2.9918,-2.9918,-2.9918,-2.9918,-2.9918,-2.9918,-2.9918,-2.9918,-2.9918,0.0,0.0,-4.459,-4.7683,-4.9705,-5.1373,-5.2891,-5.3804,-5.4339,-5.4374,-5.3839,-5.3373,-5.3408,-5.3425,-5.3442,-5.3442,-5.4046,-5.4253,-5.3529,-5.2753,-5.1718,-5.0252,-4.939,-4.8907,0.0,-5.0218,-5.0787,-5.0062,-5.0171,-5.0272,-5.0255,-4.9243,-4.8709,-4.8641,-4.7509,-4.6876,-4.6876,-4.686,-4.6504,-4.5824,-4.5111,-4.4399,-4.3686,-4.2229,-4.1177,-4.0415,-3.9735,-3.9055,-3.8391,-3.8391,-3.8391,-3.8391,-3.8391,-3.8391,-3.8391,-3.8391,-3.8391,-3.8375,-3.8375,-3.8157,-3.7767,-3.739,-3.7037,-3.6614,-3.5696,-3.5394,-3.5266,-3.462,-3.4503,-3.4445,-3.4445,-3.4429,-3.4414,-3.4429,-3.4429,-3.4414,-3.4429,-3.3875,-3.3383,-3.3398,-3.2859,-3.2398,-3.2398,-3.2398,-3.2398,-3.2398,-3.2382,-3.2121,-3.1474,-3.0212,-2.9366,-2.9319,-2.9568,-2.9748,-2.9732,-3.0588,-3.1114,-3.1114,-3.1112,-3.0957,-3.0574,-3.051,-3.0266,-2.9935,-2.9918,-2.9918,-2.9918,-2.9918,-2.9918,-2.9918,-2.9918,-2.9918,-4.2791,0.0,-4.8318,-5.0445,-5.2536,-5.4236,-5.4753,-5.5063,-5.496,-5.3977,-5.3105,-5.2293,-5.1855,-5.1279,-5.1262,-5.2276,-5.276,-5.308,-5.3356,-5.3166,-5.2063,-4.9528,-4.9459,0.0,0.0,0.0,0.0,-4.9993,-5.0205,-5.0147,-4.9813,-4.9061,-4.8554,-4.8258,-4.7334,-4.6876,-4.6876,-4.6876,-4.6763,-4.6504,-4.5338,-4.4156,-4.2941,-4.15,-4.0723,-4.0432,-3.9266,-3.8634,-3.8391,-3.8391,-3.8391,-3.8391,-3.8391,-3.8391,-3.8391,-3.8391,-3.8391,-3.8391,-3.8391,-3.8335,-3.823,-3.8044,-3.7778,-3.7486,-3.7407,-3.71,-3.6585,-3.5938,-3.558,-3.5419,-3.5197,-3.4814,-3.4583,-3.5045,-3.4799,-3.4599,-3.5045,-3.4599,-3.4245,-3.4691,-3.4229,-3.3629,-3.3152,-3.3059,-3.2906,-3.2459,-3.2398,-3.2151,-3.1474,-3.0997,-3.0521,-2.9953,-2.994,-2.9943,-2.9886,-3.0571,-3.0941,-3.0815,-3.1198,-3.139,-3.1262,-3.0814,-3.0555,-3.0571,-3.0117,-2.9918,-2.9918,-2.9918,-2.9918,-2.9918,-2.9918,-2.9918,-4.5552,-4.8547,-5.1511,-5.3408,-5.515,-5.6357,-5.6098,-5.5615,-5.4718,-5.2942,-5.1838,-5.0858,-4.9862,-4.9262,-4.933,-5.0566,-5.0892,-5.1373,-5.2442,-5.2114,-5.1132,-4.9441,-4.9217,0.0,0.0,0.0,0.0,-4.9942,-5.0444,-5.0473,-4.9923,-4.9392,-4.8879,-4.8366,-4.741,-4.6876,-4.6876,-4.6876,-4.6633,-4.6131,-4.5225,-4.4043,-4.2522,-4.1144,-4.0496,-4.0415,-3.9007,-3.8391,-3.8391,-3.8391,-3.8391,-3.8391,-3.8391,-3.8391,-3.8391,-3.8391,-3.8391,-3.8391,-3.8391,-3.8391,-3.8391,-3.8391,-3.8262,-3.8075,-3.8205,-3.7902,-3.744,-3.6938,-3.6519,-3.6253,-3.6088,-3.5643,-3.5306,-3.5737,-3.5507,-3.5306,-3.5753,-3.5306,-3.4968,-3.5399,-3.4937,-3.4321,-3.386,-3.3567,-3.3167,-3.249,-3.2398,-3.2228,-3.1797,-3.1859,-3.1694,-3.1165,-3.1255,-3.1374,-3.1289,-3.1754,-3.1966,-3.1839,-3.2159,-3.2287,-3.2128,-3.1598,-3.1293,-3.1269,-3.0619,-3.0247,-3.0247,-3.0032,-2.9918,-2.9918,-2.9918,-2.9918,-4.8942,-5.1796,-5.4149,-5.6322,-5.7409,-5.7736,-5.6874,-5.5495,-5.3753,-5.1459,-5.0187,-4.9039,0.0,0.0,-4.7597,-4.8421,-4.8724,-4.9424,-5.0959,-4.9976,-4.9355,0.0,0.0,0.0,0.0,0.0,0.0,-5.0062,0.0,-5.1136,-5.0693,-5.0171,-4.9616,-4.903,-4.767,-4.6925,-4.6876,-4.6876,-4.618,-4.4787,-4.4787,-4.4043,-4.2522,-4.1177,-4.0529,-4.0415,-3.9039,-3.8424,-3.8391,-3.8391,-3.8391,-3.8391,-3.8391,-3.8391,-3.8391,-3.8391,-3.8391,-3.8391,-3.8391,-3.8391,-3.8391,-3.8391,-3.8391,-3.8335,-3.8001,-3.7943,-3.7886,-3.7535,-3.727,-3.706,-3.6999,-3.6754,-3.6554,-3.6554,-3.6492,-3.6492,-3.6492,-3.5984,-3.5537,-3.5537,-3.4983,-3.4506,-3.4534,-3.3875,-3.3167,-3.249,-3.2398,-3.2398,-3.2398,-3.2703,-3.2912,-3.2897,-3.3398,-3.371,-3.3694,-3.3949,-3.4101,-3.4101,-3.3848,-3.3558,-3.3161,-3.2819,-3.2433,-3.2077,-3.1348,-3.0914,-3.0881,-3.0247,-2.9951,-2.9918,-2.9918,-2.9918,-5.1589,-5.4598,-5.6891,-5.7478,-5.8185,-5.8099,-5.565,-5.3908,-5.2149,-4.9873,-4.7665,-4.596,0.0,0.0,0.0,-4.7477,-4.8845,0.0,-5.1718,-5.258,0.0,0.0,0.0,-5.0925,-5.0562,-5.0528,0.0,0.0,-5.1091,-5.101,-5.1413,-5.0582,-4.9726,-4.903,-4.8171,-4.7459,-4.6892,-4.6876,-4.618,-4.4787,-4.4787,-4.4043,-4.2601,-4.1711,-4.0998,-4.0448,-3.9573,-3.8893,-3.8391,-3.8391,-3.8391,-3.8391,-3.8391,-3.8391,-3.8391,-3.8391,-3.8391,-3.8391,-3.8391,-3.8391,-3.8391,-3.8391,-3.8391,-3.8391,-3.8278,-3.8262,-3.8205,-3.7886,-3.7711,-3.761,-3.7373,-3.7089,-3.6877,-3.6877,-3.6677,-3.6492,-3.6492,-3.6353,-3.6245,-3.6245,-3.5691,-3.5179,-3.4829,-3.4032,-3.3239,-3.2827,-3.2578,-3.2398,-3.2398,-3.2703,-3.2951,-3.3203,-3.3503,-3.3797,-3.4,-3.405,-3.4101,-3.4101,-3.405,-3.3969,-3.3841,-3.329,-3.2935,-3.2821,-3.2109,-3.1461,-3.0881,-3.0749,-3.0393,-2.9918,-2.9918,-2.9918,-5.4046,-5.6857,-5.8754,-5.8081,-5.8219,-5.7736,-5.4655,-5.2182,-4.9946,-4.7619,-4.572,0.0,0.0,0.0,0.0,0.0,0.0,0.0,-5.1373,-5.2477,-5.2787,0.0,-5.2166,0.0,-5.1632,-5.1597,-5.1908,0.0,-5.1932,-5.1497,-5.1698,-5.0916,-5.0033,-4.9046,-4.8366,-4.7653,-4.6892,-4.6876,-4.618,-4.4787,-4.4787,-4.4043,-4.2601,-4.1889,-4.1355,-4.0917,0.0,-3.925,-3.8877,-3.8877,-3.8877,-3.891,-3.9201,-3.9314,-3.9314,-3.9314,-3.9314,-3.9266,-3.8974,-3.8877,-3.8812,-3.8505,-3.8391,-3.8391,-3.8391,-3.8391,-3.8335,-3.8205,-3.8001,-3.7886,-3.7653,-3.7373,-3.715,-3.715,-3.6923,-3.6693,-3.6693,-3.6616,-3.6492,-3.6492,-3.6307,-3.5949,-3.5412,-3.5018,-3.4535,-3.4101,-3.3545,-3.3216,-3.3216,-3.3161,-3.315,-3.3293,-3.3658,-3.3949,-3.4101,-3.4101,-3.4101,-3.4101,-3.4101,-3.4101,-3.4101,-3.3744,-3.3534,-3.3534,-3.2838,-3.2125,-3.1396,-3.1043,-3.0571,-2.9918,-2.9918,-2.9918,-5.615,-5.853,-5.9806,-5.8167,-5.7598,-5.6567,-5.3324,-5.0231,-4.7391,-4.5169,0.0,-4.2909,-4.1715,0.0,-4.2398,-4.4816,0.0,-4.7027,-5.0735,-5.1356,-5.1942,-5.3391,-5.2942,-5.2528,-5.2528,-5.2528,-5.2743,-5.3369,-5.2908,-5.2352,-5.1865,-5.1243,-5.033,-4.9046,-4.8269,-4.7556,-4.6892,-4.6876,-4.6228,-4.4917,-4.4836,-4.4091,-4.2747,-4.2035,-4.1662,-4.15,0.0,0.0,-3.9606,-3.9606,-3.9606,-3.9671,-4.0254,-4.0496,-4.0496,-4.0496,-4.0496,-4.0383,-3.9719,-3.9476,-3.9363,-3.8634,-3.8391,-3.8391,-3.8391,-3.8391,-3.8391,-3.8391,-3.8205,-3.7943,-3.7943,-3.7711,-3.7476,-3.7476,-3.727,-3.706,-3.706,-3.6816,-3.6554,-3.6492,-3.6754,-3.6781,-3.6107,-3.6216,-3.6194,-3.5554,-3.4802,-3.4288,-3.4288,-3.3757,-3.3346,-3.3346,-3.3797,-3.4101,-3.4101,-3.4101,-3.4101,-3.4101,-3.4101,-3.4101,-3.4101,-3.4101,-3.4101,-3.4101,-3.3518,-3.2821,-3.2012,-3.138,-3.0652,-2.9918,-2.9999,-2.9999,-5.7064,-5.8926,-5.9685,-5.7529,-5.6029,-5.4069,-5.0265,-4.703,0.0,0.0,0.0,-4.0898,-4.084,-4.1285,0.0,-4.4939,0.0,0.0,0.0,0.0,-5.3339,0.0,0.0,0.0,0.0,0.0,0.0,0.0,0.0,0.0,-5.2635,-5.1678,-5.0448,-4.9062,-4.7751,-4.7022,-4.6876,-4.6876,-4.6455,-4.5613,-4.5063,-4.435,-4.3492,-4.278,-4.2132,-4.1565,0.0,0.0,-4.0318,-4.0318,-4.0318,-4.0335,-4.0448,-4.0496,-4.0496,-4.0496,-4.0496,-4.0383,-3.9719,-3.9476,-3.9363,-3.8634,-3.8391,-3.8391,-3.8391,-3.8391,-3.8391,-3.8391,-3.8335,-3.8335,-3.8335,-3.8075,-3.7828,-3.7828,-3.7594,-3.7298,-3.7298,-3.7089,-3.6816,-3.6554,-3.6754,-3.6841,-3.6358,-3.6332,-3.6251,-3.5815,-3.4895,-3.4288,-3.4288,-3.3916,-3.3642,-3.3642,-3.3899,-3.4101,-3.4101,-3.4101,-3.4101,-3.4101,-3.4101,-3.4101,-3.4101,-3.4101,-3.4101,-3.4101,-3.3987,-3.3291,-3.2012,-3.1882,-3.1137,-2.9918,-3.0474,-3.0425,-5.7391,-5.903,-5.9547,-5.6857,-5.5046,-5.2863,-4.8867,0.0,0.0,0.0,-4.1019,-4.0238,-4.0453,0.0,0.0,0.0,0.0,0.0,0.0,0.0,0.0,0.0,0.0,0.0,0.0,0.0,0.0,0.0,0.0,0.0,-5.2416,-5.1312,-5.0131,-4.9046,-4.8026,-4.7281,-4.6876,-4.6876,-4.652,-4.5791,-4.5111,-4.4415,-4.3686,-4.2958,-4.2439,-4.2099,-4.1727,0.0,-4.1047,-4.1047,-4.1047,-4.1096,-4.1468,-4.1598,-4.1598,-4.1598,-4.1598,-4.1452,-4.0383,-4.0011,-3.9833,-3.8748,-3.8391,-3.8391,-3.8391,-3.8391,-3.8391,-3.8391,-3.8391,-3.8391,-3.8391,-3.8262,-3.8148,-3.8148,-3.7886,-3.7578,-3.7417,-3.7314,-3.715,-3.7013,-3.7254,-3.7397,-3.7223,-3.7348,-3.7407,-3.7166,-3.6396,-3.5838,-3.5838,-3.5069,-3.4266,-3.3742,-3.3949,-3.4101,-3.4101,-3.4101,-3.4101,-3.4101,-3.4101,-3.4101,-3.4101,-3.4101,-3.4101,-3.4101,-3.4101,-3.3404,-3.2012,-3.2012,-3.1461,-3.0425,-3.0765,-3.0943,-5.7047,-5.865,-5.9219,-5.6133,-5.4011,-5.1658,-4.7763,-4.4502,0.0,0.0,-4.0544,-4.0138,-4.0305,0.0,0.0,0.0,0.0,0.0,0.0,0.0,0.0,0.0,0.0,0.0,0.0,0.0,0.0,0.0,0.0,0.0,0.0,-5.0766,-4.9775,-4.9046,-4.8366,-4.7653,-4.6892,-4.6876,-4.6601,-4.6034,-4.5338,-4.4642,-4.3913,-4.3184,-4.278,-4.2601,-4.2035,0.0,0.0,-4.1792,-4.1792,-4.1857,-4.2407,-4.2634,-4.2634,-4.2634,-4.2634,-4.2423,-4.0998,-4.0496,-4.027,-3.8861,-3.8391,-3.8391,-3.8391,-3.8391,-3.8391,-3.8391,-3.8391,-3.8391,-3.8391,-3.8391,-3.8391,-3.8391,-3.8205,-3.7902,-3.7594,-3.7535,-3.7476,-3.7417,-3.7653,-3.7886,-3.7886,-3.8205,-3.8391,-3.8391,-3.7776,-3.7323,-3.7323,-3.606,-3.4907,-3.4101,-3.4097,-3.4101,-3.4101,-3.4101,-3.4101,-3.4101,-3.4101,-3.4101,-3.4101,-3.4101,-3.4101,-3.4101,-3.4101,-3.3485,-3.2238,-3.2238,-3.1866,-3.1154,-3.1316,-3.1607,-5.5598,-5.7443,-5.8392,-5.5374,-5.2442,-4.9436,-4.6175,0.0,0.0,-4.0407,-4.0239,-4.0138,-4.0305,-4.0305,-4.0865,0.0,0.0,-4.4633,0.0,0.0,0.0,0.0,0.0,0.0,0.0,0.0,0.0,0.0,0.0,0.0,0.0,-5.0503,-4.9775,-4.9046,-4.8366,-4.7653,-4.6892,-4.6876,-4.686,-4.6779,-4.605,-4.5354,-4.4658,-4.3945,-4.3249,-4.2634,0.0,0.0,0.0,-4.2537,-4.2537,-4.2537,-4.2601,-4.2634,-4.2634,-4.2634,-4.2634,-4.2423,-4.0998,-4.0496,-4.027,-3.8861,-3.8391,-3.8391,-3.8391,-3.8391,-3.8391,-3.8391,-3.8391,-3.8391,-3.8391,-3.8391,-3.8391,-3.8391,-3.8391,-3.8262,-3.7943,-3.787,-3.777,-3.7476,-3.7653,-3.7886,-3.7886,-3.8205,-3.8391,-3.8391,-3.7776,-3.7323,-3.7323,-3.606,-3.5153,-3.5088,-3.4489,-3.4101,-3.4101,-3.4101,-3.4101,-3.4101,-3.4101,-3.4101,-3.4101,-3.4101,-3.4101,-3.4101,-3.4101,-3.3744,-3.2983,-3.2983,-3.2611,-3.1931,-3.2579,-3.2579,-5.3942,-5.5943,-5.7064,-5.4477,-5.1545,-4.8557,-4.5831,0.0,0.0,-3.9776,-3.9593,-3.9527,-3.9527,-3.9527,-4.0018,-4.1579,0.0,0.0,0.0,0.0,0.0,0.0,0.0,0.0,0.0,0.0,0.0,0.0,0.0,0.0,0.0,-5.0487,-4.9775,-4.9046,-4.8366,-4.7653,-4.6892,-4.6876,-4.6876,-4.6876,-4.6147,-4.5662,-4.5386,-4.4674,-4.4204,-4.3929,0.0,0.0,0.0,-4.3751,-4.3411,-4.2603,-4.3103,-4.3022,-4.2634,-4.2634,-4.2634,-4.2423,-4.0998,-4.0496,-4.027,-3.8861,-3.8391,-3.8391,-3.8391,-3.8391,-3.8391,-3.8391,-3.8391,-3.8391,-3.8391,-3.8391,-3.8391,-3.8391,-3.8391,-3.8335,-3.8205,-3.8205,-3.8148,-3.8033,-3.8091,-3.8205,-3.8205,-3.8335,-3.8391,-3.8391,-3.8149,-3.797,-3.797,-3.7096,-3.6303,-3.5898,-3.4797,-3.4101,-3.4101,-3.4101,-3.4101,-3.4101,-3.4101,-3.4101,-3.4101,-3.4101,-3.4101,-3.4101,-3.4101,-3.3761,-3.308,-3.308,-3.2935,-3.2659,-3.2951,-3.3145,-5.1925,-5.4063,-5.5305,-5.3235,-5.0597,-4.7834,0.0,0.0,0.0,-3.9399,-3.9061,-3.888,-3.9003,-3.8988,-3.9411,-4.0663,-4.1155,-4.1852,0.0,0.0,0.0,0.0,0.0,0.0,0.0,0.0,0.0,0.0,0.0,0.0,0.0,-5.044,-4.9693,-4.903,-4.8366,-4.7653,-4.6892,-4.6876,-4.6876,-4.6876,-4.6358,-4.6002,-4.5775,-4.5095,-4.4787,-4.4771,0.0,0.0,0.0,-4.4043,-4.3557,-4.2682,-4.3184,-4.3087,-4.2634,-4.2634,-4.2488,-4.2148,-4.0917,-4.0367,-3.9994,-3.878,-3.8391,-3.8391,-3.8391,-3.8391,-3.8391,-3.8391,-3.8391,-3.8391,-3.8391,-3.8391,-3.8391,-3.8391,-3.8391,-3.8391,-3.8391,-3.8391,-3.8391,-3.8391,-3.8391,-3.8391,-3.8391,-3.8391,-3.8391,-3.8391,-3.8391,-3.8391,-3.8391,-3.7776,-3.7128,-3.6659,-3.5493,-3.457,-3.4133,-3.4295,-3.4327,-3.4117,-3.4101,-3.4101,-3.4101,-3.4101,-3.4101,-3.4101,-3.4101,-3.3874,-3.3388,-3.3388,-3.3388,-3.3388,-3.3388,-3.3482,-4.9424,-5.1701,-5.3063,-5.1511,-4.9407,-4.7113,0.0,0.0,0.0,-3.9422,-3.8666,-3.8201,-3.8901,-3.8988,-3.9225,-3.9969,-4.0713,-4.151,0.0,0.0,0.0,0.0,0.0,0.0,0.0,0.0,0.0,0.0,0.0,0.0,0.0,0.0,-4.9583,-4.903,-4.8366,-4.7653,-4.6892,-4.6876,-4.6876,-4.6876,-4.6876,-4.6504,-4.5775,-4.5095,-4.4787,0.0,0.0,0.0,0.0,-4.2941,-4.2587,-4.2634,-4.2587,-4.2634,-4.2634,-4.2634,-4.218,-4.1468,-4.0739,-4.0059,-3.9379,-3.8634,-3.8391,-3.8391,-3.8391,-3.8391,-3.8391,-3.8391,-3.8391,-3.8391,-3.8391,-3.8391,-3.8391,-3.8391,-3.8391,-3.8391,-3.8391,-3.8391,-3.8391,-3.8391,-3.8391,-3.8391,-3.8391,-3.8391,-3.8391,-3.8391,-3.8391,-3.8391,-3.8391,-3.7776,-3.7323,-3.7307,-3.6691,-3.5687,-3.4214,-3.4764,-3.4862,-3.4149,-3.4101,-3.4101,-3.4101,-3.4101,-3.4101,-3.4101,-3.4101,-3.4101,-3.4084,-3.4084,-3.4084,-3.4084,-3.4084,-3.3507,-4.5751,-4.7769,-4.9286,-4.8286,-4.6682,-4.4906,-4.3113,0.0,0.0,-3.8208,-3.7678,-3.7592,-3.8218,-3.8292,-3.8698,-4.0034,-4.0866,-4.1478,0.0,0.0,0.0,0.0,0.0,0.0,0.0,0.0,0.0,0.0,0.0,0.0,0.0,0.0,-4.9229,-4.903,-4.7864,-4.7135,-4.6876,-4.6876,-4.6876,-4.6876,-4.6876,-4.6763,-4.6536,-4.6309,0.0,0.0,0.0,0.0,0.0,-4.469,-4.3945,-4.2682,-4.3168,-4.3055,-4.2634,-4.2634,-4.218,-4.1468,-4.0739,-4.0043,-3.9363,-3.8634,-3.8391,-3.8391,-3.8391,-3.8391,-3.8391,-3.8391,-3.8391,-3.8391,-3.8391,-3.8391,-3.8391,-3.8391,-3.8391,-3.8391,-3.8391,-3.8391,-3.8391,-3.8391,-3.8391,-3.8391,-3.8391,-3.8391,-3.8391,-3.8391,-3.8391,-3.8391,-3.8391,-3.8197,-3.7873,-3.7371,-3.7566,-3.695,-3.5007,-3.5056,-3.4878,-3.4149,-3.4101,-3.4101,-3.4101,-3.4101,-3.4101,-3.4101,-3.4101,-3.4101,-3.4101,-3.4101,-3.4101,-3.4101,-3.4101,-3.3507,0.0,-4.4251,-4.5441,-4.4975,-4.3923,0.0,0.0,0.0,0.0,0.0,0.0,-3.6956,-3.784,-3.7936,-3.8427,-3.9951,-4.0662,0.0,0.0,0.0,0.0,0.0,0.0,0.0,0.0,0.0,0.0,0.0,0.0,0.0,0.0,0.0,-4.9034,-4.8641,-4.7491,-4.6876,-4.6876,-4.6876,-4.6876,-4.6876,-4.6876,-4.6747,-4.6471,-4.6212,0.0,0.0,0.0,0.0,0.0,-4.4658,-4.3832,-4.2682,-4.3136,-4.286,-4.2229,-4.2229,-4.1614,-4.0723,-4.027,-3.9654,-3.9007,-3.8553,-3.8391,-3.8391,-3.8391,-3.8391,-3.8391,-3.8391,-3.8391,-3.8391,-3.8391,-3.8391,-3.8391,-3.8391,-3.8391,-3.8391,-3.8391,-3.8391,-3.8391,-3.8391,-3.8391,-3.8391,-3.8391,-3.8391,-3.8391,-3.8391,-3.8391,-3.8391,-3.8391,-3.8391,-3.823,-3.7776,-3.8132,-3.7744,-3.6125,-3.5995,-3.5558,-3.457,-3.4505,-3.4376,-3.4117,-3.4101,-3.4101,-3.4101,-3.4101,-3.4101,-3.4101,-3.4101,-3.4101,-3.4101,-3.3882,-3.3387,0.0,-4.1177,0.0,0.0,0.0,0.0,0.0,0.0,0.0,0.0,0.0,0.0,0.0,-3.8001,-3.8447,-3.9901,-4.0337,0.0,0.0,0.0,0.0,0.0,0.0,0.0,0.0,0.0,0.0,0.0,0.0,0.0,0.0,0.0,0.0,-4.7929,-4.7249,-4.6876,-4.6876,-4.6876,-4.6876,-4.6876,-4.6876,-4.6504,-4.5791,-4.516,0.0,0.0,0.0,0.0,0.0,-4.3265,-4.2682,-4.2634,-4.2634,-4.2229,-4.1646,-4.1598,-4.0723,-3.9557,-3.9557,-3.9055,-3.8391,-3.8391,-3.8391,-3.8391,-3.8391,-3.844,-3.8472,-3.8472,-3.8472,-3.8472,-3.8472,-3.844,-3.8391,-3.8391,-3.8391,-3.8391,-3.8391,-3.8391,-3.8391,-3.8391,-3.8391,-3.8391,-3.8391,-3.8391,-3.8391,-3.8391,-3.8391,-3.8391,-3.8391,-3.8391,-3.8391,-3.8391,-3.8391,-3.8116,-3.7452,-3.7355,-3.6724,-3.5347,-3.5218,-3.4878,-3.4214,-3.4133,-3.4101,-3.4101,-3.4101,-3.4101,-3.4101,-3.4101,-3.4101,-3.4101,-3.3527,-3.3251,-3.754,0.0,-3.9541,-3.9541,-3.9358,-3.8922,0.0,0.0,0.0,0.0,0.0,0.0,0.0,0.0,0.0,0.0,0.0,0.0,0.0,0.0,0.0,0.0,0.0,0.0,0.0,0.0,0.0,0.0,0.0,0.0,0.0,0.0,0.0,-4.7168,-4.6973,-4.6876,-4.6876,-4.6876,-4.6876,-4.6876,-4.6876,-4.6504,-4.5791,-4.5646,0.0,0.0,0.0,0.0,-4.3945,-4.3589,-4.3136,-4.2634,-4.2634,-4.252,-4.231,-4.1776,-4.1015,-4.0254,-4.0254,-3.9444,-3.8391,-3.8391,-3.8391,-3.8391,-3.8391,-3.878,-3.9233,-3.9233,-3.9233,-3.9233,-3.9233,-3.8812,-3.8391,-3.8391,-3.8391,-3.8391,-3.8391,-3.8391,-3.8391,-3.8391,-3.8391,-3.8391,-3.8391,-3.8391,-3.8391,-3.8391,-3.8391,-3.8391,-3.8391,-3.8391,-3.8391,-3.8391,-3.8391,-3.8327,-3.8165,-3.763,-3.695,-3.6092,-3.5493,-3.5104,-3.4926,-3.4392,-3.4101,-3.4101,-3.4101,-3.4101,-3.4101,-3.4101,-3.4101,-3.4101,-3.3933,-3.3646,-3.6766,-3.7293,-3.7835,-3.775,-3.769,-3.7543,-3.7025,0.0,0.0,0.0,0.0,0.0,0.0,0.0,0.0,0.0,0.0,0.0,0.0,0.0,0.0,0.0,0.0,0.0,0.0,0.0,0.0,0.0,0.0,0.0,0.0,0.0,0.0,-4.7302,-4.703,-4.6876,-4.6876,-4.6876,-4.6876,-4.6876,-4.6876,-4.6342,-4.5338,-4.5338,0.0,0.0,0.0,0.0,-4.3686,-4.3346,-4.299,-4.2634,-4.2634,-4.2423,-4.2067,-4.1338,-4.082,-4.0448,-4.014,-3.9525,-3.8845,-3.8505,-3.8391,-3.8391,-3.8391,-3.912,-3.9881,-3.9573,-3.9233,-3.9055,-3.9395,-3.8942,-3.8391,-3.8391,-3.8391,-3.8391,-3.8391,-3.8391,-3.8391,-3.8391,-3.8391,-3.8391,-3.8391,-3.8391,-3.8391,-3.8391,-3.8391,-3.8391,-3.8391,-3.8391,-3.8391,-3.8391,-3.8391,-3.8391,-3.8391,-3.8035,-3.7517,-3.6821,-3.6384,-3.6027,-3.572,-3.4991,-3.4441,-3.4101,-3.4101,-3.4101,-3.4101,-3.4101,-3.4101,-3.4101,-3.4101,-3.3933,-3.6829,-3.6893,-3.6882,-3.662,-3.6502,-3.6478,-3.6498,0.0,0.0,0.0,0.0,0.0,0.0,0.0,0.0,0.0,0.0,0.0,0.0,0.0,0.0,0.0,0.0,0.0,0.0,0.0,0.0,0.0,0.0,0.0,0.0,0.0,0.0,-4.7571,-4.715,-4.6828,-4.6714,-4.6828,-4.6828,-4.6714,-4.6714,-4.5986,-4.4625,-4.4625,-4.4237,0.0,0.0,0.0,-4.3492,-4.2877,-4.2634,-4.2634,-4.2634,-4.2261,-4.1646,-4.0917,-4.0594,-4.0383,-3.959,-3.9395,-3.9363,-3.8634,-3.8391,-3.8424,-3.8537,-3.9395,-4.0237,-3.9768,-3.9185,-3.8829,-3.9347,-3.8942,-3.8391,-3.8391,-3.8391,-3.8391,-3.8391,-3.8391,-3.8391,-3.8391,-3.8391,-3.8391,-3.8391,-3.8391,-3.8391,-3.8391,-3.8391,-3.8391,-3.8391,-3.8391,-3.8391,-3.8391,-3.8391,-3.8391,-3.8391,-3.8391,-3.8132,-3.7517,-3.7371,-3.6967,-3.6157,-3.5525,-3.4845,-3.4117,-3.4101,-3.4101,-3.4101,-3.4101,-3.4101,-3.4101,-3.4101,-3.405,-3.6987,-3.7501,-3.7835,-3.6882,-3.6585,-3.6634,-3.7189,0.0,0.0,0.0,0.0,0.0,0.0,0.0,0.0,0.0,0.0,0.0,0.0,0.0,0.0,0.0,0.0,0.0,0.0,0.0,0.0,0.0,0.0,0.0,0.0,0.0,0.0,-4.7082,-4.6945,-4.6585,-4.5969,-4.6585,-4.6585,-4.5969,-4.5969,-4.5241,-4.3881,-4.3881,-4.3476,0.0,0.0,-4.2682,-4.278,-4.2682,-4.2634,-4.2634,-4.2634,-4.2569,-4.2375,-4.1662,-4.1015,-4.0302,-3.9023,-3.8974,-3.9363,-3.8634,-3.8391,-3.8521,-3.912,-3.946,-3.9735,-4.0205,-4.0254,-4.0059,-3.9606,-3.8942,-3.8391,-3.8391,-3.8391,-3.8391,-3.8391,-3.8391,-3.8391,-3.8391,-3.8391,-3.8391,-3.8391,-3.8391,-3.8391,-3.8391,-3.8391,-3.8391,-3.8391,-3.8391,-3.8391,-3.8391,-3.8391,-3.8391,-3.8391,-3.8391,-3.8359,-3.8246,-3.7663,-3.6724,-3.5412,-3.5234,-3.4845,-3.4117,-3.4101,-3.4101,-3.4101,-3.4101,-3.4101,-3.4101,-3.4101,-3.3815,-3.6573,-3.7013,-3.7554,-3.7539,-3.7831,-3.8157,0.0,0.0,0.0,0.0,0.0,0.0,0.0,0.0,0.0,0.0,0.0,0.0,0.0,0.0,0.0,0.0,0.0,0.0,0.0,0.0,0.0,0.0,0.0,0.0,0.0,0.0,0.0,0.0,-4.6497,-4.5969,-4.5273,-4.5597,-4.5597,-4.5257,-4.5257,-4.4706,-4.3719,-4.3719,-4.3314,-4.2634,0.0,-4.2634,-4.2634,-4.2634,-4.2407,-4.2099,-4.2488,-4.2391,-4.2067,-4.2132,-4.1436,-4.0399,-3.9752,-3.9752,-3.9849,-3.8764,-3.8667,-3.9055,-3.9379,-4.0011,-4.0513,-4.0075,-3.9946,-3.9881,-3.9557,-3.8942,-3.8391,-3.8391,-3.8391,-3.8391,-3.8391,-3.8391,-3.8391,-3.8391,-3.8391,-3.8391,-3.8391,-3.8391,-3.8391,-3.8391,-3.8391,-3.8391,-3.8391,-3.8391,-3.8391,-3.8391,-3.8391,-3.8391,-3.8391,-3.8391,-3.8391,-3.8391,-3.8084,-3.7436,-3.6384,-3.5995,-3.5445,-3.47,-3.4295,-3.4101,-3.4101,-3.4101,-3.4101,-3.4101,-3.3764,-3.3475,-3.6171,-3.6664,-3.7523,-3.8315,0.0,0.0,0.0,0.0,0.0,0.0,0.0,0.0,0.0,0.0,0.0,0.0,0.0,0.0,0.0,0.0,0.0,0.0,0.0,0.0,0.0,0.0,0.0,0.0,0.0,0.0,0.0,0.0,0.0,0.0,-4.5897,-4.5241,-4.4544,-4.4544,-4.4544,-4.4544,-4.4544,-4.4156,-4.346,-4.346,-4.3071,-4.2391,-4.2391,-4.2391,-4.2391,-4.2391,-4.2067,-4.1646,-4.2359,-4.2294,-4.1873,-4.2245,-4.1695,-4.0723,-4.0545,-4.0383,-4.0075,-3.9007,-3.9023,-3.9476,-3.9476,-4.0464,-4.1322,-4.0075,-3.9719,-3.9638,-3.9314,-3.8812,-3.8391,-3.8391,-3.8521,-3.8602,-3.844,-3.8537,-3.8602,-3.8424,-3.8391,-3.8391,-3.8391,-3.8391,-3.8391,-3.8391,-3.8391,-3.8391,-3.8391,-3.8391,-3.8391,-3.8391,-3.8391,-3.8391,-3.8391,-3.8391,-3.8391,-3.8391,-3.8391,-3.8068,-3.7355,-3.6821,-3.6108,-3.5202,-3.4635,-3.4262,-3.4101,-3.4101,-3.4101,-3.4101,-3.3475,-3.3145,-3.6209,-3.7185,-3.8571,-3.9315,-3.8871,0.0,-4.0963,-4.149,0.0,-4.3325,0.0,0.0,0.0,0.0,0.0,0.0,0.0,0.0,0.0,0.0,0.0,0.0,0.0,0.0,0.0,0.0,0.0,0.0,0.0,0.0,0.0,0.0,0.0,0.0,0.0,-4.4528,-4.38,-4.3783,-4.3783,-4.3783,-4.3783,-4.3411,-4.2715,-4.2715,-4.2326,-4.1646,-4.1646,-4.1646,-4.1646,-4.1646,-4.1614,-4.1646,-4.2359,-4.2601,-4.2488,-4.1873,-4.1581,-4.1403,-4.0723,-4.0075,-3.9541,-3.9428,-3.9444,-3.9476,-3.9476,-4.0464,-4.1419,-4.0642,-4.0415,-4.0124,-3.8812,-3.844,-3.8391,-3.8391,-3.891,-3.9217,-3.8537,-3.8926,-3.9201,-3.8521,-3.8391,-3.8391,-3.8391,-3.8391,-3.8391,-3.8391,-3.8391,-3.8391,-3.8391,-3.8391,-3.8391,-3.8391,-3.8391,-3.8391,-3.8391,-3.8391,-3.8391,-3.8391,-3.8391,-3.8068,-3.7355,-3.7274,-3.6594,-3.5218,-3.5137,-3.4764,-3.4101,-3.4101,-3.4101,-3.4101,-3.3475,-3.2933,-3.5525,-3.6852,-3.8699,-3.9443,-3.9757,0.0,0.0,-4.3137,-4.3448,-4.3421,-4.3986,0.0,0.0,0.0,0.0,0.0,0.0,0.0,0.0,0.0,0.0,0.0,0.0,0.0,0.0,0.0,0.0,0.0,0.0,0.0,0.0,0.0,0.0,0.0,0.0,-4.3976,-4.3181,-4.3102,-4.2828,-4.2391,-4.2828,-4.2666,-4.197,-4.197,-4.1581,-4.0901,-4.0901,-4.116,-4.1533,-4.1096,-4.0901,-4.0885,-4.0739,-4.1209,-4.1938,-4.1662,-4.1565,-4.1468,-4.0739,-4.061,-4.0561,-3.9233,-3.9395,-4.0027,-3.9606,-4.014,-4.0853,-4.0577,-4.0496,-4.027,-3.9314,-3.9072,-3.9072,-3.9072,-3.9606,-3.9914,-3.9217,-3.9282,-3.9266,-3.8537,-3.8391,-3.8391,-3.8391,-3.8391,-3.8391,-3.8391,-3.8391,-3.8391,-3.8391,-3.8391,-3.8391,-3.8391,-3.8391,-3.8391,-3.8391,-3.8391,-3.8391,-3.8391,-3.8391,-3.8278,-3.8003,-3.7566,-3.7064,-3.6529,-3.5639,-3.504,-3.4764,-3.4311,-3.4101,-3.4101,-3.3475,-3.2895,-3.5846,-3.7069,-3.8752,0.0,0.0,0.0,-4.3333,-4.4446,-4.4938,-4.4769,-4.5141,0.0,0.0,0.0,0.0,0.0,0.0,0.0,0.0,0.0,0.0,0.0,0.0,0.0,0.0,0.0,0.0,0.0,0.0,0.0,0.0,0.0,0.0,0.0,0.0,0.0,-4.2496,-4.2129,-4.1711,-4.1241,-4.1727,-4.1695,-4.1241,-4.1468,-4.1063,-4.0173,-4.0173,-4.0577,-4.1193,-4.0691,-4.0626,-4.0739,-3.9833,-4.0335,-4.1565,-4.1565,-4.1711,-4.184,-4.1338,-4.1338,-4.129,-3.9606,-3.9865,-4.0658,-3.9752,-4.0108,-4.0788,-4.0561,-4.0335,-4.0075,-3.9606,-3.9638,-3.98,-3.98,-4.0318,-4.0577,-3.9671,-3.9654,-3.9525,-3.8586,-3.8391,-3.8391,-3.8391,-3.8391,-3.8391,-3.8391,-3.8391,-3.8391,-3.8391,-3.8391,-3.8391,-3.8391,-3.8391,-3.8391,-3.8391,-3.8391,-3.8391,-3.8391,-3.8391,-3.8391,-3.8391,-3.7922,-3.7549,-3.7323,-3.6351,-3.5752,-3.5542,-3.4797,-3.4441,-3.4441,-3.3587,-3.2986,-3.7411,-3.794,0.0,0.0,0.0,0.0,-4.385,-4.5231,-4.6248,-4.7854,0.0,0.0,0.0,0.0,0.0,0.0,0.0,0.0,0.0,0.0,0.0,0.0,0.0,0.0,0.0,0.0,0.0,0.0,0.0,0.0,0.0,0.0,0.0,0.0,0.0,0.0,-4.161,-4.0853,-4.048,-4.048,-4.0496,-4.0496,-4.0513,-4.1225,-4.0788,-3.9476,-3.9476,-3.9849,-4.048,-4.048,-4.0901,-4.1419,-4.0011,-4.0335,-4.1565,-4.1549,-4.2002,-4.2618,-4.2555,-4.2148,-4.1452,-4.0723,-4.0966,-4.129,-3.9897,-4.0432,-4.1387,-4.0675,-3.9994,-3.9476,-3.9493,-3.9994,-4.0496,-4.0496,-4.1047,-4.1193,-3.9784,-4.0011,-4.0075,-3.8667,-3.8391,-3.8391,-3.8391,-3.8391,-3.8391,-3.8391,-3.8391,-3.8391,-3.8391,-3.8391,-3.8391,-3.8391,-3.8391,-3.8391,-3.8391,-3.8391,-3.8391,-3.8391,-3.8391,-3.8391,-3.8391,-3.8391,-3.8068,-3.7339,-3.7323,-3.6983,-3.6319,-3.5558,-3.5185,-3.5169,-3.3862,-3.3198,-3.636,0.0,0.0,0.0,0.0,0.0,0.0,-4.4803,0.0,0.0,0.0,0.0,0.0,0.0,0.0,0.0,0.0,0.0,0.0,0.0,0.0,0.0,0.0,0.0,0.0,0.0,0.0,0.0,0.0,0.0,0.0,0.0,0.0,0.0,0.0,0.0,-4.1311,-4.0847,-4.043,-3.9959,-4.0313,-4.0237,-3.9784,-3.9994,-3.959,-3.8732,-3.8732,-3.912,-3.9784,-3.9784,-3.9914,-4.0011,-3.9088,-3.9881,-4.1452,-4.0464,-4.0853,-4.1808,-4.1306,-4.0982,-4.0691,-4.0011,-3.9914,-3.993,-3.9007,-3.9007,-3.9395,-3.9687,-3.9638,-3.9703,-4.0691,-4.1096,-4.1128,-4.061,-4.1419,-4.1921,-4.0496,-4.0351,-4.0075,-3.8667,-3.8391,-3.8391,-3.8391,-3.8391,-3.8391,-3.8391,-3.8391,-3.8391,-3.8391,-3.8391,-3.8391,-3.8391,-3.8391,-3.8391,-3.8391,-3.8391,-3.8391,-3.8391,-3.8391,-3.8391,-3.8391,-3.8391,-3.8294,-3.8084,-3.7582,-3.7226,-3.7015,-3.6319,-3.5963,-3.5963,-3.5029,-3.4398,-3.7694,0.0,0.0,0.0,0.0,0.0,0.0,0.0,0.0,0.0,0.0,0.0,0.0,0.0,0.0,0.0,0.0,0.0,0.0,0.0,0.0,0.0,0.0,0.0,0.0,0.0,0.0,0.0,0.0,0.0,0.0,0.0,0.0,0.0,0.0,0.0,-4.0631,-4.0107,-3.9675,-3.9284,-3.9576,-3.9502,-3.917,-3.9405,-3.9088,-3.8424,-3.8699,-3.9072,-3.9476,-3.9476,-3.9476,-3.9412,-3.8683,-3.9363,-4.0642,-3.9784,-4.0189,-4.1079,-4.0642,-4.0496,-4.0383,-3.9703,-3.9671,-3.9752,-3.9039,-3.8829,-3.8926,-3.9347,-3.9282,-3.925,-4.0092,-4.0723,-4.1096,-4.095,-4.1792,-4.2164,-4.0448,-4.0302,-4.0075,-3.8667,-3.8391,-3.8391,-3.8391,-3.8391,-3.8391,-3.8391,-3.8391,-3.8391,-3.8448,-3.8448,-3.8391,-3.8448,-3.8448,-3.8391,-3.8391,-3.8391,-3.8391,-3.8391,-3.8391,-3.8391,-3.8391,-3.8391,-3.8391,-3.8391,-3.797,-3.7744,-3.7744,-3.7048,-3.6707,-3.6691,-3.5963,-3.5303,-4.0182,0.0,0.0,0.0,0.0,0.0,0.0,0.0,0.0,0.0,0.0,0.0,0.0,0.0,0.0,0.0,0.0,0.0,0.0,0.0,0.0,0.0,0.0,0.0,0.0,0.0,0.0,0.0,0.0,0.0,0.0,0.0,0.0,0.0,0.0,0.0,-3.9667,-3.8958,-3.8616,0.0,-3.8632,-3.856,-3.8593,-3.9145,-3.9023,-3.844,-3.9104,-3.9379,-3.9379,-3.9379,-3.9379,-3.9314,-3.8651,-3.8845,-3.9476,-3.9395,-3.9816,-4.0399,-4.0399,-4.0351,-4.0205,-3.9713,-3.9849,-4.0189,-3.9573,-3.9379,-3.9379,-3.9379,-3.891,-3.8408,-3.8489,-3.9444,-4.0621,-4.1286,-4.197,-4.197,-3.993,-3.9962,-3.9994,-3.8667,-3.8408,-3.8391,-3.8408,-3.8408,-3.8408,-3.8408,-3.8391,-3.8448,-3.8576,-3.852,-3.8448,-3.856,-3.8448,-3.8391,-3.8391,-3.8391,-3.8408,-3.8391,-3.8408,-3.8408,-3.8391,-3.8408,-3.8391,-3.8391,-3.8391,-3.8391,-3.8391,-3.7744,-3.742,-3.7404,-3.6724,-3.5995,0.0,-3.9583,0.0,0.0,0.0,0.0,0.0,0.0,0.0,0.0,0.0,0.0,0.0,0.0,0.0,0.0,0.0,0.0,0.0,0.0,0.0,0.0,0.0,0.0,0.0,0.0,0.0,0.0,0.0,0.0,0.0,0.0,0.0,0.0,0.0,-3.923,-3.9396,-3.9068,-3.886,0.0,-3.8672,-3.856,-3.8464,-3.8553,-3.8553,-3.8408,-3.857,-3.8634,-3.8634,-3.8634,-3.8634,-3.8618,-3.8456,-3.8845,-3.9412,-3.8845,-3.9088,-3.9761,-3.982,-3.9446,-3.8926,-3.9462,-3.93,-3.8812,-3.8683,-3.8634,-3.8634,-3.8634,-3.8578,-3.865,-3.9161,-3.9617,-4.005,-4.0114,-4.1005,-4.1371,-3.9816,-3.959,-3.9502,-3.8683,-3.8448,-3.8448,-3.856,-3.8569,-3.8561,-3.8561,-3.8576,-3.8511,-3.8448,-3.852,-3.852,-3.8448,-3.8391,-3.8391,-3.8391,-3.8391,-3.8448,-3.856,-3.8448,-3.8464,-3.856,-3.8464,-3.8391,-3.8391,-3.8391,-3.8391,-3.8391,-3.8246,-3.8165,-3.8149,-3.7436,-3.6724,0.0,0.0,0.0,0.0,0.0,0.0,0.0,0.0,0.0,0.0,0.0,0.0,0.0,0.0,0.0,0.0,0.0,0.0,0.0,0.0,0.0,0.0,0.0,0.0,0.0,0.0,0.0,0.0,0.0,0.0,0.0,0.0,0.0,0.0,-3.9202,-3.9148,-3.9148,-3.8969,-3.886,-3.8805,-3.8711,-3.8616,-3.8504,-3.8464,-3.8391,-3.8391,-3.8391,-3.8391,-3.8391,-3.8391,-3.8391,-3.8408,-3.8448,-3.8691,-3.891,-3.8594,-3.8748,-3.9072,-3.9129,-3.8885,-3.8569,-3.9016,-3.8885,-3.8504,-3.8391,-3.8448,-3.852,-3.852,-3.8576,-3.8714,-3.9072,-3.9527,-3.9804,-3.9364,-4.0335,-4.0929,-3.9479,-3.9447,-3.9479,-3.8802,-3.8655,-3.86,-3.8655,-3.8704,-3.8681,-3.8681,-3.8727,-3.8678,-3.8711,-3.8616,-3.8616,-3.8655,-3.856,-3.852,-3.852,-3.8544,-3.86,-3.8616,-3.8504,-3.852,-3.8616,-3.8504,-3.8464,-3.8391,-3.8391,-3.8391,-3.8391,-3.8391,-3.8391,-3.8391,-3.8019,-3.7452,0.0,0.0,0.0,0.0,0.0,0.0,0.0,0.0,0.0,0.0,0.0,0.0,0.0,0.0,0.0,0.0,0.0,0.0,0.0,0.0,0.0,0.0,0.0,0.0,0.0,0.0,0.0,0.0,0.0,0.0,0.0,0.0,-3.9272,-3.9272,-3.9148,-3.9023,-3.9023,-3.8914,-3.886,-3.886,-3.8805,-3.8711,-3.8616,-3.8504,-3.8448,-3.8448,-3.8448,-3.8448,-3.8448,-3.8448,-3.8448,-3.8464,-3.856,-3.856,-3.8448,-3.856,-3.8616,-3.8632,-3.8672,-3.8672,-3.8616,-3.8672,-3.8672,-3.8616,-3.8448,-3.8504,-3.8616,-3.8632,-3.8616,-3.8672,-3.875,-3.9247,-3.9614,-3.9007,-3.9811,-4.0369,-3.9067,-3.928,-3.9526,-3.8975,-3.886,-3.886,-3.8805,-3.8805,-3.8805,-3.8805,-3.8805,-3.886,-3.8969,-3.8766,-3.8782,-3.8914,-3.8766,-3.8616,-3.8616,-3.8766,-3.875,-3.8672,-3.8672,-3.8616,-3.8672,-3.8672,-3.856,-3.8448,-3.8448,-3.8391,-3.8391,-3.8391,-3.8391,-3.8391,-3.8391,-3.8003,0.0,0.0,0.0,0.0,0.0,0.0,0.0,0.0,0.0,0.0,0.0,0.0,0.0,0.0,0.0,0.0,0.0,0.0,0.0,0.0,0.0,0.0,0.0,0.0,0.0,0.0,0.0,0.0,0.0,0.0,0.0,-3.9592,-3.9272,-3.9272,-3.9272,-3.9272,-3.9272,-3.9218,-3.9148,-3.8969,-3.886,-3.8711,-3.8616,-3.8711,-3.8711,-3.856,-3.856,-3.856,-3.856,-3.8711,-3.8655,-3.856,-3.8711,-3.8711,-3.856,-3.8711,-3.8711,-3.8616,-3.8876,-3.886,-3.8805,-3.8914,-3.886,-3.875,-3.8616,-3.8655,-3.875,-3.8616,-3.8655,-3.875,-3.8805,-3.898,-3.9101,-3.8985,-3.9242,-3.9396,-3.8909,-3.8887,-3.8975,-3.8985,-3.8969,-3.8969,-3.8947,-3.8876,-3.886,-3.8947,-3.8985,-3.8914,-3.886,-3.8914,-3.8914,-3.886,-3.8805,-3.875,-3.875,-3.8805,-3.886,-3.8914,-3.886,-3.8821,-3.8914,-3.886,-3.8711,-3.856,-3.856,-3.852,-3.8391,-3.8391,-3.8391,-3.8391,-3.8391,-3.8003,-3.7594,0.0,0.0,0.0,0.0,0.0,0.0,0.0,0.0,0.0,0.0,0.0,0.0,0.0,0.0,0.0,0.0,0.0,0.0,0.0,0.0,0.0,0.0,0.0,0.0,0.0,0.0,0.0,0.0,0.0,-4.0053,-3.954,-3.9272,-3.9272,-3.9272,-3.9272,-3.9272,-3.9202,-3.9094,-3.9023,-3.8914,-3.886,-3.8821,-3.8876,-3.8821,-3.8616,-3.8655,-3.8711,-3.8711,-3.875,-3.875,-3.8711,-3.886,-3.8805,-3.8711,-3.886,-3.886,-3.8821,-3.8969,-3.8969,-3.8914,-3.8969,-3.8969,-3.8914,-3.8766,-3.8805,-3.8914,-3.8821,-3.8876,-3.8914,-3.904,-3.9148,-3.9148,-3.9148,-3.9218,-3.9272,-3.9094,-3.9094,-3.9094,-3.9148,-3.9148,-3.9164,-3.9164,-3.911,-3.9094,-3.9164,-3.9164,-3.9148,-3.9094,-3.9023,-3.9023,-3.9094,-3.8969,-3.8914,-3.8914,-3.904,-3.904,-3.9023,-3.8969,-3.8914,-3.9023,-3.8969,-3.886,-3.8711,-3.8711,-3.86,-3.8391,-3.8464,-3.8448,-3.8391,-3.8391,-3.823,0.0,0.0,0.0,0.0,0.0,0.0,0.0,0.0,0.0,0.0,0.0,0.0,0.0,0.0,0.0,0.0,0.0,0.0,0.0,0.0,0.0,0.0,0.0,0.0,0.0,0.0,0.0,0.0,0.0,0.0,-4.0003,-3.954,-3.9272,-3.9272,-3.9272,-3.9272,-3.9272,-3.9148,-3.9094,-3.9094,-3.9094,-3.9023,-3.9023,-3.9023,-3.8931,-3.8727,-3.8805,-3.886,-3.886,-3.8914,-3.8914,-3.886,-3.9023,-3.8969,-3.886,-3.9023,-3.9023,-3.9023,-3.9077,-3.9094,-3.9094,-3.9094,-3.9094,-3.904,-3.8914,-3.8969,-3.9094,-3.9023,-3.9023,-3.904,-3.9272,-3.9272,-3.9218,-3.9272,-3.9272,-3.9272,-3.9272,-3.9272,-3.9272,-3.9272,-3.9272,-3.9272,-3.9272,-3.9272,-3.9272,-3.9272,-3.9272,-3.9272,-3.9272,-3.9148,-3.9148,-3.9272,-3.9148,-3.9094,-3.9094,-3.9202,-3.9218,-3.9094,-3.9094,-3.9094,-3.9094,-3.9094,-3.904,-3.886,-3.8914,-3.8821,-3.8504,-3.8616,-3.8616,-3.8504,-3.8504,-3.8504,0.0,0.0,0.0,0.0,0.0,0.0,0.0,0.0,0.0,0.0,0.0,0.0,0.0,0.0,0.0,0.0,0.0,0.0,0.0,0.0,0.0,0.0,0.0,0.0,0.0,0.0,0.0,0.0,0.0,0.0,-4.0003,-3.954,-3.9272,-3.9272,-3.9272,-3.9272,-3.9272,-3.9272,-3.9272,-3.9272,-3.9272,-3.9202,-3.9023,-3.9218,-3.9148,-3.8969,-3.8969,-3.8969,-3.9023,-3.9218,-3.9148,-3.9023,-3.9202,-3.9148,-3.9023,-3.9202,-3.9148,-3.9023,-3.9218,-3.9272,-3.9272,-3.9272,-3.9272,-3.9272,-3.904,-3.9148,-3.9255,-3.9023,-3.9023,-3.904,-3.9272,-3.9148,-3.9077,-3.9272,-3.9272,-3.9272,-3.9272,-3.9272,-3.9272,-3.9272,-3.9272,-3.9272,-3.9272,-3.9272,-3.9272,-3.9272,-3.9272,-3.9272,-3.9272,-3.9272,-3.9272,-3.9272,-3.9272,-3.9272,-3.9272,-3.9272,-3.9272,-3.9272,-3.9272,-3.9272,-3.9272,-3.9272,-3.9202,-3.8969,-3.9164,-3.9094,-3.8805,-3.8805,-3.8805,-3.8805,-3.8805,-3.8711,0.0,0.0,0.0,0.0,0.0,0.0,0.0,0.0,0.0,0.0,0.0,0.0,0.0,0.0,0.0,0.0,0.0,0.0,0.0,0.0,0.0,0.0,0.0,0.0,0.0,0.0,0.0,0.0,0.0,0.0,-3.9609,-3.9362,-3.9272,-3.9272,-3.9272,-3.9272,-3.9272,-3.9272,-3.9272,-3.9272,-3.9272,-3.9272,-3.9202,-3.9272,-3.9272,-3.9202,-3.9202,-3.9202,-3.9218,-3.9272,-3.9272,-3.9202,-3.9272,-3.9272,-3.9202,-3.9272,-3.9272,-3.9202,-3.9272,-3.9272,-3.9272,-3.9272,-3.9272,-3.9272,-3.9202,-3.9218,-3.9272,-3.9202,-3.9202,-3.9202,-3.9272,-3.9272,-3.9202,-3.9272,-3.9272,-3.9272,-3.9272,-3.9272,-3.9272,-3.9272,-3.9272,-3.9272,-3.9272,-3.9272,-3.9272,-3.9272,-3.9272,-3.9272,-3.9272,-3.9272,-3.9272,-3.9272,-3.9272,-3.9272,-3.9272,-3.9272,-3.9272,-3.9272,-3.9272,-3.9272,-3.9272,-3.9272,-3.9272,-3.9202,-3.9272,-3.9148,-3.8805,-3.8914,-3.886,-3.8805,-3.8805,-3.8711,-3.4129,0.0,0.0,0.0,0.0,0.0,0.0,0.0,0.0,0.0,0.0,0.0,0.0,0.0,0.0,0.0,0.0,0.0,0.0,0.0,0.0,0.0,0.0,0.0,0.0,0.0,0.0,0.0,0.0,0.0,-3.9609,-3.9556,-3.9451,-3.9325,-3.9272,-3.9272,-3.9272,-3.9272,-3.9272,-3.9272,-3.9272,-3.9272,-3.9272,-3.9272,-3.9272,-3.9272,-3.9272,-3.9272,-3.9272,-3.9272,-3.9272,-3.9272,-3.9272,-3.9272,-3.9272,-3.9272,-3.9272,-3.9272,-3.9272,-3.9272,-3.9272,-3.9272,-3.9272,-3.9272,-3.9272,-3.9272,-3.9272,-3.9272,-3.9272,-3.9272,-3.9272,-3.9272,-3.9272,-3.9272,-3.9272,-3.9272,-3.9272,-3.9272,-3.9272,-3.9272,-3.9272,-3.9272,-3.9272,-3.9272,-3.9272,-3.9272,-3.9272,-3.9272,-3.9272,-3.9272,-3.9272,-3.9272,-3.9272,-3.9272,-3.9272,-3.9272,-3.9272,-3.9272,-3.9272,-3.9272,-3.9272,-3.9272,-3.9272,-3.9272,-3.9272,-3.9202,-3.8969,-3.904,-3.9023,-3.8985,-3.8985,-3.8876,0.0,0.0,0.0,0.0,0.0,0.0,0.0,0.0,0.0,0.0,0.0,0.0,0.0,0.0,0.0,0.0,0.0,0.0,0.0,0.0,0.0,0.0,0.0,0.0,0.0,0.0,0.0,0.0,0.0,-4.0611,-4.0053,-4.0003,-3.9782,-3.9325,-3.9325,-3.9272,-3.9272,-3.9272,-3.9272,-3.9272,-3.9272,-3.9272,-3.9272,-3.9272,-3.9272,-3.9272,-3.9272,-3.9272,-3.9272,-3.9272,-3.9272,-3.9272,-3.9272,-3.9272,-3.9272,-3.9272,-3.9272,-3.9272,-3.9272,-3.9272,-3.9272,-3.9272,-3.9272,-3.9272,-3.9272,-3.9272,-3.9272,-3.9272,-3.9272,-3.9272,-3.9272,-3.9272,-3.9272,-3.9272,-3.9272,-3.9272,-3.9272,-3.9272,-3.9272,-3.9272,-3.9272,-3.9272,-3.9272,-3.9272,-3.9272,-3.9272,-3.9272,-3.9272,-3.9272,-3.9272,-3.9272,-3.9272,-3.9272,-3.9272,-3.9272,-3.9272,-3.9272,-3.9272,-3.9272,-3.9272,-3.9272,-3.9272,-3.9272,-3.9272,-3.9272,-3.9272,-3.9272,-3.9272,-3.9272,-3.9272,-3.9272,-3.9202,-3.2406,0.0,0.0,0.0,0.0,0.0,0.0,0.0,0.0,0.0,0.0,0.0,0.0,0.0,0.0,0.0,0.0,0.0,0.0,0.0,0.0,0.0,0.0,0.0,0.0,0.0,0.0,0.0,-4.1383,-4.1111,-4.0594,-4.0203,-3.9952,-3.9817,-3.9468,-3.9272,-3.9272,-3.9272,-3.9272,-3.9272,-3.9272,-3.9272,-3.9272,-3.9272,-3.9272,-3.9272,-3.9272,-3.9272,-3.9272,-3.9272,-3.9272,-3.9272,-3.9272,-3.9272,-3.9272,-3.9272,-3.9272,-3.9272,-3.9272,-3.9272,-3.9272,-3.9272,-3.9272,-3.9272,-3.9272,-3.9272,-3.9272,-3.9272,-3.9272,-3.9272,-3.9272,-3.9272,-3.9272,-3.9272,-3.9272,-3.9272,-3.9272,-3.9272,-3.9272,-3.9272,-3.9272,-3.9272,-3.9272,-3.9272,-3.9272,-3.9272,-3.9272,-3.9272,-3.9272,-3.9272,-3.9272,-3.9272,-3.9272,-3.9272,-3.9272,-3.9272,-3.9272,-3.9272,-3.9272,-3.9272,-3.9272,-3.9272,-3.9272,-3.9272,-3.9272,-3.9272,-3.9272,-3.9272,-3.9272,-3.9272,-3.9148,-3.9148,0.0,0.0,0.0,0.0,0.0,0.0,0.0,0.0,0.0,0.0,0.0,0.0,0.0,0.0,0.0,0.0,0.0,0.0,0.0,0.0,0.0,0.0,0.0,0.0,0.0,0.0,0.0,0.0,-4.1856,-4.1534,-4.0849,-4.012,-3.9731,-3.9731,-3.9451,-3.9272,-3.9272,-3.9272,-3.9272,-3.9272,-3.9272,-3.9272,-3.9272,-3.9272,-3.9272,-3.9272,-3.9272,-3.9272,-3.9272,-3.9272,-3.9272,-3.9272,-3.9272,-3.9272,-3.9272,-3.9272,-3.9272,-3.9272,-3.9272,-3.9272,-3.9272,-3.9272,-3.9272,-3.9272,-3.9272,-3.9272,-3.9272,-3.9272,-3.9272,-3.9272,-3.9272,-3.9272,-3.9272,-3.9272,-3.9272,-3.9272,-3.9272,-3.9272,-3.9272,-3.9272,-3.9272,-3.9272,-3.9272,-3.9272,-3.9272,-3.9272,-3.9272,-3.9272,-3.9272,-3.9272,-3.9272,-3.9272,-3.9272,-3.9272,-3.9272,-3.9272,-3.9272,-3.9272,-3.9272,-3.9272,-3.9272,-3.9272,-3.9272,-3.9272,-3.9272,-3.9272,-3.9272,-3.9272,-3.9272,-3.9272,-3.9202,-3.9202,0.0,0.0,0.0,0.0,0.0,0.0,-3.6071,-3.7251,0.0,0.0,0.0,0.0,0.0,0.0,0.0,0.0,0.0,0.0,0.0,0.0,0.0,0.0,0.0,0.0,0.0,0.0,-4.2287,-4.2287,-4.2287,-4.1917,-4.1036,-3.9986,-3.9468,-3.9468,-3.9379,-3.9239,-3.9156,-3.9239,-3.9239,-3.9156,-3.9239,-3.9272,-3.9272,-3.9272,-3.9272,-3.9272,-3.9272,-3.9272,-3.9272,-3.9272,-3.9272,-3.9272,-3.9272,-3.9272,-3.9272,-3.9272,-3.9272,-3.9272,-3.9272,-3.9272,-3.9272,-3.9272,-3.9272,-3.9272,-3.9272,-3.9272,-3.9272,-3.9272,-3.9272,-3.9272,-3.9272,-3.9272,-3.9272,-3.9272,-3.9272,-3.9272,-3.9272,-3.9272,-3.9272,-3.9272,-3.9272,-3.9272,-3.9272,-3.9272,-3.9272,-3.9272,-3.9272,-3.9272,-3.9272,-3.9272,-3.9272,-3.9272,-3.9272,-3.9272,-3.9272,-3.9272,-3.9272,-3.9272,-3.9272,-3.9272,-3.9272,-3.9272,-3.9272,-3.9272,-3.9272,-3.9272,-3.9272,-3.9272,-3.9272,-3.9272,-3.9272,-3.9272,0.0,0.0,0.0,0.0,0.0,0.0,-3.3765,-3.4961,0.0,0.0,0.0,0.0,0.0,0.0,0.0,0.0,0.0,0.0,0.0,0.0,0.0,0.0,0.0,0.0,0.0,0.0,-4.2287,-4.2287,-4.2287,-4.2187,-4.2019,-4.1019,-4.0514,-4.0514,-3.9696,-3.899,-3.8427,-3.899,-3.899,-3.8427,-3.9007,-3.9272,-3.9272,-3.9272,-3.9272,-3.9272,-3.9272,-3.9272,-3.9272,-3.9272,-3.9272,-3.9272,-3.9272,-3.9272,-3.9272,-3.9272,-3.9272,-3.9272,-3.9272,-3.9272,-3.9272,-3.9272,-3.9272,-3.9272,-3.9272,-3.9272,-3.9272,-3.9272,-3.9272,-3.9272,-3.9272,-3.9272,-3.9272,-3.9272,-3.9272,-3.9272,-3.9272,-3.9272,-3.9272,-3.9272,-3.9272,-3.9272,-3.9272,-3.9272,-3.9272,-3.9272,-3.9272,-3.9272,-3.9272,-3.9272,-3.9272,-3.9272,-3.9272,-3.9272,-3.9272,-3.9272,-3.9272,-3.9272,-3.9272,-3.9272,-3.9272,-3.9272,-3.9272,-3.9272,-3.9272,-3.9272,-3.9272,-3.9272,-3.9272,-3.9272,-3.9272,-3.9272,0.0,0.0,0.0,-3.3523,0.0,0.0,0.0,-3.4109,0.0,0.0,0.0,0.0,0.0,0.0,0.0,0.0,0.0,0.0,0.0,0.0,0.0,0.0,0.0,0.0,0.0,0.0,-4.1599,-4.1374,-4.1102,-4.1025,-4.1168,-4.0449,-4.0037,-4.0037,-3.9556,-3.9106,-3.8742,-3.9106,-3.909,-3.8742,-3.9106,-3.9272,-3.9272,-3.9272,-3.9272,-3.9272,-3.9272,-3.9272,-3.9272,-3.9272,-3.9272,-3.9272,-3.9272,-3.9272,-3.9272,-3.9272,-3.9272,-3.9272,-3.9272,-3.9272,-3.9272,-3.9272,-3.9272,-3.9272,-3.9272,-3.9272,-3.9272,-3.9272,-3.9272,-3.9272,-3.9272,-3.9272,-3.9272,-3.9272,-3.9272,-3.9272,-3.9272,-3.9272,-3.9272,-3.9272,-3.9272,-3.9272,-3.9272,-3.9272,-3.9272,-3.9272,-3.9272,-3.9272,-3.9272,-3.9272,-3.9272,-3.9272,-3.9272,-3.9272,-3.9272,-3.9272,-3.9272,-3.9272,-3.9272,-3.9272,-3.9272,-3.9272,-3.9272,-3.9272,-3.9272,-3.9272,-3.9272,-3.9272,-3.9272,-3.9272,-3.9272,-3.9272,0.0,0.0,0.0,0.0,0.0,-3.3432,0.0,0.0,0.0,0.0,0.0,0.0,0.0,0.0,0.0,0.0,0.0,0.0,0.0,0.0,0.0,0.0,0.0,0.0,0.0,0.0,-4.0699,-4.0352,-3.9887,-3.9767,-4.0029,-3.9631,-3.937,-3.9451,-3.9325,-3.9206,-3.9073,-3.9206,-3.9206,-3.9073,-3.9206,-3.9272,-3.9272,-3.9272,-3.9272,-3.9272,-3.9272,-3.9272,-3.9272,-3.9272,-3.9272,-3.9272,-3.9272,-3.9272,-3.9272,-3.9272,-3.9272,-3.9272,-3.9272,-3.9272,-3.9272,-3.9272,-3.9272,-3.9272,-3.9272,-3.9272,-3.9272,-3.9272,-3.9272,-3.9272,-3.9272,-3.9272,-3.9272,-3.9272,-3.9272,-3.9272,-3.9272,-3.9272,-3.9272,-3.9272,-3.9272,-3.9272,-3.9272,-3.9272,-3.9272,-3.9272,-3.9272,-3.9272,-3.9272,-3.9272,-3.9272,-3.9272,-3.9272,-3.9272,-3.9272,-3.9272,-3.9272,-3.9272,-3.9272,-3.9272,-3.9272,-3.9272,-3.9272,-3.9272,-3.9272,-3.9272,-3.9272,-3.9272,-3.9272,-3.9272,-3.9272,-3.9272,0.0,0.0,0.0,0.0,-3.4753,0.0,0.0,0.0,0.0,0.0,0.0,-3.2375,-3.2375,0.0,0.0,0.0,0.0,0.0,0.0,0.0,0.0,0.0,0.0,0.0,0.0,0.0,0.0,-3.9961,-3.9921,-3.9999,-4.0351,-3.983,-3.9668,-3.9885,-3.9504,-3.8974,-3.8344,-3.8957,-3.8957,-3.8344,-3.8974,-3.9272,-3.9272,-3.9272,-3.9272,-3.9272,-3.9272,-3.9272,-3.9272,-3.9272,-3.9272,-3.9272,-3.9272,-3.9272,-3.9272,-3.9272,-3.9272,-3.9272,-3.9272,-3.9272,-3.9272,-3.9272,-3.9272,-3.9272,-3.9272,-3.9272,-3.9272,-3.9272,-3.9272,-3.9272,-3.9272,-3.9272,-3.9272,-3.9272,-3.9272,-3.9272,-3.9272,-3.9272,-3.9272,-3.9272,-3.9272,-3.9272,-3.9272,-3.9272,-3.9272,-3.9272,-3.9272,-3.9272,-3.9272,-3.9272,-3.9272,-3.9272,-3.9272,-3.9272,-3.9272,-3.9272,-3.9272,-3.9272,-3.9272,-3.9272,-3.9272,-3.9272,-3.9272,-3.9272,-3.9272,-3.9272,-3.9272,-3.9272,-3.9272,-3.9272,-3.9272,-3.9272,0.0,0.0,0.0,0.0,0.0,0.0,0.0,0.0,-3.2317,0.0,0.0,0.0,0.0,0.0,0.0,0.0,0.0,0.0,0.0,0.0,0.0,0.0,0.0,0.0,0.0,0.0,0.0,0.0,0.0,-3.8657,-3.9207,-3.8809,-3.8605,-3.8734,-3.8653,-3.851,-3.8212,-3.8924,-3.9123,-3.8825,-3.9123,-3.9272,-3.9272,-3.9272,-3.9272,-3.9272,-3.9272,-3.9272,-3.9272,-3.9272,-3.9272,-3.9272,-3.9272,-3.9272,-3.9272,-3.9272,-3.9272,-3.9272,-3.9272,-3.9272,-3.9272,-3.9272,-3.9272,-3.9272,-3.9272,-3.9272,-3.9272,-3.9272,-3.9272,-3.9272,-3.9272,-3.9272,-3.9272,-3.9272,-3.9272,-3.9272,-3.9272,-3.9272,-3.9272,-3.9272,-3.9272,-3.9272,-3.9272,-3.9272,-3.9272,-3.9272,-3.9272,-3.9272,-3.9272,-3.9272,-3.9272,-3.9272,-3.9272,-3.9272,-3.9272,-3.9272,-3.9272,-3.9272,-3.9272,-3.9272,-3.9272,-3.9272,-3.9272,-3.9272,-3.9272,-3.9272,-3.9272,-3.9272,-3.9272,-3.9272,-3.9272,-3.9272,-3.7972,0.0,0.0,0.0,0.0,0.0,0.0,0.0,0.0,0.0,0.0,0.0,0.0,0.0,-3.1935,0.0,0.0,0.0,0.0,0.0,0.0,0.0,0.0,0.0,0.0,0.0,0.0,0.0,0.0,0.0,-3.8261,-3.8036,-3.7865,-3.7976,-3.8221,-3.8369,-3.8369,-3.9013,-3.9272,-3.9272,-3.9272,-3.9272,-3.9272,-3.9073,-3.909,-3.9309,-3.9073,-3.909,-3.9272,-3.9272,-3.9272,-3.9272,-3.9272,-3.9272,-3.9272,-3.9272,-3.9272,-3.9272,-3.9272,-3.9272,-3.9272,-3.9272,-3.9272,-3.9272,-3.9272,-3.9272,-3.9272,-3.9272,-3.9272,-3.9272,-3.9272,-3.9272,-3.9272,-3.9272,-3.9272,-3.9272,-3.9272,-3.9272,-3.9272,-3.9272,-3.9272,-3.9272,-3.9272,-3.9272,-3.9272,-3.9272,-3.9272,-3.9272,-3.9272,-3.9272,-3.9272,-3.9272,-3.9272,-3.9272,-3.9272,-3.9272,-3.9272,-3.9272,-3.9272,-3.9272,-3.9272,-3.9272,-3.9272,-3.9272,-3.9272,-3.9272,-3.9272,-3.9272,-3.9272,-3.9272,-3.9272,-3.9272,0.0,0.0,0.0,-3.7994,0.0,0.0,0.0,0.0,-3.2697,0.0,0.0,0.0,0.0,-3.18,-3.1763,-3.1651,0.0,0.0,0.0,0.0,0.0,0.0,0.0,0.0,0.0,0.0,0.0,0.0,0.0,0.0,-3.7977,-3.8012,-3.8094,-3.8367,-3.8625,-3.8788,-3.8788,-3.9137,-3.9272,-3.9272,-3.9272,-3.9272,-3.9255,-3.856,-3.8626,-3.9239,-3.8543,-3.8642,-3.9272,-3.9272,-3.9272,-3.9272,-3.9272,-3.9272,-3.9272,-3.9272,-3.9272,-3.9272,-3.9272,-3.9272,-3.9272,-3.9272,-3.9272,-3.9272,-3.9272,-3.9272,-3.9272,-3.9272,-3.9272,-3.9272,-3.9272,-3.9272,-3.9272,-3.9272,-3.9272,-3.9272,-3.9272,-3.9272,-3.9272,-3.9272,-3.9272,-3.9272,-3.9272,-3.9272,-3.9272,-3.9272,-3.9272,-3.9272,-3.9272,-3.9272,-3.9272,-3.9272,-3.9272,-3.9272,-3.9272,-3.9272,-3.9272,-3.9272,-3.9272,-3.9272,-3.9272,-3.9272,-3.9272,-3.9272,-3.9272,-3.9272,-3.9272,-3.9272,-3.9272,-3.9272,-3.9272,-3.9272,0.0,0.0,-3.9739,-3.8351,0.0,0.0,0.0,0.0,0.0,0.0,0.0,0.0,0.0,0.0,-3.1726,-3.1576,-3.0905,-3.0421,0.0,0.0,0.0,0.0,0.0,0.0,0.0,0.0,0.0,0.0,0.0,0.0,0.0,-3.7166,-3.7084,-3.7627,-3.7972,-3.8159,-3.8145,-3.8723,-3.9043,-3.8941,-3.87,-3.8825,-3.9272,-3.9023,-3.904,-3.9309,-3.9023,-3.9056,-3.9272,-3.9272,-3.9272,-3.9272,-3.9272,-3.9272,-3.9222,-3.8742,-3.8576,-3.8576,-3.8576,-3.8576,-3.8642,-3.9123,-3.9272,-3.9272,-3.9272,-3.9272,-3.9272,-3.9272,-3.9272,-3.9272,-3.9272,-3.9272,-3.9272,-3.9272,-3.9272,-3.9272,-3.9272,-3.9272,-3.9272,-3.9272,-3.9272,-3.9272,-3.9272,-3.9272,-3.9272,-3.9272,-3.9272,-3.9272,-3.9272,-3.9272,-3.9272,-3.9272,-3.9272,-3.9272,-3.9272,-3.9272,-3.9272,-3.9272,-3.9272,-3.9272,-3.9272,-3.9272,-3.9272,-3.9272,-3.9272,-3.9272,-3.9272,-3.9272,-3.9272,-3.9272,-3.9272,-3.9272,-4.0534,-4.077,0.0,-3.9341,-3.9171,0.0,-3.6719,0.0,0.0,0.0,0.0,0.0,0.0,0.0,-3.1935,-3.2355,-3.1285,-3.0353,0.0,-3.0328,0.0,0.0,0.0,0.0,0.0,0.0,0.0,-3.5927,-3.6365,0.0,0.0,0.0,-3.683,-3.7168,-3.746,-3.7687,-3.7773,-3.8369,-3.8757,-3.8958,-3.8716,-3.8825,-3.9272,-3.9007,-3.8907,-3.8874,-3.8609,-3.851,-3.851,-3.851,-3.8659,-3.8907,-3.8907,-3.9056,-3.9189,-3.8477,-3.8046,-3.7864,-3.8129,-3.8212,-3.8328,-3.904,-3.9272,-3.9272,-3.9272,-3.9272,-3.9272,-3.9272,-3.9272,-3.9272,-3.9272,-3.9272,-3.9272,-3.9272,-3.9272,-3.9272,-3.9272,-3.9272,-3.9272,-3.9272,-3.9272,-3.9272,-3.9272,-3.9272,-3.9272,-3.9272,-3.9272,-3.9272,-3.9272,-3.9272,-3.9272,-3.9272,-3.9272,-3.9272,-3.9272,-3.9272,-3.9272,-3.9272,-3.9272,-3.9272,-3.9272,-3.9272,-3.9404,-3.9669,-3.9404,-3.9404,-3.9669,-3.9404,-3.9272,-3.9272,-3.9272,-3.9272]}]]